<?xml version="1.0" encoding="UTF-8" standalone="no" ?>
<gpx xmlns="http://www.topografix.com/GPX/1/1" xmlns:xsi="http://www.w3.org/2001/XMLSchema-instance" xsi:schemaLocation="http://www.topografix.com/GPX/1/1 http://www.topografix.com/GPX/1/1/gpx.xsd" version="1.1" creator="VisuGPX - https://www.visugpx.com">
  <metadata>
    <name>Rando du samedi 13/06 à Lyons</name>
    <desc><![CDATA[Bris de patte de dérailleur, retour à pied]]></desc>
  </metadata>
  <trk>
    <name><![CDATA[13/06/2015 09:59:20]]></name>
    <trkseg>
      <trkpt lat="49.39925" lon="1.47901">
        <ele>129</ele>
        <time>2015-06-13T07:59:20Z</time>
      </trkpt>
      <trkpt lat="49.39926" lon="1.47901">
        <ele>242</ele>
        <time>2015-06-13T07:59:21Z</time>
      </trkpt>
      <trkpt lat="49.39927" lon="1.479">
        <ele>242</ele>
        <time>2015-06-13T07:59:22Z</time>
      </trkpt>
      <trkpt lat="49.3993" lon="1.47895">
        <ele>129</ele>
        <time>2015-06-13T07:59:25Z</time>
      </trkpt>
      <trkpt lat="49.39931" lon="1.47894">
        <ele>128.79998779297</ele>
        <time>2015-06-13T07:59:26Z</time>
      </trkpt>
      <trkpt lat="49.39934" lon="1.47905">
        <ele>128.20001220703</ele>
        <time>2015-06-13T08:00:19Z</time>
      </trkpt>
      <trkpt lat="49.39929" lon="1.47905">
        <ele>128.59997558594</ele>
        <time>2015-06-13T08:01:04Z</time>
      </trkpt>
      <trkpt lat="49.39927" lon="1.47906">
        <ele>128.59997558594</ele>
        <time>2015-06-13T08:01:05Z</time>
      </trkpt>
      <trkpt lat="49.39926" lon="1.47906">
        <ele>128.59997558594</ele>
        <time>2015-06-13T08:01:06Z</time>
      </trkpt>
      <trkpt lat="49.39926" lon="1.47905">
        <ele>128.59997558594</ele>
        <time>2015-06-13T08:01:07Z</time>
      </trkpt>
      <trkpt lat="49.39924" lon="1.47904">
        <ele>128.59997558594</ele>
        <time>2015-06-13T08:01:08Z</time>
      </trkpt>
      <trkpt lat="49.39923" lon="1.47903">
        <ele>128.59997558594</ele>
        <time>2015-06-13T08:01:09Z</time>
      </trkpt>
      <trkpt lat="49.39922" lon="1.47902">
        <ele>128.59997558594</ele>
        <time>2015-06-13T08:01:10Z</time>
      </trkpt>
      <trkpt lat="49.39893" lon="1.47859">
        <ele>130.20001220703</ele>
        <time>2015-06-13T08:01:32Z</time>
      </trkpt>
      <trkpt lat="49.39867" lon="1.47802">
        <ele>132</ele>
        <time>2015-06-13T08:01:51Z</time>
      </trkpt>
      <trkpt lat="49.39832" lon="1.4775">
        <ele>131.20001220703</ele>
        <time>2015-06-13T08:02:06Z</time>
      </trkpt>
      <trkpt lat="49.3983" lon="1.47746">
        <ele>130.79998779297</ele>
        <time>2015-06-13T08:02:07Z</time>
      </trkpt>
      <trkpt lat="49.39828" lon="1.47742">
        <ele>130.20001220703</ele>
        <time>2015-06-13T08:02:08Z</time>
      </trkpt>
      <trkpt lat="49.39819" lon="1.47729">
        <ele>129.59997558594</ele>
        <time>2015-06-13T08:02:13Z</time>
      </trkpt>
      <trkpt lat="49.39816" lon="1.47727">
        <ele>129.40002441406</ele>
        <time>2015-06-13T08:02:14Z</time>
      </trkpt>
      <trkpt lat="49.39815" lon="1.47724">
        <ele>129.40002441406</ele>
        <time>2015-06-13T08:02:15Z</time>
      </trkpt>
      <trkpt lat="49.39812" lon="1.47721">
        <ele>129.40002441406</ele>
        <time>2015-06-13T08:02:16Z</time>
      </trkpt>
      <trkpt lat="49.3981" lon="1.47716">
        <ele>129.59997558594</ele>
        <time>2015-06-13T08:02:17Z</time>
      </trkpt>
      <trkpt lat="49.39808" lon="1.47712">
        <ele>129.79998779297</ele>
        <time>2015-06-13T08:02:18Z</time>
      </trkpt>
      <trkpt lat="49.39794" lon="1.47661">
        <ele>130</ele>
        <time>2015-06-13T08:02:28Z</time>
      </trkpt>
      <trkpt lat="49.39793" lon="1.47598">
        <ele>127.40002441406</ele>
        <time>2015-06-13T08:02:37Z</time>
      </trkpt>
      <trkpt lat="49.39796" lon="1.47571">
        <ele>126.79998779297</ele>
        <time>2015-06-13T08:02:42Z</time>
      </trkpt>
      <trkpt lat="49.39794" lon="1.47567">
        <ele>126.59997558594</ele>
        <time>2015-06-13T08:02:43Z</time>
      </trkpt>
      <trkpt lat="49.39792" lon="1.47566">
        <ele>126.59997558594</ele>
        <time>2015-06-13T08:02:44Z</time>
      </trkpt>
      <trkpt lat="49.39789" lon="1.47566">
        <ele>126.59997558594</ele>
        <time>2015-06-13T08:02:45Z</time>
      </trkpt>
      <trkpt lat="49.39786" lon="1.47565">
        <ele>126.59997558594</ele>
        <time>2015-06-13T08:02:46Z</time>
      </trkpt>
      <trkpt lat="49.39783" lon="1.47561">
        <ele>126.40002441406</ele>
        <time>2015-06-13T08:02:48Z</time>
      </trkpt>
      <trkpt lat="49.39783" lon="1.47557">
        <ele>126.20001220703</ele>
        <time>2015-06-13T08:02:49Z</time>
      </trkpt>
      <trkpt lat="49.39783" lon="1.47553">
        <ele>126.40002441406</ele>
        <time>2015-06-13T08:02:50Z</time>
      </trkpt>
      <trkpt lat="49.39783" lon="1.47549">
        <ele>126.20001220703</ele>
        <time>2015-06-13T08:02:51Z</time>
      </trkpt>
      <trkpt lat="49.39785" lon="1.47544">
        <ele>126</ele>
        <time>2015-06-13T08:02:52Z</time>
      </trkpt>
      <trkpt lat="49.39786" lon="1.47539">
        <ele>125.79998779297</ele>
        <time>2015-06-13T08:02:53Z</time>
      </trkpt>
      <trkpt lat="49.39798" lon="1.47504">
        <ele>124</ele>
        <time>2015-06-13T08:03:00Z</time>
      </trkpt>
      <trkpt lat="49.39797" lon="1.47498">
        <ele>123.79998779297</ele>
        <time>2015-06-13T08:03:01Z</time>
      </trkpt>
      <trkpt lat="49.39797" lon="1.47479">
        <ele>123.79998779297</ele>
        <time>2015-06-13T08:03:04Z</time>
      </trkpt>
      <trkpt lat="49.39796" lon="1.47473">
        <ele>123.59997558594</ele>
        <time>2015-06-13T08:03:05Z</time>
      </trkpt>
      <trkpt lat="49.39795" lon="1.47467">
        <ele>123.40002441406</ele>
        <time>2015-06-13T08:03:06Z</time>
      </trkpt>
      <trkpt lat="49.39788" lon="1.47442">
        <ele>122.79998779297</ele>
        <time>2015-06-13T08:03:10Z</time>
      </trkpt>
      <trkpt lat="49.3979" lon="1.47436">
        <ele>122.79998779297</ele>
        <time>2015-06-13T08:03:11Z</time>
      </trkpt>
      <trkpt lat="49.39791" lon="1.47429">
        <ele>122.79998779297</ele>
        <time>2015-06-13T08:03:12Z</time>
      </trkpt>
      <trkpt lat="49.39797" lon="1.47411">
        <ele>122</ele>
        <time>2015-06-13T08:03:15Z</time>
      </trkpt>
      <trkpt lat="49.39799" lon="1.47406">
        <ele>121.40002441406</ele>
        <time>2015-06-13T08:03:16Z</time>
      </trkpt>
      <trkpt lat="49.39802" lon="1.47403">
        <ele>121.20001220703</ele>
        <time>2015-06-13T08:03:17Z</time>
      </trkpt>
      <trkpt lat="49.39804" lon="1.47401">
        <ele>121.20001220703</ele>
        <time>2015-06-13T08:03:18Z</time>
      </trkpt>
      <trkpt lat="49.39807" lon="1.47399">
        <ele>121.20001220703</ele>
        <time>2015-06-13T08:03:19Z</time>
      </trkpt>
      <trkpt lat="49.3981" lon="1.47398">
        <ele>121.20001220703</ele>
        <time>2015-06-13T08:03:20Z</time>
      </trkpt>
      <trkpt lat="49.39813" lon="1.47396">
        <ele>121.20001220703</ele>
        <time>2015-06-13T08:03:21Z</time>
      </trkpt>
      <trkpt lat="49.39816" lon="1.47392">
        <ele>121</ele>
        <time>2015-06-13T08:03:22Z</time>
      </trkpt>
      <trkpt lat="49.39818" lon="1.47387">
        <ele>120.79998779297</ele>
        <time>2015-06-13T08:03:23Z</time>
      </trkpt>
      <trkpt lat="49.3982" lon="1.47383">
        <ele>120.59997558594</ele>
        <time>2015-06-13T08:03:24Z</time>
      </trkpt>
      <trkpt lat="49.39824" lon="1.47377">
        <ele>120.40002441406</ele>
        <time>2015-06-13T08:03:25Z</time>
      </trkpt>
      <trkpt lat="49.39842" lon="1.47355">
        <ele>117.40002441406</ele>
        <time>2015-06-13T08:03:30Z</time>
      </trkpt>
      <trkpt lat="49.39854" lon="1.47345">
        <ele>116.20001220703</ele>
        <time>2015-06-13T08:03:33Z</time>
      </trkpt>
      <trkpt lat="49.39893" lon="1.47329">
        <ele>114</ele>
        <time>2015-06-13T08:03:45Z</time>
      </trkpt>
      <trkpt lat="49.39892" lon="1.47324">
        <ele>114</ele>
        <time>2015-06-13T08:03:46Z</time>
      </trkpt>
      <trkpt lat="49.39892" lon="1.4732">
        <ele>114.20001220703</ele>
        <time>2015-06-13T08:03:47Z</time>
      </trkpt>
      <trkpt lat="49.39892" lon="1.47317">
        <ele>114.20001220703</ele>
        <time>2015-06-13T08:03:48Z</time>
      </trkpt>
      <trkpt lat="49.39892" lon="1.47313">
        <ele>114</ele>
        <time>2015-06-13T08:03:49Z</time>
      </trkpt>
      <trkpt lat="49.39891" lon="1.47309">
        <ele>114</ele>
        <time>2015-06-13T08:03:50Z</time>
      </trkpt>
      <trkpt lat="49.3989" lon="1.47304">
        <ele>113.79998779297</ele>
        <time>2015-06-13T08:03:51Z</time>
      </trkpt>
      <trkpt lat="49.39892" lon="1.47299">
        <ele>113.59997558594</ele>
        <time>2015-06-13T08:03:52Z</time>
      </trkpt>
      <trkpt lat="49.39894" lon="1.47296">
        <ele>113.59997558594</ele>
        <time>2015-06-13T08:03:53Z</time>
      </trkpt>
      <trkpt lat="49.39895" lon="1.47294">
        <ele>113.59997558594</ele>
        <time>2015-06-13T08:03:54Z</time>
      </trkpt>
      <trkpt lat="49.39897" lon="1.47294">
        <ele>113.20001220703</ele>
        <time>2015-06-13T08:03:55Z</time>
      </trkpt>
      <trkpt lat="49.39899" lon="1.47295">
        <ele>112.79998779297</ele>
        <time>2015-06-13T08:03:56Z</time>
      </trkpt>
      <trkpt lat="49.39901" lon="1.47298">
        <ele>112.59997558594</ele>
        <time>2015-06-13T08:03:57Z</time>
      </trkpt>
      <trkpt lat="49.39904" lon="1.47302">
        <ele>112.20001220703</ele>
        <time>2015-06-13T08:03:58Z</time>
      </trkpt>
      <trkpt lat="49.39907" lon="1.47309">
        <ele>112</ele>
        <time>2015-06-13T08:03:59Z</time>
      </trkpt>
      <trkpt lat="49.39909" lon="1.47316">
        <ele>111.40002441406</ele>
        <time>2015-06-13T08:04:00Z</time>
      </trkpt>
      <trkpt lat="49.39917" lon="1.47328">
        <ele>110.59997558594</ele>
        <time>2015-06-13T08:04:02Z</time>
      </trkpt>
      <trkpt lat="49.39921" lon="1.47332">
        <ele>110.20001220703</ele>
        <time>2015-06-13T08:04:03Z</time>
      </trkpt>
      <trkpt lat="49.39935" lon="1.47348">
        <ele>108.20001220703</ele>
        <time>2015-06-13T08:04:07Z</time>
      </trkpt>
      <trkpt lat="49.39964" lon="1.47373">
        <ele>107.59997558594</ele>
        <time>2015-06-13T08:04:19Z</time>
      </trkpt>
      <trkpt lat="49.39967" lon="1.47373">
        <ele>107.40002441406</ele>
        <time>2015-06-13T08:04:20Z</time>
      </trkpt>
      <trkpt lat="49.39969" lon="1.4737">
        <ele>107.40002441406</ele>
        <time>2015-06-13T08:04:21Z</time>
      </trkpt>
      <trkpt lat="49.39978" lon="1.47359">
        <ele>107.20001220703</ele>
        <time>2015-06-13T08:04:25Z</time>
      </trkpt>
      <trkpt lat="49.39981" lon="1.4736">
        <ele>107.20001220703</ele>
        <time>2015-06-13T08:04:26Z</time>
      </trkpt>
      <trkpt lat="49.39984" lon="1.47361">
        <ele>107.20001220703</ele>
        <time>2015-06-13T08:04:27Z</time>
      </trkpt>
      <trkpt lat="49.39988" lon="1.4736">
        <ele>107.20001220703</ele>
        <time>2015-06-13T08:04:28Z</time>
      </trkpt>
      <trkpt lat="49.39991" lon="1.47357">
        <ele>107.20001220703</ele>
        <time>2015-06-13T08:04:29Z</time>
      </trkpt>
      <trkpt lat="49.39993" lon="1.47354">
        <ele>107</ele>
        <time>2015-06-13T08:04:30Z</time>
      </trkpt>
      <trkpt lat="49.39995" lon="1.4735">
        <ele>107</ele>
        <time>2015-06-13T08:04:31Z</time>
      </trkpt>
      <trkpt lat="49.39997" lon="1.47346">
        <ele>107</ele>
        <time>2015-06-13T08:04:32Z</time>
      </trkpt>
      <trkpt lat="49.40002" lon="1.47341">
        <ele>107</ele>
        <time>2015-06-13T08:04:34Z</time>
      </trkpt>
      <trkpt lat="49.40005" lon="1.4734">
        <ele>107</ele>
        <time>2015-06-13T08:04:35Z</time>
      </trkpt>
      <trkpt lat="49.40008" lon="1.4734">
        <ele>106.79998779297</ele>
        <time>2015-06-13T08:04:36Z</time>
      </trkpt>
      <trkpt lat="49.40012" lon="1.47339">
        <ele>106.79998779297</ele>
        <time>2015-06-13T08:04:37Z</time>
      </trkpt>
      <trkpt lat="49.40015" lon="1.47338">
        <ele>107</ele>
        <time>2015-06-13T08:04:38Z</time>
      </trkpt>
      <trkpt lat="49.40065" lon="1.47336">
        <ele>106.59997558594</ele>
        <time>2015-06-13T08:04:52Z</time>
      </trkpt>
      <trkpt lat="49.40112" lon="1.47329">
        <ele>107.59997558594</ele>
        <time>2015-06-13T08:05:09Z</time>
      </trkpt>
      <trkpt lat="49.40114" lon="1.47327">
        <ele>107.59997558594</ele>
        <time>2015-06-13T08:05:10Z</time>
      </trkpt>
      <trkpt lat="49.40115" lon="1.47326">
        <ele>107.20001220703</ele>
        <time>2015-06-13T08:05:11Z</time>
      </trkpt>
      <trkpt lat="49.40116" lon="1.47323">
        <ele>107.20001220703</ele>
        <time>2015-06-13T08:05:12Z</time>
      </trkpt>
      <trkpt lat="49.40117" lon="1.4732">
        <ele>107.20001220703</ele>
        <time>2015-06-13T08:05:13Z</time>
      </trkpt>
      <trkpt lat="49.40118" lon="1.47316">
        <ele>107.40002441406</ele>
        <time>2015-06-13T08:05:14Z</time>
      </trkpt>
      <trkpt lat="49.40124" lon="1.47305">
        <ele>108.79998779297</ele>
        <time>2015-06-13T08:05:19Z</time>
      </trkpt>
      <trkpt lat="49.40127" lon="1.47303">
        <ele>109</ele>
        <time>2015-06-13T08:05:20Z</time>
      </trkpt>
      <trkpt lat="49.40129" lon="1.47302">
        <ele>109</ele>
        <time>2015-06-13T08:05:21Z</time>
      </trkpt>
      <trkpt lat="49.40133" lon="1.47302">
        <ele>109</ele>
        <time>2015-06-13T08:05:22Z</time>
      </trkpt>
      <trkpt lat="49.40137" lon="1.47302">
        <ele>109</ele>
        <time>2015-06-13T08:05:23Z</time>
      </trkpt>
      <trkpt lat="49.4014" lon="1.47304">
        <ele>108.59997558594</ele>
        <time>2015-06-13T08:05:24Z</time>
      </trkpt>
      <trkpt lat="49.40143" lon="1.47307">
        <ele>108.40002441406</ele>
        <time>2015-06-13T08:05:25Z</time>
      </trkpt>
      <trkpt lat="49.40146" lon="1.47309">
        <ele>108</ele>
        <time>2015-06-13T08:05:26Z</time>
      </trkpt>
      <trkpt lat="49.40199" lon="1.47361">
        <ele>108.79998779297</ele>
        <time>2015-06-13T08:05:45Z</time>
      </trkpt>
      <trkpt lat="49.40241" lon="1.47426">
        <ele>110</ele>
        <time>2015-06-13T08:06:05Z</time>
      </trkpt>
      <trkpt lat="49.40282" lon="1.47488">
        <ele>111</ele>
        <time>2015-06-13T08:06:24Z</time>
      </trkpt>
      <trkpt lat="49.40319" lon="1.47562">
        <ele>111.59997558594</ele>
        <time>2015-06-13T08:06:47Z</time>
      </trkpt>
      <trkpt lat="49.40341" lon="1.47649">
        <ele>112.59997558594</ele>
        <time>2015-06-13T08:07:09Z</time>
      </trkpt>
      <trkpt lat="49.40355" lon="1.47741">
        <ele>112.40002441406</ele>
        <time>2015-06-13T08:07:27Z</time>
      </trkpt>
      <trkpt lat="49.40348" lon="1.47802">
        <ele>111.20001220703</ele>
        <time>2015-06-13T08:07:52Z</time>
      </trkpt>
      <trkpt lat="49.40348" lon="1.47806">
        <ele>111.40002441406</ele>
        <time>2015-06-13T08:07:53Z</time>
      </trkpt>
      <trkpt lat="49.40346" lon="1.4781">
        <ele>111.40002441406</ele>
        <time>2015-06-13T08:07:54Z</time>
      </trkpt>
      <trkpt lat="49.40346" lon="1.47815">
        <ele>111.20001220703</ele>
        <time>2015-06-13T08:07:55Z</time>
      </trkpt>
      <trkpt lat="49.40347" lon="1.4782">
        <ele>111.20001220703</ele>
        <time>2015-06-13T08:07:56Z</time>
      </trkpt>
      <trkpt lat="49.40348" lon="1.47825">
        <ele>111.40002441406</ele>
        <time>2015-06-13T08:07:57Z</time>
      </trkpt>
      <trkpt lat="49.4035" lon="1.4783">
        <ele>111.40002441406</ele>
        <time>2015-06-13T08:07:58Z</time>
      </trkpt>
      <trkpt lat="49.40367" lon="1.47904">
        <ele>113.20001220703</ele>
        <time>2015-06-13T08:08:14Z</time>
      </trkpt>
      <trkpt lat="49.40381" lon="1.47975">
        <ele>115.40002441406</ele>
        <time>2015-06-13T08:08:29Z</time>
      </trkpt>
      <trkpt lat="49.40394" lon="1.48043">
        <ele>117.40002441406</ele>
        <time>2015-06-13T08:08:43Z</time>
      </trkpt>
      <trkpt lat="49.40407" lon="1.48112">
        <ele>119.40002441406</ele>
        <time>2015-06-13T08:08:56Z</time>
      </trkpt>
      <trkpt lat="49.40421" lon="1.48184">
        <ele>121.79998779297</ele>
        <time>2015-06-13T08:09:10Z</time>
      </trkpt>
      <trkpt lat="49.40445" lon="1.48249">
        <ele>121</ele>
        <time>2015-06-13T08:09:21Z</time>
      </trkpt>
      <trkpt lat="49.4048" lon="1.48314">
        <ele>118.79998779297</ele>
        <time>2015-06-13T08:09:29Z</time>
      </trkpt>
      <trkpt lat="49.40488" lon="1.48319">
        <ele>118.40002441406</ele>
        <time>2015-06-13T08:09:30Z</time>
      </trkpt>
      <trkpt lat="49.40496" lon="1.48323">
        <ele>118.20001220703</ele>
        <time>2015-06-13T08:09:31Z</time>
      </trkpt>
      <trkpt lat="49.40504" lon="1.48325">
        <ele>118.20001220703</ele>
        <time>2015-06-13T08:09:32Z</time>
      </trkpt>
      <trkpt lat="49.40511" lon="1.48326">
        <ele>118.20001220703</ele>
        <time>2015-06-13T08:09:33Z</time>
      </trkpt>
      <trkpt lat="49.40517" lon="1.48326">
        <ele>118.40002441406</ele>
        <time>2015-06-13T08:09:34Z</time>
      </trkpt>
      <trkpt lat="49.40524" lon="1.48325">
        <ele>118.59997558594</ele>
        <time>2015-06-13T08:09:35Z</time>
      </trkpt>
      <trkpt lat="49.40529" lon="1.48324">
        <ele>118.79998779297</ele>
        <time>2015-06-13T08:09:36Z</time>
      </trkpt>
      <trkpt lat="49.40575" lon="1.48311">
        <ele>120.59997558594</ele>
        <time>2015-06-13T08:09:47Z</time>
      </trkpt>
      <trkpt lat="49.40623" lon="1.48301">
        <ele>123.40002441406</ele>
        <time>2015-06-13T08:10:02Z</time>
      </trkpt>
      <trkpt lat="49.40671" lon="1.48284">
        <ele>126</ele>
        <time>2015-06-13T08:10:18Z</time>
      </trkpt>
      <trkpt lat="49.40711" lon="1.48249">
        <ele>129</ele>
        <time>2015-06-13T08:10:35Z</time>
      </trkpt>
      <trkpt lat="49.4074" lon="1.48209">
        <ele>131</ele>
        <time>2015-06-13T08:10:53Z</time>
      </trkpt>
      <trkpt lat="49.40741" lon="1.48209">
        <ele>131</ele>
        <time>2015-06-13T08:10:54Z</time>
      </trkpt>
      <trkpt lat="49.40742" lon="1.48211">
        <ele>131</ele>
        <time>2015-06-13T08:10:56Z</time>
      </trkpt>
      <trkpt lat="49.40742" lon="1.48213">
        <ele>131.20001220703</ele>
        <time>2015-06-13T08:10:57Z</time>
      </trkpt>
      <trkpt lat="49.40742" lon="1.48215">
        <ele>131.40002441406</ele>
        <time>2015-06-13T08:10:58Z</time>
      </trkpt>
      <trkpt lat="49.40742" lon="1.48217">
        <ele>131.59997558594</ele>
        <time>2015-06-13T08:10:59Z</time>
      </trkpt>
      <trkpt lat="49.40742" lon="1.48219">
        <ele>132</ele>
        <time>2015-06-13T08:11:00Z</time>
      </trkpt>
      <trkpt lat="49.40742" lon="1.4822">
        <ele>132.20001220703</ele>
        <time>2015-06-13T08:11:01Z</time>
      </trkpt>
      <trkpt lat="49.40747" lon="1.48219">
        <ele>133.59997558594</ele>
        <time>2015-06-13T08:11:11Z</time>
      </trkpt>
      <trkpt lat="49.4077" lon="1.48198">
        <ele>136.79998779297</ele>
        <time>2015-06-13T08:11:27Z</time>
      </trkpt>
      <trkpt lat="49.40803" lon="1.48148">
        <ele>139.79998779297</ele>
        <time>2015-06-13T08:11:48Z</time>
      </trkpt>
      <trkpt lat="49.40825" lon="1.48111">
        <ele>143</ele>
        <time>2015-06-13T08:12:05Z</time>
      </trkpt>
      <trkpt lat="49.40843" lon="1.48083">
        <ele>146.20001220703</ele>
        <time>2015-06-13T08:12:18Z</time>
      </trkpt>
      <trkpt lat="49.40863" lon="1.48044">
        <ele>149.20001220703</ele>
        <time>2015-06-13T08:12:31Z</time>
      </trkpt>
      <trkpt lat="49.40876" lon="1.48016">
        <ele>152.59997558594</ele>
        <time>2015-06-13T08:12:43Z</time>
      </trkpt>
      <trkpt lat="49.40902" lon="1.47974">
        <ele>155.59997558594</ele>
        <time>2015-06-13T08:13:00Z</time>
      </trkpt>
      <trkpt lat="49.40937" lon="1.47948">
        <ele>158.59997558594</ele>
        <time>2015-06-13T08:13:20Z</time>
      </trkpt>
      <trkpt lat="49.40989" lon="1.47927">
        <ele>161.79998779297</ele>
        <time>2015-06-13T08:13:45Z</time>
      </trkpt>
      <trkpt lat="49.41051" lon="1.47901">
        <ele>163</ele>
        <time>2015-06-13T08:14:11Z</time>
      </trkpt>
      <trkpt lat="49.41094" lon="1.47858">
        <ele>159.59997558594</ele>
        <time>2015-06-13T08:14:22Z</time>
      </trkpt>
      <trkpt lat="49.41107" lon="1.47851">
        <ele>158</ele>
        <time>2015-06-13T08:14:24Z</time>
      </trkpt>
      <trkpt lat="49.41113" lon="1.4785">
        <ele>158.40002441406</ele>
        <time>2015-06-13T08:14:25Z</time>
      </trkpt>
      <trkpt lat="49.41118" lon="1.4785">
        <ele>158.59997558594</ele>
        <time>2015-06-13T08:14:26Z</time>
      </trkpt>
      <trkpt lat="49.41167" lon="1.47848">
        <ele>161.59997558594</ele>
        <time>2015-06-13T08:14:38Z</time>
      </trkpt>
      <trkpt lat="49.41221" lon="1.47852">
        <ele>164.40002441406</ele>
        <time>2015-06-13T08:14:53Z</time>
      </trkpt>
      <trkpt lat="49.41225" lon="1.47851">
        <ele>164.59997558594</ele>
        <time>2015-06-13T08:14:54Z</time>
      </trkpt>
      <trkpt lat="49.41228" lon="1.47848">
        <ele>164.79998779297</ele>
        <time>2015-06-13T08:14:55Z</time>
      </trkpt>
      <trkpt lat="49.41232" lon="1.47844">
        <ele>165</ele>
        <time>2015-06-13T08:14:56Z</time>
      </trkpt>
      <trkpt lat="49.41236" lon="1.47841">
        <ele>165.59997558594</ele>
        <time>2015-06-13T08:14:57Z</time>
      </trkpt>
      <trkpt lat="49.41238" lon="1.47837">
        <ele>165.59997558594</ele>
        <time>2015-06-13T08:14:58Z</time>
      </trkpt>
      <trkpt lat="49.41242" lon="1.47835">
        <ele>165.79998779297</ele>
        <time>2015-06-13T08:14:59Z</time>
      </trkpt>
      <trkpt lat="49.41245" lon="1.47832">
        <ele>165.79998779297</ele>
        <time>2015-06-13T08:15:00Z</time>
      </trkpt>
      <trkpt lat="49.41277" lon="1.47803">
        <ele>166</ele>
        <time>2015-06-13T08:15:08Z</time>
      </trkpt>
      <trkpt lat="49.41317" lon="1.47757">
        <ele>164.79998779297</ele>
        <time>2015-06-13T08:15:18Z</time>
      </trkpt>
      <trkpt lat="49.41322" lon="1.47753">
        <ele>164.79998779297</ele>
        <time>2015-06-13T08:15:19Z</time>
      </trkpt>
      <trkpt lat="49.41371" lon="1.47726">
        <ele>167.20001220703</ele>
        <time>2015-06-13T08:15:33Z</time>
      </trkpt>
      <trkpt lat="49.41415" lon="1.47682">
        <ele>167.59997558594</ele>
        <time>2015-06-13T08:15:46Z</time>
      </trkpt>
      <trkpt lat="49.41462" lon="1.47642">
        <ele>167.59997558594</ele>
        <time>2015-06-13T08:15:58Z</time>
      </trkpt>
      <trkpt lat="49.41472" lon="1.47636">
        <ele>167.59997558594</ele>
        <time>2015-06-13T08:16:00Z</time>
      </trkpt>
      <trkpt lat="49.41523" lon="1.47612">
        <ele>168</ele>
        <time>2015-06-13T08:16:12Z</time>
      </trkpt>
      <trkpt lat="49.41545" lon="1.47599">
        <ele>167</ele>
        <time>2015-06-13T08:16:17Z</time>
      </trkpt>
      <trkpt lat="49.41565" lon="1.47582">
        <ele>166.79998779297</ele>
        <time>2015-06-13T08:16:21Z</time>
      </trkpt>
      <trkpt lat="49.41585" lon="1.47563">
        <ele>166</ele>
        <time>2015-06-13T08:16:25Z</time>
      </trkpt>
      <trkpt lat="49.4159" lon="1.47561">
        <ele>165.79998779297</ele>
        <time>2015-06-13T08:16:26Z</time>
      </trkpt>
      <trkpt lat="49.41645" lon="1.47534">
        <ele>164.20001220703</ele>
        <time>2015-06-13T08:16:36Z</time>
      </trkpt>
      <trkpt lat="49.41685" lon="1.47507">
        <ele>162.20001220703</ele>
        <time>2015-06-13T08:16:43Z</time>
      </trkpt>
      <trkpt lat="49.41691" lon="1.47506">
        <ele>162</ele>
        <time>2015-06-13T08:16:44Z</time>
      </trkpt>
      <trkpt lat="49.41711" lon="1.47498">
        <ele>161</ele>
        <time>2015-06-13T08:16:47Z</time>
      </trkpt>
      <trkpt lat="49.41726" lon="1.47487">
        <ele>161.20001220703</ele>
        <time>2015-06-13T08:16:50Z</time>
      </trkpt>
      <trkpt lat="49.41731" lon="1.47484">
        <ele>161.59997558594</ele>
        <time>2015-06-13T08:16:51Z</time>
      </trkpt>
      <trkpt lat="49.41764" lon="1.47473">
        <ele>164.79998779297</ele>
        <time>2015-06-13T08:16:59Z</time>
      </trkpt>
      <trkpt lat="49.41783" lon="1.47475">
        <ele>168</ele>
        <time>2015-06-13T08:17:06Z</time>
      </trkpt>
      <trkpt lat="49.41825" lon="1.47477">
        <ele>171.40002441406</ele>
        <time>2015-06-13T08:17:18Z</time>
      </trkpt>
      <trkpt lat="49.41882" lon="1.47473">
        <ele>173.40002441406</ele>
        <time>2015-06-13T08:17:33Z</time>
      </trkpt>
      <trkpt lat="49.41932" lon="1.47447">
        <ele>173.40002441406</ele>
        <time>2015-06-13T08:17:48Z</time>
      </trkpt>
      <trkpt lat="49.41976" lon="1.47421">
        <ele>171.40002441406</ele>
        <time>2015-06-13T08:18:00Z</time>
      </trkpt>
      <trkpt lat="49.42028" lon="1.47381">
        <ele>173.79998779297</ele>
        <time>2015-06-13T08:18:14Z</time>
      </trkpt>
      <trkpt lat="49.4208" lon="1.47338">
        <ele>175.79998779297</ele>
        <time>2015-06-13T08:18:29Z</time>
      </trkpt>
      <trkpt lat="49.4212" lon="1.4729">
        <ele>176.40002441406</ele>
        <time>2015-06-13T08:18:44Z</time>
      </trkpt>
      <trkpt lat="49.42123" lon="1.47288">
        <ele>176.40002441406</ele>
        <time>2015-06-13T08:18:45Z</time>
      </trkpt>
      <trkpt lat="49.42127" lon="1.47286">
        <ele>176.40002441406</ele>
        <time>2015-06-13T08:18:46Z</time>
      </trkpt>
      <trkpt lat="49.42177" lon="1.47256">
        <ele>176.40002441406</ele>
        <time>2015-06-13T08:18:59Z</time>
      </trkpt>
      <trkpt lat="49.42197" lon="1.47249">
        <ele>176.20001220703</ele>
        <time>2015-06-13T08:19:04Z</time>
      </trkpt>
      <trkpt lat="49.42201" lon="1.47248">
        <ele>176</ele>
        <time>2015-06-13T08:19:05Z</time>
      </trkpt>
      <trkpt lat="49.42214" lon="1.47245">
        <ele>176</ele>
        <time>2015-06-13T08:19:08Z</time>
      </trkpt>
      <trkpt lat="49.42218" lon="1.47243">
        <ele>176.20001220703</ele>
        <time>2015-06-13T08:19:09Z</time>
      </trkpt>
      <trkpt lat="49.42268" lon="1.47217">
        <ele>175.40002441406</ele>
        <time>2015-06-13T08:19:21Z</time>
      </trkpt>
      <trkpt lat="49.42285" lon="1.47211">
        <ele>173.59997558594</ele>
        <time>2015-06-13T08:19:30Z</time>
      </trkpt>
      <trkpt lat="49.42287" lon="1.4721">
        <ele>173.79998779297</ele>
        <time>2015-06-13T08:19:31Z</time>
      </trkpt>
      <trkpt lat="49.42289" lon="1.47209">
        <ele>174</ele>
        <time>2015-06-13T08:19:32Z</time>
      </trkpt>
      <trkpt lat="49.42291" lon="1.47207">
        <ele>174.20001220703</ele>
        <time>2015-06-13T08:19:33Z</time>
      </trkpt>
      <trkpt lat="49.42293" lon="1.47204">
        <ele>174.20001220703</ele>
        <time>2015-06-13T08:19:34Z</time>
      </trkpt>
      <trkpt lat="49.42334" lon="1.47166">
        <ele>175</ele>
        <time>2015-06-13T08:19:46Z</time>
      </trkpt>
      <trkpt lat="49.42379" lon="1.47128">
        <ele>173.40002441406</ele>
        <time>2015-06-13T08:19:57Z</time>
      </trkpt>
      <trkpt lat="49.42389" lon="1.47122">
        <ele>172.59997558594</ele>
        <time>2015-06-13T08:19:59Z</time>
      </trkpt>
      <trkpt lat="49.42439" lon="1.47094">
        <ele>173.79998779297</ele>
        <time>2015-06-13T08:20:10Z</time>
      </trkpt>
      <trkpt lat="49.42487" lon="1.47058">
        <ele>176.20001220703</ele>
        <time>2015-06-13T08:20:24Z</time>
      </trkpt>
      <trkpt lat="49.42526" lon="1.46997">
        <ele>178.40002441406</ele>
        <time>2015-06-13T08:20:38Z</time>
      </trkpt>
      <trkpt lat="49.42567" lon="1.4694">
        <ele>179</ele>
        <time>2015-06-13T08:20:52Z</time>
      </trkpt>
      <trkpt lat="49.42595" lon="1.46867">
        <ele>179.59997558594</ele>
        <time>2015-06-13T08:21:07Z</time>
      </trkpt>
      <trkpt lat="49.42624" lon="1.46806">
        <ele>179.79998779297</ele>
        <time>2015-06-13T08:21:21Z</time>
      </trkpt>
      <trkpt lat="49.42634" lon="1.46732">
        <ele>180.59997558594</ele>
        <time>2015-06-13T08:21:35Z</time>
      </trkpt>
      <trkpt lat="49.42617" lon="1.46654">
        <ele>180.40002441406</ele>
        <time>2015-06-13T08:21:50Z</time>
      </trkpt>
      <trkpt lat="49.42587" lon="1.46587">
        <ele>180</ele>
        <time>2015-06-13T08:22:03Z</time>
      </trkpt>
      <trkpt lat="49.42575" lon="1.46564">
        <ele>179.20001220703</ele>
        <time>2015-06-13T08:22:07Z</time>
      </trkpt>
      <trkpt lat="49.42574" lon="1.46557">
        <ele>179</ele>
        <time>2015-06-13T08:22:08Z</time>
      </trkpt>
      <trkpt lat="49.42573" lon="1.46549">
        <ele>179.20001220703</ele>
        <time>2015-06-13T08:22:09Z</time>
      </trkpt>
      <trkpt lat="49.42573" lon="1.4654">
        <ele>179</ele>
        <time>2015-06-13T08:22:10Z</time>
      </trkpt>
      <trkpt lat="49.42573" lon="1.46531">
        <ele>178.79998779297</ele>
        <time>2015-06-13T08:22:11Z</time>
      </trkpt>
      <trkpt lat="49.42571" lon="1.46516">
        <ele>178.40002441406</ele>
        <time>2015-06-13T08:22:13Z</time>
      </trkpt>
      <trkpt lat="49.4257" lon="1.4651">
        <ele>178.40002441406</ele>
        <time>2015-06-13T08:22:14Z</time>
      </trkpt>
      <trkpt lat="49.42549" lon="1.46429">
        <ele>178.20001220703</ele>
        <time>2015-06-13T08:22:24Z</time>
      </trkpt>
      <trkpt lat="49.42535" lon="1.46382">
        <ele>175.20001220703</ele>
        <time>2015-06-13T08:22:29Z</time>
      </trkpt>
      <trkpt lat="49.42513" lon="1.4633">
        <ele>171.79998779297</ele>
        <time>2015-06-13T08:22:34Z</time>
      </trkpt>
      <trkpt lat="49.42501" lon="1.4631">
        <ele>170.79998779297</ele>
        <time>2015-06-13T08:22:36Z</time>
      </trkpt>
      <trkpt lat="49.42458" lon="1.46252">
        <ele>168.59997558594</ele>
        <time>2015-06-13T08:22:43Z</time>
      </trkpt>
      <trkpt lat="49.42447" lon="1.46235">
        <ele>166.40002441406</ele>
        <time>2015-06-13T08:22:45Z</time>
      </trkpt>
      <trkpt lat="49.42442" lon="1.4623">
        <ele>166.40002441406</ele>
        <time>2015-06-13T08:22:46Z</time>
      </trkpt>
      <trkpt lat="49.42436" lon="1.46225">
        <ele>166.20001220703</ele>
        <time>2015-06-13T08:22:47Z</time>
      </trkpt>
      <trkpt lat="49.42402" lon="1.46197">
        <ele>164.79998779297</ele>
        <time>2015-06-13T08:22:53Z</time>
      </trkpt>
      <trkpt lat="49.42399" lon="1.46191">
        <ele>164.79998779297</ele>
        <time>2015-06-13T08:22:54Z</time>
      </trkpt>
      <trkpt lat="49.42397" lon="1.46185">
        <ele>164.79998779297</ele>
        <time>2015-06-13T08:22:55Z</time>
      </trkpt>
      <trkpt lat="49.42393" lon="1.46137">
        <ele>165.59997558594</ele>
        <time>2015-06-13T08:23:05Z</time>
      </trkpt>
      <trkpt lat="49.42391" lon="1.46134">
        <ele>165.79998779297</ele>
        <time>2015-06-13T08:23:06Z</time>
      </trkpt>
      <trkpt lat="49.42389" lon="1.46131">
        <ele>166.20001220703</ele>
        <time>2015-06-13T08:23:07Z</time>
      </trkpt>
      <trkpt lat="49.42367" lon="1.461">
        <ele>169.40002441406</ele>
        <time>2015-06-13T08:23:16Z</time>
      </trkpt>
      <trkpt lat="49.42345" lon="1.46069">
        <ele>172.59997558594</ele>
        <time>2015-06-13T08:23:24Z</time>
      </trkpt>
      <trkpt lat="49.42339" lon="1.46063">
        <ele>173</ele>
        <time>2015-06-13T08:23:25Z</time>
      </trkpt>
      <trkpt lat="49.42317" lon="1.46033">
        <ele>176</ele>
        <time>2015-06-13T08:23:33Z</time>
      </trkpt>
      <trkpt lat="49.42271" lon="1.45982">
        <ele>179</ele>
        <time>2015-06-13T08:23:48Z</time>
      </trkpt>
      <trkpt lat="49.42223" lon="1.45941">
        <ele>180.59997558594</ele>
        <time>2015-06-13T08:24:06Z</time>
      </trkpt>
      <trkpt lat="49.42181" lon="1.45883">
        <ele>182</ele>
        <time>2015-06-13T08:24:24Z</time>
      </trkpt>
      <trkpt lat="49.42134" lon="1.45829">
        <ele>182.79998779297</ele>
        <time>2015-06-13T08:24:42Z</time>
      </trkpt>
      <trkpt lat="49.42113" lon="1.45792">
        <ele>182.59997558594</ele>
        <time>2015-06-13T08:25:09Z</time>
      </trkpt>
      <trkpt lat="49.42111" lon="1.45792">
        <ele>182.59997558594</ele>
        <time>2015-06-13T08:25:10Z</time>
      </trkpt>
      <trkpt lat="49.42109" lon="1.45791">
        <ele>182.59997558594</ele>
        <time>2015-06-13T08:25:20Z</time>
      </trkpt>
      <trkpt lat="49.4211" lon="1.45787">
        <ele>182.59997558594</ele>
        <time>2015-06-13T08:25:27Z</time>
      </trkpt>
      <trkpt lat="49.42109" lon="1.45785">
        <ele>182.40002441406</ele>
        <time>2015-06-13T08:25:28Z</time>
      </trkpt>
      <trkpt lat="49.42108" lon="1.45779">
        <ele>182.59997558594</ele>
        <time>2015-06-13T08:25:32Z</time>
      </trkpt>
      <trkpt lat="49.42111" lon="1.45778">
        <ele>182.59997558594</ele>
        <time>2015-06-13T08:25:40Z</time>
      </trkpt>
      <trkpt lat="49.42113" lon="1.45783">
        <ele>182.59997558594</ele>
        <time>2015-06-13T08:25:59Z</time>
      </trkpt>
      <trkpt lat="49.42111" lon="1.45781">
        <ele>183</ele>
        <time>2015-06-13T08:26:03Z</time>
      </trkpt>
      <trkpt lat="49.42109" lon="1.45778">
        <ele>183</ele>
        <time>2015-06-13T08:26:04Z</time>
      </trkpt>
      <trkpt lat="49.42105" lon="1.45774">
        <ele>183</ele>
        <time>2015-06-13T08:26:05Z</time>
      </trkpt>
      <trkpt lat="49.42068" lon="1.45706">
        <ele>183.20001220703</ele>
        <time>2015-06-13T08:26:25Z</time>
      </trkpt>
      <trkpt lat="49.42047" lon="1.45623">
        <ele>183.59997558594</ele>
        <time>2015-06-13T08:26:40Z</time>
      </trkpt>
      <trkpt lat="49.42025" lon="1.45553">
        <ele>184.20001220703</ele>
        <time>2015-06-13T08:26:55Z</time>
      </trkpt>
      <trkpt lat="49.42022" lon="1.45552">
        <ele>184.20001220703</ele>
        <time>2015-06-13T08:26:56Z</time>
      </trkpt>
      <trkpt lat="49.4202" lon="1.4555">
        <ele>184.20001220703</ele>
        <time>2015-06-13T08:26:57Z</time>
      </trkpt>
      <trkpt lat="49.42018" lon="1.45547">
        <ele>184</ele>
        <time>2015-06-13T08:26:58Z</time>
      </trkpt>
      <trkpt lat="49.42016" lon="1.45543">
        <ele>184.20001220703</ele>
        <time>2015-06-13T08:26:59Z</time>
      </trkpt>
      <trkpt lat="49.42014" lon="1.4554">
        <ele>184.20001220703</ele>
        <time>2015-06-13T08:27:00Z</time>
      </trkpt>
      <trkpt lat="49.4198" lon="1.45469">
        <ele>185.20001220703</ele>
        <time>2015-06-13T08:27:17Z</time>
      </trkpt>
      <trkpt lat="49.41944" lon="1.45397">
        <ele>185.59997558594</ele>
        <time>2015-06-13T08:27:33Z</time>
      </trkpt>
      <trkpt lat="49.41922" lon="1.45331">
        <ele>186.59997558594</ele>
        <time>2015-06-13T08:27:51Z</time>
      </trkpt>
      <trkpt lat="49.4192" lon="1.4533">
        <ele>186.59997558594</ele>
        <time>2015-06-13T08:27:52Z</time>
      </trkpt>
      <trkpt lat="49.41919" lon="1.45329">
        <ele>186.59997558594</ele>
        <time>2015-06-13T08:27:53Z</time>
      </trkpt>
      <trkpt lat="49.41868" lon="1.45339">
        <ele>186.40002441406</ele>
        <time>2015-06-13T08:28:11Z</time>
      </trkpt>
      <trkpt lat="49.41813" lon="1.45364">
        <ele>185.40002441406</ele>
        <time>2015-06-13T08:28:23Z</time>
      </trkpt>
      <trkpt lat="49.41805" lon="1.45369">
        <ele>185.20001220703</ele>
        <time>2015-06-13T08:28:25Z</time>
      </trkpt>
      <trkpt lat="49.41756" lon="1.45399">
        <ele>184</ele>
        <time>2015-06-13T08:28:35Z</time>
      </trkpt>
      <trkpt lat="49.41706" lon="1.45438">
        <ele>182.79998779297</ele>
        <time>2015-06-13T08:28:44Z</time>
      </trkpt>
      <trkpt lat="49.41685" lon="1.45453">
        <ele>182</ele>
        <time>2015-06-13T08:28:48Z</time>
      </trkpt>
      <trkpt lat="49.4168" lon="1.45456">
        <ele>182.20001220703</ele>
        <time>2015-06-13T08:28:49Z</time>
      </trkpt>
      <trkpt lat="49.41673" lon="1.45455">
        <ele>182.40002441406</ele>
        <time>2015-06-13T08:28:50Z</time>
      </trkpt>
      <trkpt lat="49.41669" lon="1.45453">
        <ele>182.40002441406</ele>
        <time>2015-06-13T08:28:51Z</time>
      </trkpt>
      <trkpt lat="49.41665" lon="1.4545">
        <ele>182.40002441406</ele>
        <time>2015-06-13T08:28:52Z</time>
      </trkpt>
      <trkpt lat="49.4166" lon="1.45446">
        <ele>182.40002441406</ele>
        <time>2015-06-13T08:28:53Z</time>
      </trkpt>
      <trkpt lat="49.41656" lon="1.45441">
        <ele>182.40002441406</ele>
        <time>2015-06-13T08:28:54Z</time>
      </trkpt>
      <trkpt lat="49.41616" lon="1.45392">
        <ele>184.40002441406</ele>
        <time>2015-06-13T08:29:08Z</time>
      </trkpt>
      <trkpt lat="49.41575" lon="1.45346">
        <ele>185.59997558594</ele>
        <time>2015-06-13T08:29:22Z</time>
      </trkpt>
      <trkpt lat="49.41536" lon="1.45296">
        <ele>187.59997558594</ele>
        <time>2015-06-13T08:29:38Z</time>
      </trkpt>
      <trkpt lat="49.41497" lon="1.45237">
        <ele>189.40002441406</ele>
        <time>2015-06-13T08:29:54Z</time>
      </trkpt>
      <trkpt lat="49.41456" lon="1.45182">
        <ele>191.40002441406</ele>
        <time>2015-06-13T08:30:12Z</time>
      </trkpt>
      <trkpt lat="49.4142" lon="1.45136">
        <ele>192.59997558594</ele>
        <time>2015-06-13T08:30:27Z</time>
      </trkpt>
      <trkpt lat="49.41379" lon="1.45074">
        <ele>192.79998779297</ele>
        <time>2015-06-13T08:30:41Z</time>
      </trkpt>
      <trkpt lat="49.41338" lon="1.45019">
        <ele>192.59997558594</ele>
        <time>2015-06-13T08:30:54Z</time>
      </trkpt>
      <trkpt lat="49.41294" lon="1.44965">
        <ele>194</ele>
        <time>2015-06-13T08:31:07Z</time>
      </trkpt>
      <trkpt lat="49.41275" lon="1.44941">
        <ele>194</ele>
        <time>2015-06-13T08:31:13Z</time>
      </trkpt>
      <trkpt lat="49.41254" lon="1.44908">
        <ele>193.79998779297</ele>
        <time>2015-06-13T08:31:20Z</time>
      </trkpt>
      <trkpt lat="49.41215" lon="1.4485">
        <ele>194.79998779297</ele>
        <time>2015-06-13T08:31:32Z</time>
      </trkpt>
      <trkpt lat="49.41177" lon="1.44802">
        <ele>194.59997558594</ele>
        <time>2015-06-13T08:31:43Z</time>
      </trkpt>
      <trkpt lat="49.41139" lon="1.44746">
        <ele>195.40002441406</ele>
        <time>2015-06-13T08:31:56Z</time>
      </trkpt>
      <trkpt lat="49.41101" lon="1.44693">
        <ele>195.40002441406</ele>
        <time>2015-06-13T08:32:08Z</time>
      </trkpt>
      <trkpt lat="49.4106" lon="1.44637">
        <ele>194.79998779297</ele>
        <time>2015-06-13T08:32:20Z</time>
      </trkpt>
      <trkpt lat="49.41027" lon="1.44582">
        <ele>194.59997558594</ele>
        <time>2015-06-13T08:32:31Z</time>
      </trkpt>
      <trkpt lat="49.4099" lon="1.44533">
        <ele>194.40002441406</ele>
        <time>2015-06-13T08:32:42Z</time>
      </trkpt>
      <trkpt lat="49.40962" lon="1.44496">
        <ele>194.79998779297</ele>
        <time>2015-06-13T08:32:51Z</time>
      </trkpt>
      <trkpt lat="49.40951" lon="1.44484">
        <ele>194.79998779297</ele>
        <time>2015-06-13T08:32:54Z</time>
      </trkpt>
      <trkpt lat="49.40939" lon="1.44471">
        <ele>195.20001220703</ele>
        <time>2015-06-13T08:32:57Z</time>
      </trkpt>
      <trkpt lat="49.40898" lon="1.44419">
        <ele>195.40002441406</ele>
        <time>2015-06-13T08:33:09Z</time>
      </trkpt>
      <trkpt lat="49.40853" lon="1.44367">
        <ele>195.40002441406</ele>
        <time>2015-06-13T08:33:20Z</time>
      </trkpt>
      <trkpt lat="49.40846" lon="1.44355">
        <ele>195.40002441406</ele>
        <time>2015-06-13T08:33:22Z</time>
      </trkpt>
      <trkpt lat="49.40843" lon="1.44349">
        <ele>195.40002441406</ele>
        <time>2015-06-13T08:33:23Z</time>
      </trkpt>
      <trkpt lat="49.4084" lon="1.44343">
        <ele>195</ele>
        <time>2015-06-13T08:33:24Z</time>
      </trkpt>
      <trkpt lat="49.40811" lon="1.44277">
        <ele>195</ele>
        <time>2015-06-13T08:33:35Z</time>
      </trkpt>
      <trkpt lat="49.4078" lon="1.44208">
        <ele>194.40002441406</ele>
        <time>2015-06-13T08:33:45Z</time>
      </trkpt>
      <trkpt lat="49.4075" lon="1.44145">
        <ele>193.20001220703</ele>
        <time>2015-06-13T08:33:54Z</time>
      </trkpt>
      <trkpt lat="49.40745" lon="1.44131">
        <ele>193.20001220703</ele>
        <time>2015-06-13T08:33:56Z</time>
      </trkpt>
      <trkpt lat="49.40742" lon="1.44126">
        <ele>193.40002441406</ele>
        <time>2015-06-13T08:33:57Z</time>
      </trkpt>
      <trkpt lat="49.4074" lon="1.44118">
        <ele>193.40002441406</ele>
        <time>2015-06-13T08:33:58Z</time>
      </trkpt>
      <trkpt lat="49.40726" lon="1.44087">
        <ele>193</ele>
        <time>2015-06-13T08:34:03Z</time>
      </trkpt>
      <trkpt lat="49.40713" lon="1.44054">
        <ele>193</ele>
        <time>2015-06-13T08:34:09Z</time>
      </trkpt>
      <trkpt lat="49.40695" lon="1.44008">
        <ele>192.40002441406</ele>
        <time>2015-06-13T08:34:17Z</time>
      </trkpt>
      <trkpt lat="49.40679" lon="1.43979">
        <ele>190.79998779297</ele>
        <time>2015-06-13T08:34:22Z</time>
      </trkpt>
      <trkpt lat="49.40654" lon="1.43942">
        <ele>191.40002441406</ele>
        <time>2015-06-13T08:34:28Z</time>
      </trkpt>
      <trkpt lat="49.40626" lon="1.43856">
        <ele>190</ele>
        <time>2015-06-13T08:34:43Z</time>
      </trkpt>
      <trkpt lat="49.40598" lon="1.4381">
        <ele>189.20001220703</ele>
        <time>2015-06-13T08:34:51Z</time>
      </trkpt>
      <trkpt lat="49.40593" lon="1.43805">
        <ele>189.20001220703</ele>
        <time>2015-06-13T08:34:52Z</time>
      </trkpt>
      <trkpt lat="49.40553" lon="1.43755">
        <ele>188.20001220703</ele>
        <time>2015-06-13T08:35:04Z</time>
      </trkpt>
      <trkpt lat="49.40511" lon="1.43693">
        <ele>186.20001220703</ele>
        <time>2015-06-13T08:35:19Z</time>
      </trkpt>
      <trkpt lat="49.40503" lon="1.43684">
        <ele>185.59997558594</ele>
        <time>2015-06-13T08:35:21Z</time>
      </trkpt>
      <trkpt lat="49.40457" lon="1.43638">
        <ele>184</ele>
        <time>2015-06-13T08:35:31Z</time>
      </trkpt>
      <trkpt lat="49.40435" lon="1.43624">
        <ele>183.40002441406</ele>
        <time>2015-06-13T08:35:35Z</time>
      </trkpt>
      <trkpt lat="49.4043" lon="1.43621">
        <ele>183.59997558594</ele>
        <time>2015-06-13T08:35:36Z</time>
      </trkpt>
      <trkpt lat="49.40383" lon="1.43583">
        <ele>181.79998779297</ele>
        <time>2015-06-13T08:35:45Z</time>
      </trkpt>
      <trkpt lat="49.40342" lon="1.43533">
        <ele>180.40002441406</ele>
        <time>2015-06-13T08:35:53Z</time>
      </trkpt>
      <trkpt lat="49.40322" lon="1.43506">
        <ele>179.20001220703</ele>
        <time>2015-06-13T08:35:57Z</time>
      </trkpt>
      <trkpt lat="49.4028" lon="1.43468">
        <ele>177.40002441406</ele>
        <time>2015-06-13T08:36:04Z</time>
      </trkpt>
      <trkpt lat="49.40237" lon="1.4342">
        <ele>175.79998779297</ele>
        <time>2015-06-13T08:36:12Z</time>
      </trkpt>
      <trkpt lat="49.4021" lon="1.4339">
        <ele>173.79998779297</ele>
        <time>2015-06-13T08:36:20Z</time>
      </trkpt>
      <trkpt lat="49.40209" lon="1.43388">
        <ele>173.79998779297</ele>
        <time>2015-06-13T08:36:21Z</time>
      </trkpt>
      <trkpt lat="49.40206" lon="1.43387">
        <ele>173.79998779297</ele>
        <time>2015-06-13T08:36:22Z</time>
      </trkpt>
      <trkpt lat="49.40205" lon="1.43387">
        <ele>173.79998779297</ele>
        <time>2015-06-13T08:36:23Z</time>
      </trkpt>
      <trkpt lat="49.40203" lon="1.43388">
        <ele>173.59997558594</ele>
        <time>2015-06-13T08:36:30Z</time>
      </trkpt>
      <trkpt lat="49.40205" lon="1.4339">
        <ele>173.79998779297</ele>
        <time>2015-06-13T08:36:31Z</time>
      </trkpt>
      <trkpt lat="49.40207" lon="1.43391">
        <ele>173.79998779297</ele>
        <time>2015-06-13T08:36:32Z</time>
      </trkpt>
      <trkpt lat="49.40208" lon="1.43393">
        <ele>174</ele>
        <time>2015-06-13T08:36:33Z</time>
      </trkpt>
      <trkpt lat="49.40211" lon="1.43395">
        <ele>174.40002441406</ele>
        <time>2015-06-13T08:36:34Z</time>
      </trkpt>
      <trkpt lat="49.40213" lon="1.43397">
        <ele>174.59997558594</ele>
        <time>2015-06-13T08:36:35Z</time>
      </trkpt>
      <trkpt lat="49.40215" lon="1.43398">
        <ele>174.59997558594</ele>
        <time>2015-06-13T08:36:36Z</time>
      </trkpt>
      <trkpt lat="49.40221" lon="1.43409">
        <ele>174.20001220703</ele>
        <time>2015-06-13T08:36:40Z</time>
      </trkpt>
      <trkpt lat="49.40221" lon="1.43412">
        <ele>174.20001220703</ele>
        <time>2015-06-13T08:36:41Z</time>
      </trkpt>
      <trkpt lat="49.4022" lon="1.43415">
        <ele>174.59997558594</ele>
        <time>2015-06-13T08:36:42Z</time>
      </trkpt>
      <trkpt lat="49.40218" lon="1.43418">
        <ele>174.79998779297</ele>
        <time>2015-06-13T08:36:43Z</time>
      </trkpt>
      <trkpt lat="49.40216" lon="1.43421">
        <ele>175</ele>
        <time>2015-06-13T08:36:44Z</time>
      </trkpt>
      <trkpt lat="49.40214" lon="1.43425">
        <ele>175</ele>
        <time>2015-06-13T08:36:45Z</time>
      </trkpt>
      <trkpt lat="49.40185" lon="1.43465">
        <ele>175</ele>
        <time>2015-06-13T08:36:55Z</time>
      </trkpt>
      <trkpt lat="49.40177" lon="1.43475">
        <ele>174.40002441406</ele>
        <time>2015-06-13T08:36:57Z</time>
      </trkpt>
      <trkpt lat="49.40165" lon="1.43491">
        <ele>173.79998779297</ele>
        <time>2015-06-13T08:37:00Z</time>
      </trkpt>
      <trkpt lat="49.40155" lon="1.43503">
        <ele>173.59997558594</ele>
        <time>2015-06-13T08:37:02Z</time>
      </trkpt>
      <trkpt lat="49.4015" lon="1.4351">
        <ele>173</ele>
        <time>2015-06-13T08:37:03Z</time>
      </trkpt>
      <trkpt lat="49.40146" lon="1.43519">
        <ele>172.59997558594</ele>
        <time>2015-06-13T08:37:04Z</time>
      </trkpt>
      <trkpt lat="49.40141" lon="1.43527">
        <ele>172</ele>
        <time>2015-06-13T08:37:05Z</time>
      </trkpt>
      <trkpt lat="49.40137" lon="1.43532">
        <ele>171.59997558594</ele>
        <time>2015-06-13T08:37:06Z</time>
      </trkpt>
      <trkpt lat="49.40133" lon="1.43537">
        <ele>170.79998779297</ele>
        <time>2015-06-13T08:37:07Z</time>
      </trkpt>
      <trkpt lat="49.40129" lon="1.43543">
        <ele>170</ele>
        <time>2015-06-13T08:37:08Z</time>
      </trkpt>
      <trkpt lat="49.40126" lon="1.43549">
        <ele>169.59997558594</ele>
        <time>2015-06-13T08:37:09Z</time>
      </trkpt>
      <trkpt lat="49.40123" lon="1.43555">
        <ele>169.40002441406</ele>
        <time>2015-06-13T08:37:10Z</time>
      </trkpt>
      <trkpt lat="49.40121" lon="1.43561">
        <ele>169.59997558594</ele>
        <time>2015-06-13T08:37:11Z</time>
      </trkpt>
      <trkpt lat="49.40119" lon="1.43566">
        <ele>169.59997558594</ele>
        <time>2015-06-13T08:37:12Z</time>
      </trkpt>
      <trkpt lat="49.40077" lon="1.4361">
        <ele>171.40002441406</ele>
        <time>2015-06-13T08:37:27Z</time>
      </trkpt>
      <trkpt lat="49.40049" lon="1.43632">
        <ele>172.40002441406</ele>
        <time>2015-06-13T08:37:35Z</time>
      </trkpt>
      <trkpt lat="49.40001" lon="1.43661">
        <ele>172.59997558594</ele>
        <time>2015-06-13T08:37:48Z</time>
      </trkpt>
      <trkpt lat="49.39949" lon="1.43681">
        <ele>173.59997558594</ele>
        <time>2015-06-13T08:38:01Z</time>
      </trkpt>
      <trkpt lat="49.39893" lon="1.43708">
        <ele>172.40002441406</ele>
        <time>2015-06-13T08:38:15Z</time>
      </trkpt>
      <trkpt lat="49.3984" lon="1.43739">
        <ele>172.79998779297</ele>
        <time>2015-06-13T08:38:29Z</time>
      </trkpt>
      <trkpt lat="49.39799" lon="1.43765">
        <ele>172.59997558594</ele>
        <time>2015-06-13T08:38:42Z</time>
      </trkpt>
      <trkpt lat="49.39796" lon="1.43766">
        <ele>172.59997558594</ele>
        <time>2015-06-13T08:38:43Z</time>
      </trkpt>
      <trkpt lat="49.39797" lon="1.43767">
        <ele>172.59997558594</ele>
        <time>2015-06-13T08:38:44Z</time>
      </trkpt>
      <trkpt lat="49.39798" lon="1.43767">
        <ele>172.59997558594</ele>
        <time>2015-06-13T08:38:45Z</time>
      </trkpt>
      <trkpt lat="49.398" lon="1.43768">
        <ele>172.59997558594</ele>
        <time>2015-06-13T08:38:46Z</time>
      </trkpt>
      <trkpt lat="49.39802" lon="1.43769">
        <ele>172.59997558594</ele>
        <time>2015-06-13T08:38:47Z</time>
      </trkpt>
      <trkpt lat="49.39804" lon="1.43771">
        <ele>172.79998779297</ele>
        <time>2015-06-13T08:38:48Z</time>
      </trkpt>
      <trkpt lat="49.39805" lon="1.43775">
        <ele>173</ele>
        <time>2015-06-13T08:38:49Z</time>
      </trkpt>
      <trkpt lat="49.39807" lon="1.4378">
        <ele>173</ele>
        <time>2015-06-13T08:38:50Z</time>
      </trkpt>
      <trkpt lat="49.39808" lon="1.43785">
        <ele>173.20001220703</ele>
        <time>2015-06-13T08:38:51Z</time>
      </trkpt>
      <trkpt lat="49.39818" lon="1.43857">
        <ele>175.79998779297</ele>
        <time>2015-06-13T08:39:06Z</time>
      </trkpt>
      <trkpt lat="49.39823" lon="1.43936">
        <ele>178.20001220703</ele>
        <time>2015-06-13T08:39:24Z</time>
      </trkpt>
      <trkpt lat="49.39825" lon="1.44015">
        <ele>180.59997558594</ele>
        <time>2015-06-13T08:39:42Z</time>
      </trkpt>
      <trkpt lat="49.39834" lon="1.44028">
        <ele>181.20001220703</ele>
        <time>2015-06-13T08:39:46Z</time>
      </trkpt>
      <trkpt lat="49.39837" lon="1.44029">
        <ele>181</ele>
        <time>2015-06-13T08:39:47Z</time>
      </trkpt>
      <trkpt lat="49.39872" lon="1.44077">
        <ele>182.40002441406</ele>
        <time>2015-06-13T08:40:05Z</time>
      </trkpt>
      <trkpt lat="49.39911" lon="1.44115">
        <ele>184.20001220703</ele>
        <time>2015-06-13T08:40:22Z</time>
      </trkpt>
      <trkpt lat="49.39914" lon="1.44124">
        <ele>184.40002441406</ele>
        <time>2015-06-13T08:40:25Z</time>
      </trkpt>
      <trkpt lat="49.39916" lon="1.44127">
        <ele>184.59997558594</ele>
        <time>2015-06-13T08:40:26Z</time>
      </trkpt>
      <trkpt lat="49.39918" lon="1.44128">
        <ele>184.59997558594</ele>
        <time>2015-06-13T08:40:27Z</time>
      </trkpt>
      <trkpt lat="49.3992" lon="1.44129">
        <ele>184.59997558594</ele>
        <time>2015-06-13T08:40:28Z</time>
      </trkpt>
      <trkpt lat="49.39922" lon="1.4413">
        <ele>184.59997558594</ele>
        <time>2015-06-13T08:40:29Z</time>
      </trkpt>
      <trkpt lat="49.39925" lon="1.4413">
        <ele>184.79998779297</ele>
        <time>2015-06-13T08:40:30Z</time>
      </trkpt>
      <trkpt lat="49.39941" lon="1.44145">
        <ele>185</ele>
        <time>2015-06-13T08:40:38Z</time>
      </trkpt>
      <trkpt lat="49.39941" lon="1.44148">
        <ele>185</ele>
        <time>2015-06-13T08:40:39Z</time>
      </trkpt>
      <trkpt lat="49.39939" lon="1.44151">
        <ele>185</ele>
        <time>2015-06-13T08:40:40Z</time>
      </trkpt>
      <trkpt lat="49.39937" lon="1.44154">
        <ele>185.20001220703</ele>
        <time>2015-06-13T08:40:41Z</time>
      </trkpt>
      <trkpt lat="49.39935" lon="1.44157">
        <ele>185.20001220703</ele>
        <time>2015-06-13T08:40:42Z</time>
      </trkpt>
      <trkpt lat="49.39933" lon="1.4416">
        <ele>185.20001220703</ele>
        <time>2015-06-13T08:40:43Z</time>
      </trkpt>
      <trkpt lat="49.39931" lon="1.44162">
        <ele>185.20001220703</ele>
        <time>2015-06-13T08:40:44Z</time>
      </trkpt>
      <trkpt lat="49.39901" lon="1.44221">
        <ele>185.79998779297</ele>
        <time>2015-06-13T08:40:58Z</time>
      </trkpt>
      <trkpt lat="49.39888" lon="1.44236">
        <ele>186.20001220703</ele>
        <time>2015-06-13T08:41:02Z</time>
      </trkpt>
      <trkpt lat="49.39879" lon="1.44241">
        <ele>186.20001220703</ele>
        <time>2015-06-13T08:41:04Z</time>
      </trkpt>
      <trkpt lat="49.39875" lon="1.44243">
        <ele>186.40002441406</ele>
        <time>2015-06-13T08:41:05Z</time>
      </trkpt>
      <trkpt lat="49.39835" lon="1.44247">
        <ele>186</ele>
        <time>2015-06-13T08:41:13Z</time>
      </trkpt>
      <trkpt lat="49.39823" lon="1.44246">
        <ele>185.40002441406</ele>
        <time>2015-06-13T08:41:15Z</time>
      </trkpt>
      <trkpt lat="49.39771" lon="1.4425">
        <ele>183.79998779297</ele>
        <time>2015-06-13T08:41:24Z</time>
      </trkpt>
      <trkpt lat="49.39765" lon="1.44253">
        <ele>183.59997558594</ele>
        <time>2015-06-13T08:41:25Z</time>
      </trkpt>
      <trkpt lat="49.39759" lon="1.44256">
        <ele>183.59997558594</ele>
        <time>2015-06-13T08:41:26Z</time>
      </trkpt>
      <trkpt lat="49.39753" lon="1.44261">
        <ele>183.40002441406</ele>
        <time>2015-06-13T08:41:27Z</time>
      </trkpt>
      <trkpt lat="49.39748" lon="1.44267">
        <ele>182.59997558594</ele>
        <time>2015-06-13T08:41:28Z</time>
      </trkpt>
      <trkpt lat="49.39743" lon="1.44273">
        <ele>181.79998779297</ele>
        <time>2015-06-13T08:41:29Z</time>
      </trkpt>
      <trkpt lat="49.39739" lon="1.4428">
        <ele>182</ele>
        <time>2015-06-13T08:41:30Z</time>
      </trkpt>
      <trkpt lat="49.39736" lon="1.44288">
        <ele>182.20001220703</ele>
        <time>2015-06-13T08:41:31Z</time>
      </trkpt>
      <trkpt lat="49.39733" lon="1.44295">
        <ele>182.40002441406</ele>
        <time>2015-06-13T08:41:32Z</time>
      </trkpt>
      <trkpt lat="49.39729" lon="1.44302">
        <ele>182.40002441406</ele>
        <time>2015-06-13T08:41:33Z</time>
      </trkpt>
      <trkpt lat="49.39705" lon="1.44371">
        <ele>182.20001220703</ele>
        <time>2015-06-13T08:41:42Z</time>
      </trkpt>
      <trkpt lat="49.39675" lon="1.44432">
        <ele>180.40002441406</ele>
        <time>2015-06-13T08:41:50Z</time>
      </trkpt>
      <trkpt lat="49.39653" lon="1.44472">
        <ele>180.40002441406</ele>
        <time>2015-06-13T08:41:56Z</time>
      </trkpt>
      <trkpt lat="49.3965" lon="1.44477">
        <ele>180.59997558594</ele>
        <time>2015-06-13T08:41:57Z</time>
      </trkpt>
      <trkpt lat="49.39638" lon="1.44495">
        <ele>181.20001220703</ele>
        <time>2015-06-13T08:42:17Z</time>
      </trkpt>
      <trkpt lat="49.39637" lon="1.44498">
        <ele>181</ele>
        <time>2015-06-13T08:42:18Z</time>
      </trkpt>
      <trkpt lat="49.39613" lon="1.44525">
        <ele>182</ele>
        <time>2015-06-13T08:42:26Z</time>
      </trkpt>
      <trkpt lat="49.39572" lon="1.44558">
        <ele>182.59997558594</ele>
        <time>2015-06-13T08:42:36Z</time>
      </trkpt>
      <trkpt lat="49.39552" lon="1.44573">
        <ele>182.59997558594</ele>
        <time>2015-06-13T08:42:41Z</time>
      </trkpt>
      <trkpt lat="49.39505" lon="1.4461">
        <ele>182.20001220703</ele>
        <time>2015-06-13T08:42:50Z</time>
      </trkpt>
      <trkpt lat="49.39492" lon="1.44617">
        <ele>182</ele>
        <time>2015-06-13T08:42:52Z</time>
      </trkpt>
      <trkpt lat="49.39448" lon="1.4463">
        <ele>180.59997558594</ele>
        <time>2015-06-13T08:42:58Z</time>
      </trkpt>
      <trkpt lat="49.39415" lon="1.44634">
        <ele>180.20001220703</ele>
        <time>2015-06-13T08:43:02Z</time>
      </trkpt>
      <trkpt lat="49.39372" lon="1.44623">
        <ele>176.79998779297</ele>
        <time>2015-06-13T08:43:09Z</time>
      </trkpt>
      <trkpt lat="49.39319" lon="1.44595">
        <ele>173.20001220703</ele>
        <time>2015-06-13T08:43:14Z</time>
      </trkpt>
      <trkpt lat="49.39302" lon="1.44578">
        <ele>172.59997558594</ele>
        <time>2015-06-13T08:43:16Z</time>
      </trkpt>
      <trkpt lat="49.39251" lon="1.44534">
        <ele>169.40002441406</ele>
        <time>2015-06-13T08:43:23Z</time>
      </trkpt>
      <trkpt lat="49.39214" lon="1.44507">
        <ele>167.20001220703</ele>
        <time>2015-06-13T08:43:28Z</time>
      </trkpt>
      <trkpt lat="49.39188" lon="1.44486">
        <ele>166</ele>
        <time>2015-06-13T08:43:32Z</time>
      </trkpt>
      <trkpt lat="49.39146" lon="1.44434">
        <ele>164.59997558594</ele>
        <time>2015-06-13T08:43:39Z</time>
      </trkpt>
      <trkpt lat="49.39102" lon="1.44388">
        <ele>163</ele>
        <time>2015-06-13T08:43:46Z</time>
      </trkpt>
      <trkpt lat="49.39071" lon="1.44354">
        <ele>161.59997558594</ele>
        <time>2015-06-13T08:43:51Z</time>
      </trkpt>
      <trkpt lat="49.3906" lon="1.44336">
        <ele>160.40002441406</ele>
        <time>2015-06-13T08:44:08Z</time>
      </trkpt>
      <trkpt lat="49.3906" lon="1.44335">
        <ele>160.40002441406</ele>
        <time>2015-06-13T08:44:09Z</time>
      </trkpt>
      <trkpt lat="49.3906" lon="1.44342">
        <ele>160.40002441406</ele>
        <time>2015-06-13T08:44:25Z</time>
      </trkpt>
      <trkpt lat="49.39065" lon="1.44346">
        <ele>161.20001220703</ele>
        <time>2015-06-13T08:44:30Z</time>
      </trkpt>
      <trkpt lat="49.39068" lon="1.44347">
        <ele>160.79998779297</ele>
        <time>2015-06-13T08:44:40Z</time>
      </trkpt>
      <trkpt lat="49.39067" lon="1.44346">
        <ele>160.79998779297</ele>
        <time>2015-06-13T08:44:42Z</time>
      </trkpt>
      <trkpt lat="49.39066" lon="1.44349">
        <ele>160.79998779297</ele>
        <time>2015-06-13T08:44:52Z</time>
      </trkpt>
      <trkpt lat="49.39069" lon="1.44347">
        <ele>161</ele>
        <time>2015-06-13T08:44:56Z</time>
      </trkpt>
      <trkpt lat="49.39071" lon="1.44348">
        <ele>161</ele>
        <time>2015-06-13T08:44:57Z</time>
      </trkpt>
      <trkpt lat="49.39071" lon="1.44349">
        <ele>161.20001220703</ele>
        <time>2015-06-13T08:44:58Z</time>
      </trkpt>
      <trkpt lat="49.39072" lon="1.44351">
        <ele>161.20001220703</ele>
        <time>2015-06-13T08:44:59Z</time>
      </trkpt>
      <trkpt lat="49.39074" lon="1.44354">
        <ele>161.40002441406</ele>
        <time>2015-06-13T08:45:00Z</time>
      </trkpt>
      <trkpt lat="49.39077" lon="1.44357">
        <ele>161.79998779297</ele>
        <time>2015-06-13T08:45:01Z</time>
      </trkpt>
      <trkpt lat="49.3908" lon="1.44361">
        <ele>162.20001220703</ele>
        <time>2015-06-13T08:45:02Z</time>
      </trkpt>
      <trkpt lat="49.39083" lon="1.44364">
        <ele>162</ele>
        <time>2015-06-13T08:45:03Z</time>
      </trkpt>
      <trkpt lat="49.39086" lon="1.44367">
        <ele>161.59997558594</ele>
        <time>2015-06-13T08:45:04Z</time>
      </trkpt>
      <trkpt lat="49.39129" lon="1.44408">
        <ele>163</ele>
        <time>2015-06-13T08:45:18Z</time>
      </trkpt>
      <trkpt lat="49.39141" lon="1.44422">
        <ele>163.20001220703</ele>
        <time>2015-06-13T08:45:37Z</time>
      </trkpt>
      <trkpt lat="49.39141" lon="1.4442">
        <ele>163</ele>
        <time>2015-06-13T08:45:38Z</time>
      </trkpt>
      <trkpt lat="49.39096" lon="1.44376">
        <ele>161</ele>
        <time>2015-06-13T08:45:54Z</time>
      </trkpt>
      <trkpt lat="49.39069" lon="1.44342">
        <ele>161</ele>
        <time>2015-06-13T08:46:49Z</time>
      </trkpt>
      <trkpt lat="49.39065" lon="1.44342">
        <ele>160.79998779297</ele>
        <time>2015-06-13T08:46:59Z</time>
      </trkpt>
      <trkpt lat="49.39062" lon="1.44348">
        <ele>160.20001220703</ele>
        <time>2015-06-13T08:47:42Z</time>
      </trkpt>
      <trkpt lat="49.39056" lon="1.44345">
        <ele>160.20001220703</ele>
        <time>2015-06-13T08:48:00Z</time>
      </trkpt>
      <trkpt lat="49.39056" lon="1.44344">
        <ele>160.20001220703</ele>
        <time>2015-06-13T08:48:02Z</time>
      </trkpt>
      <trkpt lat="49.39064" lon="1.44349">
        <ele>160.40002441406</ele>
        <time>2015-06-13T08:48:41Z</time>
      </trkpt>
      <trkpt lat="49.39063" lon="1.44351">
        <ele>160.59997558594</ele>
        <time>2015-06-13T08:48:43Z</time>
      </trkpt>
      <trkpt lat="49.39067" lon="1.44349">
        <ele>160.59997558594</ele>
        <time>2015-06-13T08:49:10Z</time>
      </trkpt>
      <trkpt lat="49.39068" lon="1.44349">
        <ele>160.59997558594</ele>
        <time>2015-06-13T08:49:11Z</time>
      </trkpt>
      <trkpt lat="49.3907" lon="1.44349">
        <ele>160.59997558594</ele>
        <time>2015-06-13T08:49:14Z</time>
      </trkpt>
      <trkpt lat="49.39071" lon="1.4435">
        <ele>160.59997558594</ele>
        <time>2015-06-13T08:49:15Z</time>
      </trkpt>
      <trkpt lat="49.39072" lon="1.44348">
        <ele>160.59997558594</ele>
        <time>2015-06-13T08:49:20Z</time>
      </trkpt>
      <trkpt lat="49.39074" lon="1.44345">
        <ele>160.79998779297</ele>
        <time>2015-06-13T08:49:22Z</time>
      </trkpt>
      <trkpt lat="49.39074" lon="1.44347">
        <ele>160.40002441406</ele>
        <time>2015-06-13T08:49:25Z</time>
      </trkpt>
      <trkpt lat="49.39068" lon="1.44351">
        <ele>161.40002441406</ele>
        <time>2015-06-13T08:49:42Z</time>
      </trkpt>
      <trkpt lat="49.39068" lon="1.44349">
        <ele>161.40002441406</ele>
        <time>2015-06-13T08:49:49Z</time>
      </trkpt>
      <trkpt lat="49.39069" lon="1.4435">
        <ele>161.40002441406</ele>
        <time>2015-06-13T08:49:50Z</time>
      </trkpt>
      <trkpt lat="49.39069" lon="1.44349">
        <ele>161.59997558594</ele>
        <time>2015-06-13T08:49:55Z</time>
      </trkpt>
      <trkpt lat="49.39068" lon="1.44349">
        <ele>161.59997558594</ele>
        <time>2015-06-13T08:49:56Z</time>
      </trkpt>
      <trkpt lat="49.39067" lon="1.44345">
        <ele>161.59997558594</ele>
        <time>2015-06-13T08:50:03Z</time>
      </trkpt>
      <trkpt lat="49.39069" lon="1.44346">
        <ele>161.59997558594</ele>
        <time>2015-06-13T08:50:09Z</time>
      </trkpt>
      <trkpt lat="49.39071" lon="1.44347">
        <ele>161.40002441406</ele>
        <time>2015-06-13T08:50:11Z</time>
      </trkpt>
      <trkpt lat="49.39072" lon="1.44346">
        <ele>161.40002441406</ele>
        <time>2015-06-13T08:50:12Z</time>
      </trkpt>
      <trkpt lat="49.39064" lon="1.44347">
        <ele>160.59997558594</ele>
        <time>2015-06-13T08:50:50Z</time>
      </trkpt>
      <trkpt lat="49.39064" lon="1.44349">
        <ele>160.59997558594</ele>
        <time>2015-06-13T08:50:55Z</time>
      </trkpt>
      <trkpt lat="49.39065" lon="1.44348">
        <ele>160.59997558594</ele>
        <time>2015-06-13T08:51:09Z</time>
      </trkpt>
      <trkpt lat="49.39066" lon="1.44354">
        <ele>161.40002441406</ele>
        <time>2015-06-13T08:52:07Z</time>
      </trkpt>
      <trkpt lat="49.39063" lon="1.44352">
        <ele>160.20001220703</ele>
        <time>2015-06-13T08:52:16Z</time>
      </trkpt>
      <trkpt lat="49.39064" lon="1.4435">
        <ele>160.20001220703</ele>
        <time>2015-06-13T08:52:26Z</time>
      </trkpt>
      <trkpt lat="49.39065" lon="1.4435">
        <ele>160.59997558594</ele>
        <time>2015-06-13T08:52:40Z</time>
      </trkpt>
      <trkpt lat="49.39063" lon="1.44352">
        <ele>160.40002441406</ele>
        <time>2015-06-13T08:52:53Z</time>
      </trkpt>
      <trkpt lat="49.39062" lon="1.44351">
        <ele>160.40002441406</ele>
        <time>2015-06-13T08:52:54Z</time>
      </trkpt>
      <trkpt lat="49.39062" lon="1.44356">
        <ele>160.59997558594</ele>
        <time>2015-06-13T08:53:12Z</time>
      </trkpt>
      <trkpt lat="49.39065" lon="1.44361">
        <ele>160.20001220703</ele>
        <time>2015-06-13T08:53:13Z</time>
      </trkpt>
      <trkpt lat="49.39071" lon="1.44385">
        <ele>156.40002441406</ele>
        <time>2015-06-13T08:53:17Z</time>
      </trkpt>
      <trkpt lat="49.39083" lon="1.44432">
        <ele>152.59997558594</ele>
        <time>2015-06-13T08:53:22Z</time>
      </trkpt>
      <trkpt lat="49.39098" lon="1.44476">
        <ele>149.59997558594</ele>
        <time>2015-06-13T08:53:26Z</time>
      </trkpt>
      <trkpt lat="49.39104" lon="1.44484">
        <ele>148.79998779297</ele>
        <time>2015-06-13T08:53:27Z</time>
      </trkpt>
      <trkpt lat="49.39124" lon="1.44516">
        <ele>145</ele>
        <time>2015-06-13T08:53:31Z</time>
      </trkpt>
      <trkpt lat="49.39129" lon="1.44526">
        <ele>144.79998779297</ele>
        <time>2015-06-13T08:53:32Z</time>
      </trkpt>
      <trkpt lat="49.39145" lon="1.44552">
        <ele>140.40002441406</ele>
        <time>2015-06-13T08:53:35Z</time>
      </trkpt>
      <trkpt lat="49.39161" lon="1.44581">
        <ele>136</ele>
        <time>2015-06-13T08:53:38Z</time>
      </trkpt>
      <trkpt lat="49.39173" lon="1.44618">
        <ele>132.79998779297</ele>
        <time>2015-06-13T08:53:42Z</time>
      </trkpt>
      <trkpt lat="49.39175" lon="1.44629">
        <ele>132.20001220703</ele>
        <time>2015-06-13T08:53:43Z</time>
      </trkpt>
      <trkpt lat="49.39176" lon="1.4464">
        <ele>130.79998779297</ele>
        <time>2015-06-13T08:53:44Z</time>
      </trkpt>
      <trkpt lat="49.39176" lon="1.44651">
        <ele>129.40002441406</ele>
        <time>2015-06-13T08:53:45Z</time>
      </trkpt>
      <trkpt lat="49.39178" lon="1.44663">
        <ele>128.40002441406</ele>
        <time>2015-06-13T08:53:46Z</time>
      </trkpt>
      <trkpt lat="49.39178" lon="1.44674">
        <ele>127.40002441406</ele>
        <time>2015-06-13T08:53:47Z</time>
      </trkpt>
      <trkpt lat="49.39185" lon="1.44723">
        <ele>123</ele>
        <time>2015-06-13T08:53:51Z</time>
      </trkpt>
      <trkpt lat="49.39189" lon="1.44747">
        <ele>121.59997558594</ele>
        <time>2015-06-13T08:53:53Z</time>
      </trkpt>
      <trkpt lat="49.39198" lon="1.44787">
        <ele>117.79998779297</ele>
        <time>2015-06-13T08:53:56Z</time>
      </trkpt>
      <trkpt lat="49.39208" lon="1.44834">
        <ele>114.40002441406</ele>
        <time>2015-06-13T08:54:00Z</time>
      </trkpt>
      <trkpt lat="49.3921" lon="1.44846">
        <ele>113.59997558594</ele>
        <time>2015-06-13T08:54:01Z</time>
      </trkpt>
      <trkpt lat="49.39211" lon="1.44858">
        <ele>112.20001220703</ele>
        <time>2015-06-13T08:54:02Z</time>
      </trkpt>
      <trkpt lat="49.39217" lon="1.44892">
        <ele>110.40002441406</ele>
        <time>2015-06-13T08:54:05Z</time>
      </trkpt>
      <trkpt lat="49.39219" lon="1.44902">
        <ele>109.59997558594</ele>
        <time>2015-06-13T08:54:06Z</time>
      </trkpt>
      <trkpt lat="49.39224" lon="1.4492">
        <ele>106.40002441406</ele>
        <time>2015-06-13T08:54:09Z</time>
      </trkpt>
      <trkpt lat="49.39229" lon="1.44921">
        <ele>105.59997558594</ele>
        <time>2015-06-13T08:54:11Z</time>
      </trkpt>
      <trkpt lat="49.39231" lon="1.44921">
        <ele>105</ele>
        <time>2015-06-13T08:54:12Z</time>
      </trkpt>
      <trkpt lat="49.39232" lon="1.44921">
        <ele>104.20001220703</ele>
        <time>2015-06-13T08:54:13Z</time>
      </trkpt>
      <trkpt lat="49.3922" lon="1.4491">
        <ele>103.79998779297</ele>
        <time>2015-06-13T08:54:15Z</time>
      </trkpt>
      <trkpt lat="49.39208" lon="1.44899">
        <ele>102</ele>
        <time>2015-06-13T08:54:17Z</time>
      </trkpt>
      <trkpt lat="49.39199" lon="1.44894">
        <ele>101.40002441406</ele>
        <time>2015-06-13T08:54:18Z</time>
      </trkpt>
      <trkpt lat="49.39189" lon="1.44888">
        <ele>100.79998779297</ele>
        <time>2015-06-13T08:54:19Z</time>
      </trkpt>
      <trkpt lat="49.39179" lon="1.44882">
        <ele>99.599975585938</ele>
        <time>2015-06-13T08:54:20Z</time>
      </trkpt>
      <trkpt lat="49.39172" lon="1.44877">
        <ele>97.599975585938</ele>
        <time>2015-06-13T08:54:21Z</time>
      </trkpt>
      <trkpt lat="49.39168" lon="1.44876">
        <ele>96.400024414062</ele>
        <time>2015-06-13T08:54:22Z</time>
      </trkpt>
      <trkpt lat="49.39155" lon="1.44871">
        <ele>94.400024414062</ele>
        <time>2015-06-13T08:54:28Z</time>
      </trkpt>
      <trkpt lat="49.39153" lon="1.44869">
        <ele>94.200012207031</ele>
        <time>2015-06-13T08:54:38Z</time>
      </trkpt>
      <trkpt lat="49.39151" lon="1.44869">
        <ele>94</ele>
        <time>2015-06-13T08:55:06Z</time>
      </trkpt>
      <trkpt lat="49.39152" lon="1.44869">
        <ele>94.200012207031</ele>
        <time>2015-06-13T08:55:30Z</time>
      </trkpt>
      <trkpt lat="49.3915" lon="1.44868">
        <ele>94.200012207031</ele>
        <time>2015-06-13T08:55:34Z</time>
      </trkpt>
      <trkpt lat="49.39148" lon="1.44868">
        <ele>94.200012207031</ele>
        <time>2015-06-13T08:55:37Z</time>
      </trkpt>
      <trkpt lat="49.39151" lon="1.44868">
        <ele>94</ele>
        <time>2015-06-13T08:56:29Z</time>
      </trkpt>
      <trkpt lat="49.3915" lon="1.44868">
        <ele>95</ele>
        <time>2015-06-13T08:56:43Z</time>
      </trkpt>
      <trkpt lat="49.39148" lon="1.44871">
        <ele>94.200012207031</ele>
        <time>2015-06-13T08:56:56Z</time>
      </trkpt>
      <trkpt lat="49.39147" lon="1.44874">
        <ele>94.200012207031</ele>
        <time>2015-06-13T08:56:57Z</time>
      </trkpt>
      <trkpt lat="49.39146" lon="1.44877">
        <ele>94.200012207031</ele>
        <time>2015-06-13T08:56:58Z</time>
      </trkpt>
      <trkpt lat="49.39143" lon="1.44881">
        <ele>94</ele>
        <time>2015-06-13T08:56:59Z</time>
      </trkpt>
      <trkpt lat="49.3914" lon="1.44886">
        <ele>93.799987792969</ele>
        <time>2015-06-13T08:57:00Z</time>
      </trkpt>
      <trkpt lat="49.39137" lon="1.44892">
        <ele>93.599975585938</ele>
        <time>2015-06-13T08:57:01Z</time>
      </trkpt>
      <trkpt lat="49.39133" lon="1.44898">
        <ele>93.599975585938</ele>
        <time>2015-06-13T08:57:02Z</time>
      </trkpt>
      <trkpt lat="49.39129" lon="1.44904">
        <ele>93.400024414062</ele>
        <time>2015-06-13T08:57:03Z</time>
      </trkpt>
      <trkpt lat="49.39124" lon="1.4491">
        <ele>93.200012207031</ele>
        <time>2015-06-13T08:57:04Z</time>
      </trkpt>
      <trkpt lat="49.3912" lon="1.44916">
        <ele>93.200012207031</ele>
        <time>2015-06-13T08:57:05Z</time>
      </trkpt>
      <trkpt lat="49.39115" lon="1.44923">
        <ele>92.799987792969</ele>
        <time>2015-06-13T08:57:06Z</time>
      </trkpt>
      <trkpt lat="49.3908" lon="1.44976">
        <ele>91</ele>
        <time>2015-06-13T08:57:14Z</time>
      </trkpt>
      <trkpt lat="49.39056" lon="1.4502">
        <ele>91.400024414062</ele>
        <time>2015-06-13T08:57:21Z</time>
      </trkpt>
      <trkpt lat="49.39021" lon="1.45073">
        <ele>93.799987792969</ele>
        <time>2015-06-13T08:57:34Z</time>
      </trkpt>
      <trkpt lat="49.39017" lon="1.45077">
        <ele>94</ele>
        <time>2015-06-13T08:57:36Z</time>
      </trkpt>
      <trkpt lat="49.39015" lon="1.45077">
        <ele>94.200012207031</ele>
        <time>2015-06-13T08:57:37Z</time>
      </trkpt>
      <trkpt lat="49.39013" lon="1.45075">
        <ele>94.799987792969</ele>
        <time>2015-06-13T08:57:38Z</time>
      </trkpt>
      <trkpt lat="49.38992" lon="1.45055">
        <ele>97.400024414062</ele>
        <time>2015-06-13T08:57:47Z</time>
      </trkpt>
      <trkpt lat="49.38991" lon="1.45058">
        <ele>97.400024414062</ele>
        <time>2015-06-13T08:57:48Z</time>
      </trkpt>
      <trkpt lat="49.38991" lon="1.45062">
        <ele>97.400024414062</ele>
        <time>2015-06-13T08:57:49Z</time>
      </trkpt>
      <trkpt lat="49.38993" lon="1.45065">
        <ele>97.400024414062</ele>
        <time>2015-06-13T08:57:50Z</time>
      </trkpt>
      <trkpt lat="49.38994" lon="1.45069">
        <ele>97.200012207031</ele>
        <time>2015-06-13T08:57:51Z</time>
      </trkpt>
      <trkpt lat="49.38994" lon="1.45074">
        <ele>97.200012207031</ele>
        <time>2015-06-13T08:57:52Z</time>
      </trkpt>
      <trkpt lat="49.38994" lon="1.45078">
        <ele>97.400024414062</ele>
        <time>2015-06-13T08:57:53Z</time>
      </trkpt>
      <trkpt lat="49.38992" lon="1.45102">
        <ele>97.400024414062</ele>
        <time>2015-06-13T08:57:58Z</time>
      </trkpt>
      <trkpt lat="49.38992" lon="1.45116">
        <ele>97.200012207031</ele>
        <time>2015-06-13T08:58:00Z</time>
      </trkpt>
      <trkpt lat="49.38991" lon="1.45123">
        <ele>97.400024414062</ele>
        <time>2015-06-13T08:58:01Z</time>
      </trkpt>
      <trkpt lat="49.38989" lon="1.45127">
        <ele>97.599975585938</ele>
        <time>2015-06-13T08:58:02Z</time>
      </trkpt>
      <trkpt lat="49.38986" lon="1.45129">
        <ele>97.799987792969</ele>
        <time>2015-06-13T08:58:03Z</time>
      </trkpt>
      <trkpt lat="49.38984" lon="1.45131">
        <ele>98.200012207031</ele>
        <time>2015-06-13T08:58:04Z</time>
      </trkpt>
      <trkpt lat="49.38981" lon="1.45134">
        <ele>98.599975585938</ele>
        <time>2015-06-13T08:58:05Z</time>
      </trkpt>
      <trkpt lat="49.38979" lon="1.45136">
        <ele>99</ele>
        <time>2015-06-13T08:58:06Z</time>
      </trkpt>
      <trkpt lat="49.38951" lon="1.45177">
        <ele>102</ele>
        <time>2015-06-13T08:58:21Z</time>
      </trkpt>
      <trkpt lat="49.38929" lon="1.45215">
        <ele>105.79998779297</ele>
        <time>2015-06-13T08:58:34Z</time>
      </trkpt>
      <trkpt lat="49.38912" lon="1.45261">
        <ele>109.20001220703</ele>
        <time>2015-06-13T08:58:47Z</time>
      </trkpt>
      <trkpt lat="49.38895" lon="1.45308">
        <ele>112.40002441406</ele>
        <time>2015-06-13T08:59:01Z</time>
      </trkpt>
      <trkpt lat="49.38874" lon="1.45347">
        <ele>115.59997558594</ele>
        <time>2015-06-13T08:59:14Z</time>
      </trkpt>
      <trkpt lat="49.38863" lon="1.45387">
        <ele>118.59997558594</ele>
        <time>2015-06-13T08:59:27Z</time>
      </trkpt>
      <trkpt lat="49.38853" lon="1.45435">
        <ele>121.79998779297</ele>
        <time>2015-06-13T08:59:41Z</time>
      </trkpt>
      <trkpt lat="49.38839" lon="1.45471">
        <ele>125</ele>
        <time>2015-06-13T08:59:54Z</time>
      </trkpt>
      <trkpt lat="49.38818" lon="1.45479">
        <ele>127.20001220703</ele>
        <time>2015-06-13T09:00:04Z</time>
      </trkpt>
      <trkpt lat="49.38816" lon="1.45477">
        <ele>127.40002441406</ele>
        <time>2015-06-13T09:00:05Z</time>
      </trkpt>
      <trkpt lat="49.38815" lon="1.45474">
        <ele>127.40002441406</ele>
        <time>2015-06-13T09:00:06Z</time>
      </trkpt>
      <trkpt lat="49.38814" lon="1.45472">
        <ele>127.59997558594</ele>
        <time>2015-06-13T09:00:07Z</time>
      </trkpt>
      <trkpt lat="49.38812" lon="1.4547">
        <ele>127.79998779297</ele>
        <time>2015-06-13T09:00:08Z</time>
      </trkpt>
      <trkpt lat="49.38812" lon="1.45467">
        <ele>128.20001220703</ele>
        <time>2015-06-13T09:00:09Z</time>
      </trkpt>
      <trkpt lat="49.38812" lon="1.45463">
        <ele>128.40002441406</ele>
        <time>2015-06-13T09:00:10Z</time>
      </trkpt>
      <trkpt lat="49.38812" lon="1.45458">
        <ele>128.79998779297</ele>
        <time>2015-06-13T09:00:11Z</time>
      </trkpt>
      <trkpt lat="49.38812" lon="1.45453">
        <ele>129</ele>
        <time>2015-06-13T09:00:12Z</time>
      </trkpt>
      <trkpt lat="49.38816" lon="1.45374">
        <ele>130.59997558594</ele>
        <time>2015-06-13T09:00:26Z</time>
      </trkpt>
      <trkpt lat="49.38799" lon="1.45305">
        <ele>131.79998779297</ele>
        <time>2015-06-13T09:00:43Z</time>
      </trkpt>
      <trkpt lat="49.38786" lon="1.45265">
        <ele>134</ele>
        <time>2015-06-13T09:01:02Z</time>
      </trkpt>
      <trkpt lat="49.38783" lon="1.4526">
        <ele>134.20001220703</ele>
        <time>2015-06-13T09:01:07Z</time>
      </trkpt>
      <trkpt lat="49.38781" lon="1.45258">
        <ele>134.20001220703</ele>
        <time>2015-06-13T09:01:09Z</time>
      </trkpt>
      <trkpt lat="49.3878" lon="1.45257">
        <ele>134</ele>
        <time>2015-06-13T09:01:10Z</time>
      </trkpt>
      <trkpt lat="49.38753" lon="1.45235">
        <ele>134.20001220703</ele>
        <time>2015-06-13T09:02:02Z</time>
      </trkpt>
      <trkpt lat="49.38754" lon="1.45236">
        <ele>134</ele>
        <time>2015-06-13T09:02:03Z</time>
      </trkpt>
      <trkpt lat="49.38755" lon="1.45238">
        <ele>133.79998779297</ele>
        <time>2015-06-13T09:02:07Z</time>
      </trkpt>
      <trkpt lat="49.38756" lon="1.45239">
        <ele>133.79998779297</ele>
        <time>2015-06-13T09:02:08Z</time>
      </trkpt>
      <trkpt lat="49.38754" lon="1.45245">
        <ele>134.79998779297</ele>
        <time>2015-06-13T09:02:21Z</time>
      </trkpt>
      <trkpt lat="49.38752" lon="1.45247">
        <ele>135</ele>
        <time>2015-06-13T09:02:22Z</time>
      </trkpt>
      <trkpt lat="49.38749" lon="1.4525">
        <ele>135.20001220703</ele>
        <time>2015-06-13T09:02:23Z</time>
      </trkpt>
      <trkpt lat="49.38747" lon="1.45253">
        <ele>135.59997558594</ele>
        <time>2015-06-13T09:02:24Z</time>
      </trkpt>
      <trkpt lat="49.38746" lon="1.45258">
        <ele>135.79998779297</ele>
        <time>2015-06-13T09:02:25Z</time>
      </trkpt>
      <trkpt lat="49.38744" lon="1.45262">
        <ele>136</ele>
        <time>2015-06-13T09:02:26Z</time>
      </trkpt>
      <trkpt lat="49.38742" lon="1.45282">
        <ele>137.59997558594</ele>
        <time>2015-06-13T09:02:30Z</time>
      </trkpt>
      <trkpt lat="49.38742" lon="1.45339">
        <ele>140.59997558594</ele>
        <time>2015-06-13T09:02:43Z</time>
      </trkpt>
      <trkpt lat="49.38737" lon="1.45387">
        <ele>143.79998779297</ele>
        <time>2015-06-13T09:02:54Z</time>
      </trkpt>
      <trkpt lat="49.3872" lon="1.45441">
        <ele>147</ele>
        <time>2015-06-13T09:03:07Z</time>
      </trkpt>
      <trkpt lat="49.38709" lon="1.45484">
        <ele>150.20001220703</ele>
        <time>2015-06-13T09:03:20Z</time>
      </trkpt>
      <trkpt lat="49.38697" lon="1.45539">
        <ele>153.40002441406</ele>
        <time>2015-06-13T09:03:36Z</time>
      </trkpt>
      <trkpt lat="49.38687" lon="1.45585">
        <ele>156.40002441406</ele>
        <time>2015-06-13T09:03:49Z</time>
      </trkpt>
      <trkpt lat="49.38667" lon="1.45633">
        <ele>159.59997558594</ele>
        <time>2015-06-13T09:04:02Z</time>
      </trkpt>
      <trkpt lat="49.38643" lon="1.45677">
        <ele>162.79998779297</ele>
        <time>2015-06-13T09:04:15Z</time>
      </trkpt>
      <trkpt lat="49.38624" lon="1.45722">
        <ele>165.79998779297</ele>
        <time>2015-06-13T09:04:26Z</time>
      </trkpt>
      <trkpt lat="49.38612" lon="1.45769">
        <ele>169</ele>
        <time>2015-06-13T09:04:37Z</time>
      </trkpt>
      <trkpt lat="49.38609" lon="1.45819">
        <ele>170.79998779297</ele>
        <time>2015-06-13T09:04:47Z</time>
      </trkpt>
      <trkpt lat="49.38609" lon="1.45824">
        <ele>171</ele>
        <time>2015-06-13T09:04:48Z</time>
      </trkpt>
      <trkpt lat="49.38614" lon="1.45879">
        <ele>174</ele>
        <time>2015-06-13T09:05:02Z</time>
      </trkpt>
      <trkpt lat="49.38643" lon="1.45954">
        <ele>177.20001220703</ele>
        <time>2015-06-13T09:05:21Z</time>
      </trkpt>
      <trkpt lat="49.38652" lon="1.45998">
        <ele>180.20001220703</ele>
        <time>2015-06-13T09:05:32Z</time>
      </trkpt>
      <trkpt lat="49.38669" lon="1.4606">
        <ele>183.20001220703</ele>
        <time>2015-06-13T09:05:49Z</time>
      </trkpt>
      <trkpt lat="49.38668" lon="1.46095">
        <ele>184.20001220703</ele>
        <time>2015-06-13T09:06:00Z</time>
      </trkpt>
      <trkpt lat="49.38669" lon="1.46097">
        <ele>184.20001220703</ele>
        <time>2015-06-13T09:06:01Z</time>
      </trkpt>
      <trkpt lat="49.3867" lon="1.46096">
        <ele>184.20001220703</ele>
        <time>2015-06-13T09:06:02Z</time>
      </trkpt>
      <trkpt lat="49.38671" lon="1.46095">
        <ele>184.20001220703</ele>
        <time>2015-06-13T09:06:03Z</time>
      </trkpt>
      <trkpt lat="49.38672" lon="1.46094">
        <ele>184.20001220703</ele>
        <time>2015-06-13T09:06:04Z</time>
      </trkpt>
      <trkpt lat="49.38672" lon="1.46092">
        <ele>184.20001220703</ele>
        <time>2015-06-13T09:06:05Z</time>
      </trkpt>
      <trkpt lat="49.38673" lon="1.46089">
        <ele>184.20001220703</ele>
        <time>2015-06-13T09:06:06Z</time>
      </trkpt>
      <trkpt lat="49.38673" lon="1.46087">
        <ele>184.40002441406</ele>
        <time>2015-06-13T09:06:07Z</time>
      </trkpt>
      <trkpt lat="49.38673" lon="1.46085">
        <ele>184.40002441406</ele>
        <time>2015-06-13T09:06:08Z</time>
      </trkpt>
      <trkpt lat="49.38673" lon="1.46082">
        <ele>184.20001220703</ele>
        <time>2015-06-13T09:06:09Z</time>
      </trkpt>
      <trkpt lat="49.38672" lon="1.46081">
        <ele>184</ele>
        <time>2015-06-13T09:06:10Z</time>
      </trkpt>
      <trkpt lat="49.38675" lon="1.4608">
        <ele>183.79998779297</ele>
        <time>2015-06-13T09:06:11Z</time>
      </trkpt>
      <trkpt lat="49.38676" lon="1.46079">
        <ele>183.59997558594</ele>
        <time>2015-06-13T09:06:12Z</time>
      </trkpt>
      <trkpt lat="49.38663" lon="1.46007">
        <ele>180.59997558594</ele>
        <time>2015-06-13T09:06:27Z</time>
      </trkpt>
      <trkpt lat="49.38653" lon="1.45966">
        <ele>178</ele>
        <time>2015-06-13T09:06:32Z</time>
      </trkpt>
      <trkpt lat="49.38641" lon="1.45924">
        <ele>174.59997558594</ele>
        <time>2015-06-13T09:06:38Z</time>
      </trkpt>
      <trkpt lat="49.3863" lon="1.45904">
        <ele>173.20001220703</ele>
        <time>2015-06-13T09:06:46Z</time>
      </trkpt>
      <trkpt lat="49.3863" lon="1.45906">
        <ele>173.40002441406</ele>
        <time>2015-06-13T09:06:47Z</time>
      </trkpt>
      <trkpt lat="49.38631" lon="1.45908">
        <ele>173.59997558594</ele>
        <time>2015-06-13T09:06:48Z</time>
      </trkpt>
      <trkpt lat="49.38632" lon="1.4591">
        <ele>173.79998779297</ele>
        <time>2015-06-13T09:06:49Z</time>
      </trkpt>
      <trkpt lat="49.38632" lon="1.45913">
        <ele>174</ele>
        <time>2015-06-13T09:06:50Z</time>
      </trkpt>
      <trkpt lat="49.38633" lon="1.45915">
        <ele>174.20001220703</ele>
        <time>2015-06-13T09:06:51Z</time>
      </trkpt>
      <trkpt lat="49.38644" lon="1.45967">
        <ele>177.40002441406</ele>
        <time>2015-06-13T09:07:13Z</time>
      </trkpt>
      <trkpt lat="49.38655" lon="1.46015">
        <ele>180.59997558594</ele>
        <time>2015-06-13T09:07:29Z</time>
      </trkpt>
      <trkpt lat="49.38676" lon="1.46088">
        <ele>183.59997558594</ele>
        <time>2015-06-13T09:07:52Z</time>
      </trkpt>
      <trkpt lat="49.38681" lon="1.46163">
        <ele>185.20001220703</ele>
        <time>2015-06-13T09:08:12Z</time>
      </trkpt>
      <trkpt lat="49.38671" lon="1.46236">
        <ele>187.59997558594</ele>
        <time>2015-06-13T09:08:30Z</time>
      </trkpt>
      <trkpt lat="49.38647" lon="1.46303">
        <ele>189.79998779297</ele>
        <time>2015-06-13T09:08:47Z</time>
      </trkpt>
      <trkpt lat="49.38627" lon="1.4637">
        <ele>192</ele>
        <time>2015-06-13T09:09:03Z</time>
      </trkpt>
      <trkpt lat="49.38604" lon="1.46437">
        <ele>193.79998779297</ele>
        <time>2015-06-13T09:09:19Z</time>
      </trkpt>
      <trkpt lat="49.3858" lon="1.46501">
        <ele>194.59997558594</ele>
        <time>2015-06-13T09:09:34Z</time>
      </trkpt>
      <trkpt lat="49.38556" lon="1.46568">
        <ele>195.20001220703</ele>
        <time>2015-06-13T09:09:48Z</time>
      </trkpt>
      <trkpt lat="49.38533" lon="1.46636">
        <ele>195</ele>
        <time>2015-06-13T09:10:01Z</time>
      </trkpt>
      <trkpt lat="49.38527" lon="1.46655">
        <ele>194.79998779297</ele>
        <time>2015-06-13T09:10:04Z</time>
      </trkpt>
      <trkpt lat="49.38521" lon="1.46682">
        <ele>194.59997558594</ele>
        <time>2015-06-13T09:10:08Z</time>
      </trkpt>
      <trkpt lat="49.38514" lon="1.46733">
        <ele>194.40002441406</ele>
        <time>2015-06-13T09:10:15Z</time>
      </trkpt>
      <trkpt lat="49.38506" lon="1.46811">
        <ele>194.20001220703</ele>
        <time>2015-06-13T09:10:24Z</time>
      </trkpt>
      <trkpt lat="49.38499" lon="1.46881">
        <ele>193</ele>
        <time>2015-06-13T09:10:36Z</time>
      </trkpt>
      <trkpt lat="49.38497" lon="1.46882">
        <ele>193</ele>
        <time>2015-06-13T09:10:41Z</time>
      </trkpt>
      <trkpt lat="49.38496" lon="1.46883">
        <ele>192.79998779297</ele>
        <time>2015-06-13T09:10:42Z</time>
      </trkpt>
      <trkpt lat="49.38495" lon="1.46885">
        <ele>192.79998779297</ele>
        <time>2015-06-13T09:10:43Z</time>
      </trkpt>
      <trkpt lat="49.38495" lon="1.46888">
        <ele>192.79998779297</ele>
        <time>2015-06-13T09:10:44Z</time>
      </trkpt>
      <trkpt lat="49.38496" lon="1.46892">
        <ele>193</ele>
        <time>2015-06-13T09:10:45Z</time>
      </trkpt>
      <trkpt lat="49.38496" lon="1.46896">
        <ele>193</ele>
        <time>2015-06-13T09:10:46Z</time>
      </trkpt>
      <trkpt lat="49.38488" lon="1.46969">
        <ele>193</ele>
        <time>2015-06-13T09:11:01Z</time>
      </trkpt>
      <trkpt lat="49.38491" lon="1.46976">
        <ele>193</ele>
        <time>2015-06-13T09:11:34Z</time>
      </trkpt>
      <trkpt lat="49.38489" lon="1.46977">
        <ele>193</ele>
        <time>2015-06-13T09:11:35Z</time>
      </trkpt>
      <trkpt lat="49.38487" lon="1.46979">
        <ele>193</ele>
        <time>2015-06-13T09:11:36Z</time>
      </trkpt>
      <trkpt lat="49.38484" lon="1.46984">
        <ele>192.79998779297</ele>
        <time>2015-06-13T09:11:37Z</time>
      </trkpt>
      <trkpt lat="49.3848" lon="1.4699">
        <ele>192.79998779297</ele>
        <time>2015-06-13T09:11:38Z</time>
      </trkpt>
      <trkpt lat="49.38476" lon="1.46996">
        <ele>192.59997558594</ele>
        <time>2015-06-13T09:11:39Z</time>
      </trkpt>
      <trkpt lat="49.38471" lon="1.47002">
        <ele>192.20001220703</ele>
        <time>2015-06-13T09:11:40Z</time>
      </trkpt>
      <trkpt lat="49.38467" lon="1.47008">
        <ele>192</ele>
        <time>2015-06-13T09:11:41Z</time>
      </trkpt>
      <trkpt lat="49.38462" lon="1.47014">
        <ele>191.59997558594</ele>
        <time>2015-06-13T09:11:42Z</time>
      </trkpt>
      <trkpt lat="49.3842" lon="1.47067">
        <ele>190</ele>
        <time>2015-06-13T09:11:50Z</time>
      </trkpt>
      <trkpt lat="49.38391" lon="1.47103">
        <ele>188.59997558594</ele>
        <time>2015-06-13T09:11:55Z</time>
      </trkpt>
      <trkpt lat="49.38378" lon="1.47115">
        <ele>187.40002441406</ele>
        <time>2015-06-13T09:11:58Z</time>
      </trkpt>
      <trkpt lat="49.38375" lon="1.47116">
        <ele>187.40002441406</ele>
        <time>2015-06-13T09:11:59Z</time>
      </trkpt>
      <trkpt lat="49.38372" lon="1.47116">
        <ele>187.20001220703</ele>
        <time>2015-06-13T09:12:00Z</time>
      </trkpt>
      <trkpt lat="49.3837" lon="1.4712">
        <ele>186.59997558594</ele>
        <time>2015-06-13T09:12:06Z</time>
      </trkpt>
      <trkpt lat="49.3837" lon="1.47118">
        <ele>186.79998779297</ele>
        <time>2015-06-13T09:12:07Z</time>
      </trkpt>
      <trkpt lat="49.38371" lon="1.47116">
        <ele>186.79998779297</ele>
        <time>2015-06-13T09:12:08Z</time>
      </trkpt>
      <trkpt lat="49.38373" lon="1.47114">
        <ele>186.59997558594</ele>
        <time>2015-06-13T09:12:09Z</time>
      </trkpt>
      <trkpt lat="49.38375" lon="1.47113">
        <ele>186.79998779297</ele>
        <time>2015-06-13T09:12:10Z</time>
      </trkpt>
      <trkpt lat="49.38377" lon="1.47114">
        <ele>187</ele>
        <time>2015-06-13T09:12:11Z</time>
      </trkpt>
      <trkpt lat="49.38378" lon="1.47116">
        <ele>187.20001220703</ele>
        <time>2015-06-13T09:12:12Z</time>
      </trkpt>
      <trkpt lat="49.38379" lon="1.47119">
        <ele>187.20001220703</ele>
        <time>2015-06-13T09:12:13Z</time>
      </trkpt>
      <trkpt lat="49.3838" lon="1.47122">
        <ele>187</ele>
        <time>2015-06-13T09:12:14Z</time>
      </trkpt>
      <trkpt lat="49.38379" lon="1.47128">
        <ele>186.79998779297</ele>
        <time>2015-06-13T09:12:15Z</time>
      </trkpt>
      <trkpt lat="49.38378" lon="1.47133">
        <ele>187</ele>
        <time>2015-06-13T09:12:16Z</time>
      </trkpt>
      <trkpt lat="49.38379" lon="1.47137">
        <ele>187</ele>
        <time>2015-06-13T09:12:17Z</time>
      </trkpt>
      <trkpt lat="49.38379" lon="1.47141">
        <ele>187.20001220703</ele>
        <time>2015-06-13T09:12:18Z</time>
      </trkpt>
      <trkpt lat="49.38382" lon="1.4722">
        <ele>187.59997558594</ele>
        <time>2015-06-13T09:12:30Z</time>
      </trkpt>
      <trkpt lat="49.38381" lon="1.47228">
        <ele>187.40002441406</ele>
        <time>2015-06-13T09:12:31Z</time>
      </trkpt>
      <trkpt lat="49.38381" lon="1.47244">
        <ele>187.40002441406</ele>
        <time>2015-06-13T09:12:33Z</time>
      </trkpt>
      <trkpt lat="49.3838" lon="1.47311">
        <ele>187.40002441406</ele>
        <time>2015-06-13T09:12:42Z</time>
      </trkpt>
      <trkpt lat="49.3838" lon="1.47319">
        <ele>187.20001220703</ele>
        <time>2015-06-13T09:12:43Z</time>
      </trkpt>
      <trkpt lat="49.38385" lon="1.47359">
        <ele>187.59997558594</ele>
        <time>2015-06-13T09:12:48Z</time>
      </trkpt>
      <trkpt lat="49.38389" lon="1.47404">
        <ele>187</ele>
        <time>2015-06-13T09:12:54Z</time>
      </trkpt>
      <trkpt lat="49.3839" lon="1.47411">
        <ele>187</ele>
        <time>2015-06-13T09:12:55Z</time>
      </trkpt>
      <trkpt lat="49.38391" lon="1.47418">
        <ele>187.20001220703</ele>
        <time>2015-06-13T09:12:56Z</time>
      </trkpt>
      <trkpt lat="49.3839" lon="1.47433">
        <ele>187</ele>
        <time>2015-06-13T09:12:58Z</time>
      </trkpt>
      <trkpt lat="49.38391" lon="1.4744">
        <ele>186.79998779297</ele>
        <time>2015-06-13T09:12:59Z</time>
      </trkpt>
      <trkpt lat="49.38391" lon="1.47447">
        <ele>187</ele>
        <time>2015-06-13T09:13:00Z</time>
      </trkpt>
      <trkpt lat="49.38392" lon="1.47454">
        <ele>187.20001220703</ele>
        <time>2015-06-13T09:13:01Z</time>
      </trkpt>
      <trkpt lat="49.38393" lon="1.47462">
        <ele>187.20001220703</ele>
        <time>2015-06-13T09:13:02Z</time>
      </trkpt>
      <trkpt lat="49.38397" lon="1.47486">
        <ele>186.79998779297</ele>
        <time>2015-06-13T09:13:05Z</time>
      </trkpt>
      <trkpt lat="49.38403" lon="1.47506">
        <ele>186.59997558594</ele>
        <time>2015-06-13T09:13:08Z</time>
      </trkpt>
      <trkpt lat="49.38402" lon="1.47528">
        <ele>186.79998779297</ele>
        <time>2015-06-13T09:13:11Z</time>
      </trkpt>
      <trkpt lat="49.384" lon="1.47536">
        <ele>186.59997558594</ele>
        <time>2015-06-13T09:13:12Z</time>
      </trkpt>
      <trkpt lat="49.38407" lon="1.47599">
        <ele>185.40002441406</ele>
        <time>2015-06-13T09:13:50Z</time>
      </trkpt>
      <trkpt lat="49.38408" lon="1.476">
        <ele>186.40002441406</ele>
        <time>2015-06-13T09:13:58Z</time>
      </trkpt>
      <trkpt lat="49.38407" lon="1.47605">
        <ele>185.79998779297</ele>
        <time>2015-06-13T09:14:09Z</time>
      </trkpt>
      <trkpt lat="49.38412" lon="1.47691">
        <ele>188.59997558594</ele>
        <time>2015-06-13T09:14:24Z</time>
      </trkpt>
      <trkpt lat="49.3842" lon="1.47768">
        <ele>188.59997558594</ele>
        <time>2015-06-13T09:14:37Z</time>
      </trkpt>
      <trkpt lat="49.3842" lon="1.47793">
        <ele>188.59997558594</ele>
        <time>2015-06-13T09:14:41Z</time>
      </trkpt>
      <trkpt lat="49.38419" lon="1.47799">
        <ele>188.40002441406</ele>
        <time>2015-06-13T09:14:42Z</time>
      </trkpt>
      <trkpt lat="49.38416" lon="1.47804">
        <ele>188.59997558594</ele>
        <time>2015-06-13T09:14:43Z</time>
      </trkpt>
      <trkpt lat="49.38413" lon="1.47808">
        <ele>188.59997558594</ele>
        <time>2015-06-13T09:14:44Z</time>
      </trkpt>
      <trkpt lat="49.38409" lon="1.47811">
        <ele>188.79998779297</ele>
        <time>2015-06-13T09:14:45Z</time>
      </trkpt>
      <trkpt lat="49.38405" lon="1.47812">
        <ele>188.79998779297</ele>
        <time>2015-06-13T09:14:46Z</time>
      </trkpt>
      <trkpt lat="49.38401" lon="1.47814">
        <ele>188.79998779297</ele>
        <time>2015-06-13T09:14:47Z</time>
      </trkpt>
      <trkpt lat="49.38381" lon="1.47818">
        <ele>189.20001220703</ele>
        <time>2015-06-13T09:14:52Z</time>
      </trkpt>
      <trkpt lat="49.38363" lon="1.47817">
        <ele>189.59997558594</ele>
        <time>2015-06-13T09:14:56Z</time>
      </trkpt>
      <trkpt lat="49.38359" lon="1.47817">
        <ele>189.79998779297</ele>
        <time>2015-06-13T09:14:57Z</time>
      </trkpt>
      <trkpt lat="49.38311" lon="1.4781">
        <ele>190.79998779297</ele>
        <time>2015-06-13T09:15:10Z</time>
      </trkpt>
      <trkpt lat="49.38264" lon="1.47807">
        <ele>191.79998779297</ele>
        <time>2015-06-13T09:15:25Z</time>
      </trkpt>
      <trkpt lat="49.38208" lon="1.47809">
        <ele>193.20001220703</ele>
        <time>2015-06-13T09:15:40Z</time>
      </trkpt>
      <trkpt lat="49.38148" lon="1.478">
        <ele>194.59997558594</ele>
        <time>2015-06-13T09:15:55Z</time>
      </trkpt>
      <trkpt lat="49.38096" lon="1.47796">
        <ele>196.20001220703</ele>
        <time>2015-06-13T09:16:10Z</time>
      </trkpt>
      <trkpt lat="49.38035" lon="1.47797">
        <ele>197</ele>
        <time>2015-06-13T09:16:27Z</time>
      </trkpt>
      <trkpt lat="49.37982" lon="1.47816">
        <ele>196.79998779297</ele>
        <time>2015-06-13T09:16:41Z</time>
      </trkpt>
      <trkpt lat="49.37975" lon="1.47894">
        <ele>196.79998779297</ele>
        <time>2015-06-13T09:16:59Z</time>
      </trkpt>
      <trkpt lat="49.3798" lon="1.47979">
        <ele>197</ele>
        <time>2015-06-13T09:17:15Z</time>
      </trkpt>
      <trkpt lat="49.38001" lon="1.48058">
        <ele>196.79998779297</ele>
        <time>2015-06-13T09:17:30Z</time>
      </trkpt>
      <trkpt lat="49.38028" lon="1.48133">
        <ele>196.40002441406</ele>
        <time>2015-06-13T09:17:45Z</time>
      </trkpt>
      <trkpt lat="49.38043" lon="1.48224">
        <ele>195.59997558594</ele>
        <time>2015-06-13T09:17:59Z</time>
      </trkpt>
      <trkpt lat="49.38048" lon="1.4825">
        <ele>195.79998779297</ele>
        <time>2015-06-13T09:18:03Z</time>
      </trkpt>
      <trkpt lat="49.38054" lon="1.48276">
        <ele>196.59997558594</ele>
        <time>2015-06-13T09:18:06Z</time>
      </trkpt>
      <trkpt lat="49.38056" lon="1.48315">
        <ele>195.40002441406</ele>
        <time>2015-06-13T09:18:12Z</time>
      </trkpt>
      <trkpt lat="49.38056" lon="1.48322">
        <ele>195.79998779297</ele>
        <time>2015-06-13T09:18:13Z</time>
      </trkpt>
      <trkpt lat="49.38058" lon="1.48336">
        <ele>195.40002441406</ele>
        <time>2015-06-13T09:18:15Z</time>
      </trkpt>
      <trkpt lat="49.3806" lon="1.48344">
        <ele>195.40002441406</ele>
        <time>2015-06-13T09:18:16Z</time>
      </trkpt>
      <trkpt lat="49.38064" lon="1.48365">
        <ele>195</ele>
        <time>2015-06-13T09:18:19Z</time>
      </trkpt>
      <trkpt lat="49.38065" lon="1.48371">
        <ele>195</ele>
        <time>2015-06-13T09:18:20Z</time>
      </trkpt>
      <trkpt lat="49.38085" lon="1.48459">
        <ele>194.79998779297</ele>
        <time>2015-06-13T09:18:30Z</time>
      </trkpt>
      <trkpt lat="49.38089" lon="1.48489">
        <ele>194.79998779297</ele>
        <time>2015-06-13T09:18:33Z</time>
      </trkpt>
      <trkpt lat="49.381" lon="1.48559">
        <ele>194.20001220703</ele>
        <time>2015-06-13T09:18:40Z</time>
      </trkpt>
      <trkpt lat="49.381" lon="1.4859">
        <ele>194.40002441406</ele>
        <time>2015-06-13T09:18:43Z</time>
      </trkpt>
      <trkpt lat="49.38102" lon="1.486">
        <ele>194.59997558594</ele>
        <time>2015-06-13T09:18:44Z</time>
      </trkpt>
      <trkpt lat="49.38119" lon="1.48694">
        <ele>193.20001220703</ele>
        <time>2015-06-13T09:18:55Z</time>
      </trkpt>
      <trkpt lat="49.38124" lon="1.48725">
        <ele>193.20001220703</ele>
        <time>2015-06-13T09:19:01Z</time>
      </trkpt>
      <trkpt lat="49.38137" lon="1.48771">
        <ele>193.40002441406</ele>
        <time>2015-06-13T09:19:07Z</time>
      </trkpt>
      <trkpt lat="49.38138" lon="1.4878">
        <ele>193.40002441406</ele>
        <time>2015-06-13T09:19:08Z</time>
      </trkpt>
      <trkpt lat="49.38142" lon="1.48808">
        <ele>193.40002441406</ele>
        <time>2015-06-13T09:19:11Z</time>
      </trkpt>
      <trkpt lat="49.38144" lon="1.48817">
        <ele>193.59997558594</ele>
        <time>2015-06-13T09:19:12Z</time>
      </trkpt>
      <trkpt lat="49.38147" lon="1.48826">
        <ele>193.79998779297</ele>
        <time>2015-06-13T09:19:13Z</time>
      </trkpt>
      <trkpt lat="49.38152" lon="1.48862">
        <ele>192.40002441406</ele>
        <time>2015-06-13T09:19:20Z</time>
      </trkpt>
      <trkpt lat="49.3815" lon="1.48865">
        <ele>192.20001220703</ele>
        <time>2015-06-13T09:19:21Z</time>
      </trkpt>
      <trkpt lat="49.38148" lon="1.48867">
        <ele>192.20001220703</ele>
        <time>2015-06-13T09:19:22Z</time>
      </trkpt>
      <trkpt lat="49.38128" lon="1.48909">
        <ele>192.79998779297</ele>
        <time>2015-06-13T09:19:43Z</time>
      </trkpt>
      <trkpt lat="49.38129" lon="1.48908">
        <ele>192.79998779297</ele>
        <time>2015-06-13T09:19:44Z</time>
      </trkpt>
      <trkpt lat="49.3813" lon="1.48907">
        <ele>192.79998779297</ele>
        <time>2015-06-13T09:19:45Z</time>
      </trkpt>
      <trkpt lat="49.3813" lon="1.48905">
        <ele>192.59997558594</ele>
        <time>2015-06-13T09:19:46Z</time>
      </trkpt>
      <trkpt lat="49.38131" lon="1.48905">
        <ele>192.59997558594</ele>
        <time>2015-06-13T09:19:47Z</time>
      </trkpt>
      <trkpt lat="49.3814" lon="1.48893">
        <ele>192.20001220703</ele>
        <time>2015-06-13T09:19:56Z</time>
      </trkpt>
      <trkpt lat="49.38138" lon="1.48896">
        <ele>192.20001220703</ele>
        <time>2015-06-13T09:19:57Z</time>
      </trkpt>
      <trkpt lat="49.38102" lon="1.48946">
        <ele>192.79998779297</ele>
        <time>2015-06-13T09:20:12Z</time>
      </trkpt>
      <trkpt lat="49.38065" lon="1.48999">
        <ele>193.40002441406</ele>
        <time>2015-06-13T09:20:25Z</time>
      </trkpt>
      <trkpt lat="49.38036" lon="1.49061">
        <ele>193.59997558594</ele>
        <time>2015-06-13T09:20:36Z</time>
      </trkpt>
      <trkpt lat="49.38025" lon="1.49107">
        <ele>192.79998779297</ele>
        <time>2015-06-13T09:20:43Z</time>
      </trkpt>
      <trkpt lat="49.38009" lon="1.49164">
        <ele>191.59997558594</ele>
        <time>2015-06-13T09:20:49Z</time>
      </trkpt>
      <trkpt lat="49.38007" lon="1.49174">
        <ele>191.40002441406</ele>
        <time>2015-06-13T09:20:50Z</time>
      </trkpt>
      <trkpt lat="49.38005" lon="1.49184">
        <ele>191.20001220703</ele>
        <time>2015-06-13T09:20:51Z</time>
      </trkpt>
      <trkpt lat="49.37989" lon="1.49256">
        <ele>188.79998779297</ele>
        <time>2015-06-13T09:20:58Z</time>
      </trkpt>
      <trkpt lat="49.37982" lon="1.49289">
        <ele>187.40002441406</ele>
        <time>2015-06-13T09:21:01Z</time>
      </trkpt>
      <trkpt lat="49.37964" lon="1.49368">
        <ele>185.40002441406</ele>
        <time>2015-06-13T09:21:08Z</time>
      </trkpt>
      <trkpt lat="49.37944" lon="1.4945">
        <ele>183.59997558594</ele>
        <time>2015-06-13T09:21:15Z</time>
      </trkpt>
      <trkpt lat="49.37937" lon="1.49468">
        <ele>182.79998779297</ele>
        <time>2015-06-13T09:21:17Z</time>
      </trkpt>
      <trkpt lat="49.37933" lon="1.49475">
        <ele>183</ele>
        <time>2015-06-13T09:21:18Z</time>
      </trkpt>
      <trkpt lat="49.37928" lon="1.49479">
        <ele>183.20001220703</ele>
        <time>2015-06-13T09:21:19Z</time>
      </trkpt>
      <trkpt lat="49.37923" lon="1.49482">
        <ele>183.20001220703</ele>
        <time>2015-06-13T09:21:20Z</time>
      </trkpt>
      <trkpt lat="49.37917" lon="1.49483">
        <ele>183</ele>
        <time>2015-06-13T09:21:21Z</time>
      </trkpt>
      <trkpt lat="49.3791" lon="1.49483">
        <ele>182.59997558594</ele>
        <time>2015-06-13T09:21:22Z</time>
      </trkpt>
      <trkpt lat="49.37902" lon="1.49481">
        <ele>182.40002441406</ele>
        <time>2015-06-13T09:21:23Z</time>
      </trkpt>
      <trkpt lat="49.37894" lon="1.49479">
        <ele>182</ele>
        <time>2015-06-13T09:21:24Z</time>
      </trkpt>
      <trkpt lat="49.37885" lon="1.49477">
        <ele>181.79998779297</ele>
        <time>2015-06-13T09:21:25Z</time>
      </trkpt>
      <trkpt lat="49.37827" lon="1.49479">
        <ele>179.20001220703</ele>
        <time>2015-06-13T09:21:32Z</time>
      </trkpt>
      <trkpt lat="49.37783" lon="1.49492">
        <ele>176.20001220703</ele>
        <time>2015-06-13T09:21:37Z</time>
      </trkpt>
      <trkpt lat="49.37735" lon="1.49509">
        <ele>173</ele>
        <time>2015-06-13T09:21:42Z</time>
      </trkpt>
      <trkpt lat="49.37698" lon="1.49523">
        <ele>170</ele>
        <time>2015-06-13T09:21:46Z</time>
      </trkpt>
      <trkpt lat="49.3768" lon="1.49527">
        <ele>167.40002441406</ele>
        <time>2015-06-13T09:21:48Z</time>
      </trkpt>
      <trkpt lat="49.37671" lon="1.49528">
        <ele>166</ele>
        <time>2015-06-13T09:21:49Z</time>
      </trkpt>
      <trkpt lat="49.37662" lon="1.49527">
        <ele>165.20001220703</ele>
        <time>2015-06-13T09:21:50Z</time>
      </trkpt>
      <trkpt lat="49.37653" lon="1.49525">
        <ele>163.20001220703</ele>
        <time>2015-06-13T09:21:51Z</time>
      </trkpt>
      <trkpt lat="49.37644" lon="1.49523">
        <ele>161.20001220703</ele>
        <time>2015-06-13T09:21:52Z</time>
      </trkpt>
      <trkpt lat="49.37616" lon="1.49522">
        <ele>158.20001220703</ele>
        <time>2015-06-13T09:21:55Z</time>
      </trkpt>
      <trkpt lat="49.37581" lon="1.49533">
        <ele>154.40002441406</ele>
        <time>2015-06-13T09:21:59Z</time>
      </trkpt>
      <trkpt lat="49.37548" lon="1.49544">
        <ele>151.20001220703</ele>
        <time>2015-06-13T09:22:03Z</time>
      </trkpt>
      <trkpt lat="49.37541" lon="1.49548">
        <ele>150.79998779297</ele>
        <time>2015-06-13T09:22:04Z</time>
      </trkpt>
      <trkpt lat="49.37509" lon="1.49564">
        <ele>147.40002441406</ele>
        <time>2015-06-13T09:22:08Z</time>
      </trkpt>
      <trkpt lat="49.37479" lon="1.49587">
        <ele>143.59997558594</ele>
        <time>2015-06-13T09:22:12Z</time>
      </trkpt>
      <trkpt lat="49.37458" lon="1.49607">
        <ele>139.79998779297</ele>
        <time>2015-06-13T09:22:15Z</time>
      </trkpt>
      <trkpt lat="49.3742" lon="1.49649">
        <ele>136</ele>
        <time>2015-06-13T09:22:21Z</time>
      </trkpt>
      <trkpt lat="49.37416" lon="1.49658">
        <ele>134.40002441406</ele>
        <time>2015-06-13T09:22:22Z</time>
      </trkpt>
      <trkpt lat="49.37412" lon="1.49667">
        <ele>133</ele>
        <time>2015-06-13T09:22:23Z</time>
      </trkpt>
      <trkpt lat="49.37407" lon="1.49675">
        <ele>132</ele>
        <time>2015-06-13T09:22:24Z</time>
      </trkpt>
      <trkpt lat="49.37377" lon="1.49723">
        <ele>128.40002441406</ele>
        <time>2015-06-13T09:22:29Z</time>
      </trkpt>
      <trkpt lat="49.37356" lon="1.49749">
        <ele>124.79998779297</ele>
        <time>2015-06-13T09:22:32Z</time>
      </trkpt>
      <trkpt lat="49.37349" lon="1.49755">
        <ele>123.40002441406</ele>
        <time>2015-06-13T09:22:33Z</time>
      </trkpt>
      <trkpt lat="49.37342" lon="1.4976">
        <ele>122</ele>
        <time>2015-06-13T09:22:34Z</time>
      </trkpt>
      <trkpt lat="49.37327" lon="1.49767">
        <ele>119.79998779297</ele>
        <time>2015-06-13T09:22:36Z</time>
      </trkpt>
      <trkpt lat="49.37298" lon="1.49786">
        <ele>116.59997558594</ele>
        <time>2015-06-13T09:22:40Z</time>
      </trkpt>
      <trkpt lat="49.37284" lon="1.49799">
        <ele>115.79998779297</ele>
        <time>2015-06-13T09:22:42Z</time>
      </trkpt>
      <trkpt lat="49.37277" lon="1.49807">
        <ele>115.20001220703</ele>
        <time>2015-06-13T09:22:43Z</time>
      </trkpt>
      <trkpt lat="49.37258" lon="1.49831">
        <ele>112.59997558594</ele>
        <time>2015-06-13T09:22:47Z</time>
      </trkpt>
      <trkpt lat="49.37253" lon="1.49833">
        <ele>112.20001220703</ele>
        <time>2015-06-13T09:22:48Z</time>
      </trkpt>
      <trkpt lat="49.37249" lon="1.49835">
        <ele>112</ele>
        <time>2015-06-13T09:22:49Z</time>
      </trkpt>
      <trkpt lat="49.37247" lon="1.49836">
        <ele>112</ele>
        <time>2015-06-13T09:22:50Z</time>
      </trkpt>
      <trkpt lat="49.37245" lon="1.49835">
        <ele>112.20001220703</ele>
        <time>2015-06-13T09:22:51Z</time>
      </trkpt>
      <trkpt lat="49.37245" lon="1.49833">
        <ele>112.40002441406</ele>
        <time>2015-06-13T09:22:52Z</time>
      </trkpt>
      <trkpt lat="49.37244" lon="1.49831">
        <ele>112.40002441406</ele>
        <time>2015-06-13T09:22:53Z</time>
      </trkpt>
      <trkpt lat="49.37243" lon="1.49829">
        <ele>112.40002441406</ele>
        <time>2015-06-13T09:22:54Z</time>
      </trkpt>
      <trkpt lat="49.37242" lon="1.49827">
        <ele>112.59997558594</ele>
        <time>2015-06-13T09:22:55Z</time>
      </trkpt>
      <trkpt lat="49.37242" lon="1.49825">
        <ele>112.59997558594</ele>
        <time>2015-06-13T09:22:56Z</time>
      </trkpt>
      <trkpt lat="49.37242" lon="1.49823">
        <ele>112.59997558594</ele>
        <time>2015-06-13T09:22:57Z</time>
      </trkpt>
      <trkpt lat="49.37241" lon="1.49822">
        <ele>112.59997558594</ele>
        <time>2015-06-13T09:22:58Z</time>
      </trkpt>
      <trkpt lat="49.37243" lon="1.49816">
        <ele>112.59997558594</ele>
        <time>2015-06-13T09:23:03Z</time>
      </trkpt>
      <trkpt lat="49.37242" lon="1.49814">
        <ele>112.59997558594</ele>
        <time>2015-06-13T09:23:04Z</time>
      </trkpt>
      <trkpt lat="49.37242" lon="1.49813">
        <ele>112.59997558594</ele>
        <time>2015-06-13T09:23:05Z</time>
      </trkpt>
      <trkpt lat="49.37241" lon="1.49812">
        <ele>112.59997558594</ele>
        <time>2015-06-13T09:23:06Z</time>
      </trkpt>
      <trkpt lat="49.3724" lon="1.49811">
        <ele>112.59997558594</ele>
        <time>2015-06-13T09:23:07Z</time>
      </trkpt>
      <trkpt lat="49.37239" lon="1.49809">
        <ele>112.59997558594</ele>
        <time>2015-06-13T09:23:08Z</time>
      </trkpt>
      <trkpt lat="49.37239" lon="1.49807">
        <ele>112.59997558594</ele>
        <time>2015-06-13T09:23:09Z</time>
      </trkpt>
      <trkpt lat="49.37239" lon="1.49804">
        <ele>112.79998779297</ele>
        <time>2015-06-13T09:23:10Z</time>
      </trkpt>
      <trkpt lat="49.37239" lon="1.49801">
        <ele>112.79998779297</ele>
        <time>2015-06-13T09:23:11Z</time>
      </trkpt>
      <trkpt lat="49.37239" lon="1.49799">
        <ele>112.79998779297</ele>
        <time>2015-06-13T09:23:12Z</time>
      </trkpt>
      <trkpt lat="49.3724" lon="1.49794">
        <ele>112.59997558594</ele>
        <time>2015-06-13T09:23:14Z</time>
      </trkpt>
      <trkpt lat="49.3724" lon="1.49791">
        <ele>112.59997558594</ele>
        <time>2015-06-13T09:23:15Z</time>
      </trkpt>
      <trkpt lat="49.37239" lon="1.49789">
        <ele>112.59997558594</ele>
        <time>2015-06-13T09:23:16Z</time>
      </trkpt>
      <trkpt lat="49.37239" lon="1.49787">
        <ele>112.59997558594</ele>
        <time>2015-06-13T09:23:17Z</time>
      </trkpt>
      <trkpt lat="49.37239" lon="1.49784">
        <ele>112.59997558594</ele>
        <time>2015-06-13T09:23:18Z</time>
      </trkpt>
      <trkpt lat="49.3724" lon="1.49782">
        <ele>112.59997558594</ele>
        <time>2015-06-13T09:23:19Z</time>
      </trkpt>
      <trkpt lat="49.3724" lon="1.4978">
        <ele>112.59997558594</ele>
        <time>2015-06-13T09:23:20Z</time>
      </trkpt>
      <trkpt lat="49.3724" lon="1.49778">
        <ele>112.59997558594</ele>
        <time>2015-06-13T09:23:21Z</time>
      </trkpt>
      <trkpt lat="49.37239" lon="1.49776">
        <ele>112.79998779297</ele>
        <time>2015-06-13T09:23:22Z</time>
      </trkpt>
      <trkpt lat="49.37237" lon="1.49775">
        <ele>113</ele>
        <time>2015-06-13T09:23:23Z</time>
      </trkpt>
      <trkpt lat="49.37236" lon="1.49776">
        <ele>113</ele>
        <time>2015-06-13T09:23:24Z</time>
      </trkpt>
      <trkpt lat="49.37236" lon="1.49776">
        <ele>113</ele>
        <time>2015-06-13T09:23:25Z</time>
      </trkpt>
      <trkpt lat="49.37235" lon="1.49778">
        <ele>113</ele>
        <time>2015-06-13T09:23:26Z</time>
      </trkpt>
      <trkpt lat="49.37238" lon="1.4978">
        <ele>113.20001220703</ele>
        <time>2015-06-13T09:23:30Z</time>
      </trkpt>
      <trkpt lat="49.37238" lon="1.49777">
        <ele>113.20001220703</ele>
        <time>2015-06-13T09:23:31Z</time>
      </trkpt>
      <trkpt lat="49.37265" lon="1.4971">
        <ele>113</ele>
        <time>2015-06-13T09:23:45Z</time>
      </trkpt>
      <trkpt lat="49.37296" lon="1.49662">
        <ele>110.79998779297</ele>
        <time>2015-06-13T09:24:03Z</time>
      </trkpt>
      <trkpt lat="49.37293" lon="1.49663">
        <ele>110.59997558594</ele>
        <time>2015-06-13T09:24:05Z</time>
      </trkpt>
      <trkpt lat="49.37292" lon="1.49664">
        <ele>110.59997558594</ele>
        <time>2015-06-13T09:24:06Z</time>
      </trkpt>
      <trkpt lat="49.37289" lon="1.49664">
        <ele>110.40002441406</ele>
        <time>2015-06-13T09:24:07Z</time>
      </trkpt>
      <trkpt lat="49.37287" lon="1.49664">
        <ele>110.40002441406</ele>
        <time>2015-06-13T09:24:08Z</time>
      </trkpt>
      <trkpt lat="49.37284" lon="1.49666">
        <ele>110.40002441406</ele>
        <time>2015-06-13T09:24:09Z</time>
      </trkpt>
      <trkpt lat="49.37281" lon="1.49668">
        <ele>110.59997558594</ele>
        <time>2015-06-13T09:24:10Z</time>
      </trkpt>
      <trkpt lat="49.37279" lon="1.4967">
        <ele>110.79998779297</ele>
        <time>2015-06-13T09:24:11Z</time>
      </trkpt>
      <trkpt lat="49.37276" lon="1.49674">
        <ele>111</ele>
        <time>2015-06-13T09:24:12Z</time>
      </trkpt>
      <trkpt lat="49.37274" lon="1.49678">
        <ele>111.40002441406</ele>
        <time>2015-06-13T09:24:13Z</time>
      </trkpt>
      <trkpt lat="49.37273" lon="1.49681">
        <ele>111.59997558594</ele>
        <time>2015-06-13T09:24:14Z</time>
      </trkpt>
      <trkpt lat="49.37271" lon="1.49684">
        <ele>111.79998779297</ele>
        <time>2015-06-13T09:24:15Z</time>
      </trkpt>
      <trkpt lat="49.37244" lon="1.49749">
        <ele>112.40002441406</ele>
        <time>2015-06-13T09:24:37Z</time>
      </trkpt>
      <trkpt lat="49.37241" lon="1.49758">
        <ele>112.79998779297</ele>
        <time>2015-06-13T09:24:41Z</time>
      </trkpt>
      <trkpt lat="49.37241" lon="1.4976">
        <ele>112.79998779297</ele>
        <time>2015-06-13T09:24:42Z</time>
      </trkpt>
      <trkpt lat="49.37243" lon="1.49763">
        <ele>112.59997558594</ele>
        <time>2015-06-13T09:24:43Z</time>
      </trkpt>
      <trkpt lat="49.37246" lon="1.49764">
        <ele>112.59997558594</ele>
        <time>2015-06-13T09:24:44Z</time>
      </trkpt>
      <trkpt lat="49.37248" lon="1.49765">
        <ele>112.40002441406</ele>
        <time>2015-06-13T09:24:45Z</time>
      </trkpt>
      <trkpt lat="49.37249" lon="1.49765">
        <ele>112.20001220703</ele>
        <time>2015-06-13T09:24:46Z</time>
      </trkpt>
      <trkpt lat="49.37252" lon="1.49764">
        <ele>112.59997558594</ele>
        <time>2015-06-13T09:24:55Z</time>
      </trkpt>
      <trkpt lat="49.37249" lon="1.49761">
        <ele>112.40002441406</ele>
        <time>2015-06-13T09:24:58Z</time>
      </trkpt>
      <trkpt lat="49.3725" lon="1.49759">
        <ele>112.40002441406</ele>
        <time>2015-06-13T09:25:04Z</time>
      </trkpt>
      <trkpt lat="49.37251" lon="1.49758">
        <ele>112.40002441406</ele>
        <time>2015-06-13T09:25:05Z</time>
      </trkpt>
      <trkpt lat="49.37252" lon="1.49757">
        <ele>112.59997558594</ele>
        <time>2015-06-13T09:25:06Z</time>
      </trkpt>
      <trkpt lat="49.37254" lon="1.49755">
        <ele>112.59997558594</ele>
        <time>2015-06-13T09:25:07Z</time>
      </trkpt>
      <trkpt lat="49.37254" lon="1.49754">
        <ele>112.59997558594</ele>
        <time>2015-06-13T09:25:08Z</time>
      </trkpt>
      <trkpt lat="49.37254" lon="1.49752">
        <ele>112.59997558594</ele>
        <time>2015-06-13T09:25:09Z</time>
      </trkpt>
      <trkpt lat="49.37254" lon="1.4975">
        <ele>112.59997558594</ele>
        <time>2015-06-13T09:25:11Z</time>
      </trkpt>
      <trkpt lat="49.37253" lon="1.49747">
        <ele>112.79998779297</ele>
        <time>2015-06-13T09:25:13Z</time>
      </trkpt>
      <trkpt lat="49.37251" lon="1.49746">
        <ele>112.79998779297</ele>
        <time>2015-06-13T09:25:14Z</time>
      </trkpt>
      <trkpt lat="49.37245" lon="1.49751">
        <ele>112.40002441406</ele>
        <time>2015-06-13T09:25:21Z</time>
      </trkpt>
      <trkpt lat="49.37247" lon="1.49749">
        <ele>112.40002441406</ele>
        <time>2015-06-13T09:25:33Z</time>
      </trkpt>
      <trkpt lat="49.37247" lon="1.49749">
        <ele>112.40002441406</ele>
        <time>2015-06-13T09:25:35Z</time>
      </trkpt>
      <trkpt lat="49.37249" lon="1.49753">
        <ele>112.40002441406</ele>
        <time>2015-06-13T09:25:44Z</time>
      </trkpt>
      <trkpt lat="49.37249" lon="1.4975">
        <ele>112.40002441406</ele>
        <time>2015-06-13T09:25:50Z</time>
      </trkpt>
      <trkpt lat="49.3725" lon="1.49753">
        <ele>112.59997558594</ele>
        <time>2015-06-13T09:25:58Z</time>
      </trkpt>
      <trkpt lat="49.37252" lon="1.49752">
        <ele>112.59997558594</ele>
        <time>2015-06-13T09:26:05Z</time>
      </trkpt>
      <trkpt lat="49.37249" lon="1.49752">
        <ele>112.40002441406</ele>
        <time>2015-06-13T09:26:10Z</time>
      </trkpt>
      <trkpt lat="49.37248" lon="1.49752">
        <ele>112.40002441406</ele>
        <time>2015-06-13T09:26:16Z</time>
      </trkpt>
      <trkpt lat="49.37247" lon="1.49756">
        <ele>112.59997558594</ele>
        <time>2015-06-13T09:26:28Z</time>
      </trkpt>
      <trkpt lat="49.37252" lon="1.49755">
        <ele>112.40002441406</ele>
        <time>2015-06-13T09:26:39Z</time>
      </trkpt>
      <trkpt lat="49.37259" lon="1.49756">
        <ele>112.59997558594</ele>
        <time>2015-06-13T09:26:48Z</time>
      </trkpt>
      <trkpt lat="49.37262" lon="1.49761">
        <ele>112.59997558594</ele>
        <time>2015-06-13T09:26:57Z</time>
      </trkpt>
      <trkpt lat="49.37252" lon="1.49745">
        <ele>112.59997558594</ele>
        <time>2015-06-13T09:27:06Z</time>
      </trkpt>
      <trkpt lat="49.37247" lon="1.49749">
        <ele>112.59997558594</ele>
        <time>2015-06-13T09:27:52Z</time>
      </trkpt>
      <trkpt lat="49.3725" lon="1.49752">
        <ele>112.59997558594</ele>
        <time>2015-06-13T09:27:59Z</time>
      </trkpt>
      <trkpt lat="49.3725" lon="1.4975">
        <ele>112.59997558594</ele>
        <time>2015-06-13T09:28:20Z</time>
      </trkpt>
      <trkpt lat="49.37249" lon="1.49747">
        <ele>112.59997558594</ele>
        <time>2015-06-13T09:28:24Z</time>
      </trkpt>
      <trkpt lat="49.3724" lon="1.49745">
        <ele>112.79998779297</ele>
        <time>2015-06-13T09:29:29Z</time>
      </trkpt>
      <trkpt lat="49.3724" lon="1.49746">
        <ele>112.79998779297</ele>
        <time>2015-06-13T09:29:30Z</time>
      </trkpt>
      <trkpt lat="49.37245" lon="1.49753">
        <ele>113.59997558594</ele>
        <time>2015-06-13T09:29:39Z</time>
      </trkpt>
      <trkpt lat="49.37246" lon="1.49754">
        <ele>113.59997558594</ele>
        <time>2015-06-13T09:29:40Z</time>
      </trkpt>
      <trkpt lat="49.37247" lon="1.49755">
        <ele>113</ele>
        <time>2015-06-13T09:29:56Z</time>
      </trkpt>
      <trkpt lat="49.37248" lon="1.49756">
        <ele>112.79998779297</ele>
        <time>2015-06-13T09:29:57Z</time>
      </trkpt>
      <trkpt lat="49.3725" lon="1.49757">
        <ele>112.40002441406</ele>
        <time>2015-06-13T09:30:09Z</time>
      </trkpt>
      <trkpt lat="49.37249" lon="1.49757">
        <ele>112.40002441406</ele>
        <time>2015-06-13T09:30:10Z</time>
      </trkpt>
      <trkpt lat="49.37248" lon="1.49754">
        <ele>112.40002441406</ele>
        <time>2015-06-13T09:30:12Z</time>
      </trkpt>
      <trkpt lat="49.37246" lon="1.49753">
        <ele>112.40002441406</ele>
        <time>2015-06-13T09:30:20Z</time>
      </trkpt>
      <trkpt lat="49.37245" lon="1.49752">
        <ele>112.40002441406</ele>
        <time>2015-06-13T09:30:21Z</time>
      </trkpt>
      <trkpt lat="49.37242" lon="1.49745">
        <ele>112.59997558594</ele>
        <time>2015-06-13T09:31:12Z</time>
      </trkpt>
      <trkpt lat="49.37248" lon="1.49757">
        <ele>112.20001220703</ele>
        <time>2015-06-13T09:32:47Z</time>
      </trkpt>
      <trkpt lat="49.37247" lon="1.49755">
        <ele>112.20001220703</ele>
        <time>2015-06-13T09:32:48Z</time>
      </trkpt>
      <trkpt lat="49.37247" lon="1.4975">
        <ele>112.59997558594</ele>
        <time>2015-06-13T09:33:09Z</time>
      </trkpt>
      <trkpt lat="49.37246" lon="1.49744">
        <ele>112</ele>
        <time>2015-06-13T09:33:16Z</time>
      </trkpt>
      <trkpt lat="49.37246" lon="1.49748">
        <ele>112.40002441406</ele>
        <time>2015-06-13T09:33:31Z</time>
      </trkpt>
      <trkpt lat="49.37249" lon="1.49748">
        <ele>113.20001220703</ele>
        <time>2015-06-13T09:33:43Z</time>
      </trkpt>
      <trkpt lat="49.37249" lon="1.49747">
        <ele>113.59997558594</ele>
        <time>2015-06-13T09:33:44Z</time>
      </trkpt>
      <trkpt lat="49.37249" lon="1.49746">
        <ele>112.79998779297</ele>
        <time>2015-06-13T09:33:46Z</time>
      </trkpt>
      <trkpt lat="49.3725" lon="1.4975">
        <ele>112.40002441406</ele>
        <time>2015-06-13T09:34:08Z</time>
      </trkpt>
      <trkpt lat="49.37249" lon="1.49748">
        <ele>112.20001220703</ele>
        <time>2015-06-13T09:34:10Z</time>
      </trkpt>
      <trkpt lat="49.37249" lon="1.49747">
        <ele>112.20001220703</ele>
        <time>2015-06-13T09:34:11Z</time>
      </trkpt>
      <trkpt lat="49.37248" lon="1.49747">
        <ele>112.20001220703</ele>
        <time>2015-06-13T09:34:21Z</time>
      </trkpt>
      <trkpt lat="49.37251" lon="1.49747">
        <ele>112.40002441406</ele>
        <time>2015-06-13T09:34:31Z</time>
      </trkpt>
      <trkpt lat="49.3725" lon="1.49746">
        <ele>112.40002441406</ele>
        <time>2015-06-13T09:34:33Z</time>
      </trkpt>
      <trkpt lat="49.37248" lon="1.49743">
        <ele>112.40002441406</ele>
        <time>2015-06-13T09:34:43Z</time>
      </trkpt>
      <trkpt lat="49.3725" lon="1.49748">
        <ele>112.20001220703</ele>
        <time>2015-06-13T09:34:56Z</time>
      </trkpt>
      <trkpt lat="49.37252" lon="1.49746">
        <ele>112.20001220703</ele>
        <time>2015-06-13T09:34:58Z</time>
      </trkpt>
      <trkpt lat="49.37252" lon="1.49745">
        <ele>112</ele>
        <time>2015-06-13T09:34:59Z</time>
      </trkpt>
      <trkpt lat="49.37252" lon="1.49743">
        <ele>112</ele>
        <time>2015-06-13T09:35:00Z</time>
      </trkpt>
      <trkpt lat="49.37287" lon="1.49684">
        <ele>111.40002441406</ele>
        <time>2015-06-13T09:35:27Z</time>
      </trkpt>
      <trkpt lat="49.37296" lon="1.49681">
        <ele>109.59997558594</ele>
        <time>2015-06-13T09:35:31Z</time>
      </trkpt>
      <trkpt lat="49.37297" lon="1.49682">
        <ele>110</ele>
        <time>2015-06-13T09:35:32Z</time>
      </trkpt>
      <trkpt lat="49.37299" lon="1.49682">
        <ele>110.20001220703</ele>
        <time>2015-06-13T09:35:33Z</time>
      </trkpt>
      <trkpt lat="49.37305" lon="1.49687">
        <ele>112</ele>
        <time>2015-06-13T09:35:38Z</time>
      </trkpt>
      <trkpt lat="49.37305" lon="1.49689">
        <ele>112.79998779297</ele>
        <time>2015-06-13T09:35:39Z</time>
      </trkpt>
      <trkpt lat="49.37305" lon="1.49691">
        <ele>113.20001220703</ele>
        <time>2015-06-13T09:35:40Z</time>
      </trkpt>
      <trkpt lat="49.37305" lon="1.49694">
        <ele>113.59997558594</ele>
        <time>2015-06-13T09:35:41Z</time>
      </trkpt>
      <trkpt lat="49.37304" lon="1.49697">
        <ele>113.59997558594</ele>
        <time>2015-06-13T09:35:42Z</time>
      </trkpt>
      <trkpt lat="49.37297" lon="1.49738">
        <ele>114.40002441406</ele>
        <time>2015-06-13T09:35:56Z</time>
      </trkpt>
      <trkpt lat="49.37273" lon="1.4979">
        <ele>112.40002441406</ele>
        <time>2015-06-13T09:36:08Z</time>
      </trkpt>
      <trkpt lat="49.37264" lon="1.49806">
        <ele>112.20001220703</ele>
        <time>2015-06-13T09:36:12Z</time>
      </trkpt>
      <trkpt lat="49.37261" lon="1.4981">
        <ele>112.20001220703</ele>
        <time>2015-06-13T09:36:13Z</time>
      </trkpt>
      <trkpt lat="49.37257" lon="1.49812">
        <ele>112</ele>
        <time>2015-06-13T09:36:14Z</time>
      </trkpt>
      <trkpt lat="49.37255" lon="1.49811">
        <ele>112</ele>
        <time>2015-06-13T09:36:15Z</time>
      </trkpt>
      <trkpt lat="49.37252" lon="1.4981">
        <ele>111.79998779297</ele>
        <time>2015-06-13T09:36:16Z</time>
      </trkpt>
      <trkpt lat="49.37249" lon="1.49807">
        <ele>111.79998779297</ele>
        <time>2015-06-13T09:36:17Z</time>
      </trkpt>
      <trkpt lat="49.37248" lon="1.49804">
        <ele>112</ele>
        <time>2015-06-13T09:36:18Z</time>
      </trkpt>
      <trkpt lat="49.37247" lon="1.49801">
        <ele>112.20001220703</ele>
        <time>2015-06-13T09:36:19Z</time>
      </trkpt>
      <trkpt lat="49.37246" lon="1.49798">
        <ele>112.40002441406</ele>
        <time>2015-06-13T09:36:20Z</time>
      </trkpt>
      <trkpt lat="49.37245" lon="1.49795">
        <ele>112.20001220703</ele>
        <time>2015-06-13T09:36:21Z</time>
      </trkpt>
      <trkpt lat="49.37247" lon="1.4974">
        <ele>113.20001220703</ele>
        <time>2015-06-13T09:36:35Z</time>
      </trkpt>
      <trkpt lat="49.37245" lon="1.49662">
        <ele>115.20001220703</ele>
        <time>2015-06-13T09:36:49Z</time>
      </trkpt>
      <trkpt lat="49.37236" lon="1.49587">
        <ele>113</ele>
        <time>2015-06-13T09:36:59Z</time>
      </trkpt>
      <trkpt lat="49.37223" lon="1.49514">
        <ele>111.59997558594</ele>
        <time>2015-06-13T09:37:07Z</time>
      </trkpt>
      <trkpt lat="49.37207" lon="1.49435">
        <ele>110.59997558594</ele>
        <time>2015-06-13T09:37:15Z</time>
      </trkpt>
      <trkpt lat="49.37198" lon="1.49362">
        <ele>111</ele>
        <time>2015-06-13T09:37:23Z</time>
      </trkpt>
      <trkpt lat="49.37199" lon="1.49344">
        <ele>110.59997558594</ele>
        <time>2015-06-13T09:37:25Z</time>
      </trkpt>
      <trkpt lat="49.372" lon="1.49335">
        <ele>110.59997558594</ele>
        <time>2015-06-13T09:37:26Z</time>
      </trkpt>
      <trkpt lat="49.37214" lon="1.49261">
        <ele>109.59997558594</ele>
        <time>2015-06-13T09:37:35Z</time>
      </trkpt>
      <trkpt lat="49.37221" lon="1.49221">
        <ele>109.59997558594</ele>
        <time>2015-06-13T09:37:40Z</time>
      </trkpt>
      <trkpt lat="49.37219" lon="1.49214">
        <ele>109.59997558594</ele>
        <time>2015-06-13T09:37:41Z</time>
      </trkpt>
      <trkpt lat="49.37216" lon="1.49209">
        <ele>109.79998779297</ele>
        <time>2015-06-13T09:37:42Z</time>
      </trkpt>
      <trkpt lat="49.37213" lon="1.49206">
        <ele>109.79998779297</ele>
        <time>2015-06-13T09:37:43Z</time>
      </trkpt>
      <trkpt lat="49.3721" lon="1.49204">
        <ele>110</ele>
        <time>2015-06-13T09:37:44Z</time>
      </trkpt>
      <trkpt lat="49.37207" lon="1.49202">
        <ele>110</ele>
        <time>2015-06-13T09:37:45Z</time>
      </trkpt>
      <trkpt lat="49.37171" lon="1.49163">
        <ele>112.20001220703</ele>
        <time>2015-06-13T09:38:02Z</time>
      </trkpt>
      <trkpt lat="49.37143" lon="1.49098">
        <ele>111.40002441406</ele>
        <time>2015-06-13T09:38:16Z</time>
      </trkpt>
      <trkpt lat="49.37122" lon="1.49002">
        <ele>112</ele>
        <time>2015-06-13T09:38:31Z</time>
      </trkpt>
      <trkpt lat="49.37101" lon="1.48912">
        <ele>115.20001220703</ele>
        <time>2015-06-13T09:38:47Z</time>
      </trkpt>
      <trkpt lat="49.37091" lon="1.48895">
        <ele>115.79998779297</ele>
        <time>2015-06-13T09:38:50Z</time>
      </trkpt>
      <trkpt lat="49.37053" lon="1.48837">
        <ele>118</ele>
        <time>2015-06-13T09:39:02Z</time>
      </trkpt>
      <trkpt lat="49.37013" lon="1.48789">
        <ele>119.79998779297</ele>
        <time>2015-06-13T09:39:15Z</time>
      </trkpt>
      <trkpt lat="49.36986" lon="1.48742">
        <ele>123</ele>
        <time>2015-06-13T09:39:27Z</time>
      </trkpt>
      <trkpt lat="49.36958" lon="1.48687">
        <ele>126</ele>
        <time>2015-06-13T09:39:41Z</time>
      </trkpt>
      <trkpt lat="49.36935" lon="1.48602">
        <ele>126.79998779297</ele>
        <time>2015-06-13T09:39:54Z</time>
      </trkpt>
      <trkpt lat="49.36918" lon="1.48544">
        <ele>125.20001220703</ele>
        <time>2015-06-13T09:40:01Z</time>
      </trkpt>
      <trkpt lat="49.36916" lon="1.48536">
        <ele>125</ele>
        <time>2015-06-13T09:40:02Z</time>
      </trkpt>
      <trkpt lat="49.36908" lon="1.48515">
        <ele>124.40002441406</ele>
        <time>2015-06-13T09:40:05Z</time>
      </trkpt>
      <trkpt lat="49.36905" lon="1.48509">
        <ele>124.59997558594</ele>
        <time>2015-06-13T09:40:06Z</time>
      </trkpt>
      <trkpt lat="49.36888" lon="1.48472">
        <ele>122.20001220703</ele>
        <time>2015-06-13T09:40:11Z</time>
      </trkpt>
      <trkpt lat="49.36863" lon="1.48396">
        <ele>121</ele>
        <time>2015-06-13T09:40:20Z</time>
      </trkpt>
      <trkpt lat="49.36859" lon="1.48376">
        <ele>120.20001220703</ele>
        <time>2015-06-13T09:40:22Z</time>
      </trkpt>
      <trkpt lat="49.3684" lon="1.48304">
        <ele>118</ele>
        <time>2015-06-13T09:40:29Z</time>
      </trkpt>
      <trkpt lat="49.36819" lon="1.48228">
        <ele>118.20001220703</ele>
        <time>2015-06-13T09:40:37Z</time>
      </trkpt>
      <trkpt lat="49.36816" lon="1.48221">
        <ele>118.20001220703</ele>
        <time>2015-06-13T09:40:38Z</time>
      </trkpt>
      <trkpt lat="49.36802" lon="1.48168">
        <ele>120.59997558594</ele>
        <time>2015-06-13T09:40:51Z</time>
      </trkpt>
      <trkpt lat="49.36802" lon="1.48161">
        <ele>120.79998779297</ele>
        <time>2015-06-13T09:41:11Z</time>
      </trkpt>
      <trkpt lat="49.36804" lon="1.48152">
        <ele>120.20001220703</ele>
        <time>2015-06-13T09:41:39Z</time>
      </trkpt>
      <trkpt lat="49.36798" lon="1.48067">
        <ele>117.20001220703</ele>
        <time>2015-06-13T09:41:51Z</time>
      </trkpt>
      <trkpt lat="49.36796" lon="1.48039">
        <ele>113.59997558594</ele>
        <time>2015-06-13T09:41:54Z</time>
      </trkpt>
      <trkpt lat="49.36799" lon="1.48007">
        <ele>110.40002441406</ele>
        <time>2015-06-13T09:41:59Z</time>
      </trkpt>
      <trkpt lat="49.36798" lon="1.48002">
        <ele>110.20001220703</ele>
        <time>2015-06-13T09:42:00Z</time>
      </trkpt>
      <trkpt lat="49.36776" lon="1.4792">
        <ele>110.20001220703</ele>
        <time>2015-06-13T09:42:16Z</time>
      </trkpt>
      <trkpt lat="49.36735" lon="1.47867">
        <ele>108.79998779297</ele>
        <time>2015-06-13T09:42:32Z</time>
      </trkpt>
      <trkpt lat="49.36686" lon="1.47805">
        <ele>107.59997558594</ele>
        <time>2015-06-13T09:42:46Z</time>
      </trkpt>
      <trkpt lat="49.36636" lon="1.47725">
        <ele>105.79998779297</ele>
        <time>2015-06-13T09:42:59Z</time>
      </trkpt>
      <trkpt lat="49.36587" lon="1.47652">
        <ele>105.79998779297</ele>
        <time>2015-06-13T09:43:12Z</time>
      </trkpt>
      <trkpt lat="49.36544" lon="1.47588">
        <ele>103.79998779297</ele>
        <time>2015-06-13T09:43:24Z</time>
      </trkpt>
      <trkpt lat="49.36524" lon="1.4757">
        <ele>103.40002441406</ele>
        <time>2015-06-13T09:43:29Z</time>
      </trkpt>
      <trkpt lat="49.3652" lon="1.47568">
        <ele>103.40002441406</ele>
        <time>2015-06-13T09:43:30Z</time>
      </trkpt>
      <trkpt lat="49.36516" lon="1.47568">
        <ele>104</ele>
        <time>2015-06-13T09:43:31Z</time>
      </trkpt>
      <trkpt lat="49.36509" lon="1.47568">
        <ele>104.79998779297</ele>
        <time>2015-06-13T09:43:33Z</time>
      </trkpt>
      <trkpt lat="49.36495" lon="1.47567">
        <ele>105.59997558594</ele>
        <time>2015-06-13T09:43:36Z</time>
      </trkpt>
      <trkpt lat="49.36443" lon="1.47594">
        <ele>103.79998779297</ele>
        <time>2015-06-13T09:43:47Z</time>
      </trkpt>
      <trkpt lat="49.36396" lon="1.47632">
        <ele>102.20001220703</ele>
        <time>2015-06-13T09:43:55Z</time>
      </trkpt>
      <trkpt lat="49.36342" lon="1.47669">
        <ele>101.40002441406</ele>
        <time>2015-06-13T09:44:05Z</time>
      </trkpt>
      <trkpt lat="49.36337" lon="1.47671">
        <ele>101.20001220703</ele>
        <time>2015-06-13T09:44:06Z</time>
      </trkpt>
      <trkpt lat="49.3628" lon="1.47679">
        <ele>100.40002441406</ele>
        <time>2015-06-13T09:44:19Z</time>
      </trkpt>
      <trkpt lat="49.36244" lon="1.47669">
        <ele>100.59997558594</ele>
        <time>2015-06-13T09:44:27Z</time>
      </trkpt>
      <trkpt lat="49.36226" lon="1.47657">
        <ele>100.59997558594</ele>
        <time>2015-06-13T09:44:31Z</time>
      </trkpt>
      <trkpt lat="49.36183" lon="1.47594">
        <ele>100.79998779297</ele>
        <time>2015-06-13T09:44:44Z</time>
      </trkpt>
      <trkpt lat="49.36167" lon="1.47572">
        <ele>100.79998779297</ele>
        <time>2015-06-13T09:44:48Z</time>
      </trkpt>
      <trkpt lat="49.36116" lon="1.47516">
        <ele>100.40002441406</ele>
        <time>2015-06-13T09:44:59Z</time>
      </trkpt>
      <trkpt lat="49.36068" lon="1.47472">
        <ele>100.79998779297</ele>
        <time>2015-06-13T09:45:09Z</time>
      </trkpt>
      <trkpt lat="49.36064" lon="1.47468">
        <ele>100.79998779297</ele>
        <time>2015-06-13T09:45:10Z</time>
      </trkpt>
      <trkpt lat="49.3602" lon="1.47423">
        <ele>102.79998779297</ele>
        <time>2015-06-13T09:45:22Z</time>
      </trkpt>
      <trkpt lat="49.36001" lon="1.47397">
        <ele>101.59997558594</ele>
        <time>2015-06-13T09:45:27Z</time>
      </trkpt>
      <trkpt lat="49.35999" lon="1.47391">
        <ele>101.40002441406</ele>
        <time>2015-06-13T09:45:28Z</time>
      </trkpt>
      <trkpt lat="49.35997" lon="1.47384">
        <ele>101.20001220703</ele>
        <time>2015-06-13T09:45:29Z</time>
      </trkpt>
      <trkpt lat="49.35996" lon="1.47376">
        <ele>101.20001220703</ele>
        <time>2015-06-13T09:45:30Z</time>
      </trkpt>
      <trkpt lat="49.35993" lon="1.47367">
        <ele>100.79998779297</ele>
        <time>2015-06-13T09:45:31Z</time>
      </trkpt>
      <trkpt lat="49.35989" lon="1.47358">
        <ele>100.59997558594</ele>
        <time>2015-06-13T09:45:32Z</time>
      </trkpt>
      <trkpt lat="49.35985" lon="1.47349">
        <ele>100</ele>
        <time>2015-06-13T09:45:33Z</time>
      </trkpt>
      <trkpt lat="49.3598" lon="1.47341">
        <ele>99.400024414062</ele>
        <time>2015-06-13T09:45:34Z</time>
      </trkpt>
      <trkpt lat="49.35974" lon="1.47335">
        <ele>98.599975585938</ele>
        <time>2015-06-13T09:45:35Z</time>
      </trkpt>
      <trkpt lat="49.35968" lon="1.47331">
        <ele>98.200012207031</ele>
        <time>2015-06-13T09:45:36Z</time>
      </trkpt>
      <trkpt lat="49.35962" lon="1.47329">
        <ele>97.400024414062</ele>
        <time>2015-06-13T09:45:37Z</time>
      </trkpt>
      <trkpt lat="49.35957" lon="1.47328">
        <ele>96.799987792969</ele>
        <time>2015-06-13T09:45:38Z</time>
      </trkpt>
      <trkpt lat="49.35953" lon="1.47326">
        <ele>97</ele>
        <time>2015-06-13T09:45:39Z</time>
      </trkpt>
      <trkpt lat="49.35949" lon="1.47325">
        <ele>97</ele>
        <time>2015-06-13T09:45:40Z</time>
      </trkpt>
      <trkpt lat="49.35901" lon="1.47334">
        <ele>96.200012207031</ele>
        <time>2015-06-13T09:45:54Z</time>
      </trkpt>
      <trkpt lat="49.35857" lon="1.47351">
        <ele>97.200012207031</ele>
        <time>2015-06-13T09:46:11Z</time>
      </trkpt>
      <trkpt lat="49.35826" lon="1.47343">
        <ele>97.799987792969</ele>
        <time>2015-06-13T09:46:27Z</time>
      </trkpt>
      <trkpt lat="49.35807" lon="1.47337">
        <ele>98.200012207031</ele>
        <time>2015-06-13T09:46:37Z</time>
      </trkpt>
      <trkpt lat="49.35772" lon="1.47322">
        <ele>98.799987792969</ele>
        <time>2015-06-13T09:46:51Z</time>
      </trkpt>
      <trkpt lat="49.35739" lon="1.47302">
        <ele>99.400024414062</ele>
        <time>2015-06-13T09:47:03Z</time>
      </trkpt>
      <trkpt lat="49.35736" lon="1.47298">
        <ele>99.200012207031</ele>
        <time>2015-06-13T09:47:04Z</time>
      </trkpt>
      <trkpt lat="49.35732" lon="1.47293">
        <ele>99.400024414062</ele>
        <time>2015-06-13T09:47:05Z</time>
      </trkpt>
      <trkpt lat="49.35717" lon="1.47271">
        <ele>99</ele>
        <time>2015-06-13T09:47:09Z</time>
      </trkpt>
      <trkpt lat="49.35713" lon="1.47265">
        <ele>99</ele>
        <time>2015-06-13T09:47:10Z</time>
      </trkpt>
      <trkpt lat="49.35708" lon="1.47258">
        <ele>98.799987792969</ele>
        <time>2015-06-13T09:47:11Z</time>
      </trkpt>
      <trkpt lat="49.35669" lon="1.47218">
        <ele>97.400024414062</ele>
        <time>2015-06-13T09:47:19Z</time>
      </trkpt>
      <trkpt lat="49.35621" lon="1.47206">
        <ele>97</ele>
        <time>2015-06-13T09:47:27Z</time>
      </trkpt>
      <trkpt lat="49.35571" lon="1.47208">
        <ele>95.799987792969</ele>
        <time>2015-06-13T09:47:35Z</time>
      </trkpt>
      <trkpt lat="49.35523" lon="1.47192">
        <ele>96.799987792969</ele>
        <time>2015-06-13T09:47:43Z</time>
      </trkpt>
      <trkpt lat="49.35499" lon="1.47179">
        <ele>94.799987792969</ele>
        <time>2015-06-13T09:47:47Z</time>
      </trkpt>
      <trkpt lat="49.35452" lon="1.4715">
        <ele>93.799987792969</ele>
        <time>2015-06-13T09:47:55Z</time>
      </trkpt>
      <trkpt lat="49.35416" lon="1.47136">
        <ele>93.200012207031</ele>
        <time>2015-06-13T09:48:01Z</time>
      </trkpt>
      <trkpt lat="49.3541" lon="1.47134">
        <ele>93</ele>
        <time>2015-06-13T09:48:02Z</time>
      </trkpt>
      <trkpt lat="49.35362" lon="1.47125">
        <ele>92.200012207031</ele>
        <time>2015-06-13T09:48:10Z</time>
      </trkpt>
      <trkpt lat="49.35356" lon="1.47124">
        <ele>92</ele>
        <time>2015-06-13T09:48:11Z</time>
      </trkpt>
      <trkpt lat="49.35351" lon="1.4712">
        <ele>91.799987792969</ele>
        <time>2015-06-13T09:48:12Z</time>
      </trkpt>
      <trkpt lat="49.35346" lon="1.47116">
        <ele>92</ele>
        <time>2015-06-13T09:48:13Z</time>
      </trkpt>
      <trkpt lat="49.35341" lon="1.4711">
        <ele>91.799987792969</ele>
        <time>2015-06-13T09:48:14Z</time>
      </trkpt>
      <trkpt lat="49.35338" lon="1.47104">
        <ele>91.599975585938</ele>
        <time>2015-06-13T09:48:15Z</time>
      </trkpt>
      <trkpt lat="49.35334" lon="1.47096">
        <ele>91.599975585938</ele>
        <time>2015-06-13T09:48:16Z</time>
      </trkpt>
      <trkpt lat="49.35331" lon="1.47088">
        <ele>91.400024414062</ele>
        <time>2015-06-13T09:48:17Z</time>
      </trkpt>
      <trkpt lat="49.35328" lon="1.47079">
        <ele>91.200012207031</ele>
        <time>2015-06-13T09:48:18Z</time>
      </trkpt>
      <trkpt lat="49.35326" lon="1.47071">
        <ele>90.799987792969</ele>
        <time>2015-06-13T09:48:19Z</time>
      </trkpt>
      <trkpt lat="49.35309" lon="1.4702">
        <ele>90</ele>
        <time>2015-06-13T09:48:25Z</time>
      </trkpt>
      <trkpt lat="49.35306" lon="1.47013">
        <ele>90.200012207031</ele>
        <time>2015-06-13T09:48:26Z</time>
      </trkpt>
      <trkpt lat="49.35301" lon="1.47007">
        <ele>90.200012207031</ele>
        <time>2015-06-13T09:48:27Z</time>
      </trkpt>
      <trkpt lat="49.35295" lon="1.47003">
        <ele>90.200012207031</ele>
        <time>2015-06-13T09:48:28Z</time>
      </trkpt>
      <trkpt lat="49.3529" lon="1.47">
        <ele>90.400024414062</ele>
        <time>2015-06-13T09:48:29Z</time>
      </trkpt>
      <trkpt lat="49.35284" lon="1.46998">
        <ele>90.599975585938</ele>
        <time>2015-06-13T09:48:30Z</time>
      </trkpt>
      <trkpt lat="49.35277" lon="1.46994">
        <ele>90.599975585938</ele>
        <time>2015-06-13T09:48:31Z</time>
      </trkpt>
      <trkpt lat="49.35271" lon="1.46994">
        <ele>90.400024414062</ele>
        <time>2015-06-13T09:48:32Z</time>
      </trkpt>
      <trkpt lat="49.35266" lon="1.46995">
        <ele>90.400024414062</ele>
        <time>2015-06-13T09:48:33Z</time>
      </trkpt>
      <trkpt lat="49.35261" lon="1.46996">
        <ele>90.200012207031</ele>
        <time>2015-06-13T09:48:34Z</time>
      </trkpt>
      <trkpt lat="49.35214" lon="1.47017">
        <ele>90.599975585938</ele>
        <time>2015-06-13T09:48:43Z</time>
      </trkpt>
      <trkpt lat="49.3521" lon="1.47022">
        <ele>90.599975585938</ele>
        <time>2015-06-13T09:48:44Z</time>
      </trkpt>
      <trkpt lat="49.35206" lon="1.47027">
        <ele>90.599975585938</ele>
        <time>2015-06-13T09:48:45Z</time>
      </trkpt>
      <trkpt lat="49.35202" lon="1.47032">
        <ele>90.400024414062</ele>
        <time>2015-06-13T09:48:46Z</time>
      </trkpt>
      <trkpt lat="49.35198" lon="1.47038">
        <ele>90.400024414062</ele>
        <time>2015-06-13T09:48:47Z</time>
      </trkpt>
      <trkpt lat="49.35162" lon="1.47089">
        <ele>90.200012207031</ele>
        <time>2015-06-13T09:48:57Z</time>
      </trkpt>
      <trkpt lat="49.35137" lon="1.47122">
        <ele>89.599975585938</ele>
        <time>2015-06-13T09:49:03Z</time>
      </trkpt>
      <trkpt lat="49.35102" lon="1.4715">
        <ele>90.400024414062</ele>
        <time>2015-06-13T09:49:11Z</time>
      </trkpt>
      <trkpt lat="49.35097" lon="1.47151">
        <ele>89.799987792969</ele>
        <time>2015-06-13T09:49:12Z</time>
      </trkpt>
      <trkpt lat="49.35093" lon="1.47148">
        <ele>89.599975585938</ele>
        <time>2015-06-13T09:49:13Z</time>
      </trkpt>
      <trkpt lat="49.35091" lon="1.47143">
        <ele>89.599975585938</ele>
        <time>2015-06-13T09:49:14Z</time>
      </trkpt>
      <trkpt lat="49.35089" lon="1.47137">
        <ele>90</ele>
        <time>2015-06-13T09:49:15Z</time>
      </trkpt>
      <trkpt lat="49.3508" lon="1.47111">
        <ele>90.799987792969</ele>
        <time>2015-06-13T09:49:19Z</time>
      </trkpt>
      <trkpt lat="49.35057" lon="1.47041">
        <ele>89.400024414062</ele>
        <time>2015-06-13T09:49:29Z</time>
      </trkpt>
      <trkpt lat="49.35033" lon="1.46969">
        <ele>89</ele>
        <time>2015-06-13T09:49:39Z</time>
      </trkpt>
      <trkpt lat="49.35005" lon="1.46901">
        <ele>90.200012207031</ele>
        <time>2015-06-13T09:49:49Z</time>
      </trkpt>
      <trkpt lat="49.34975" lon="1.4684">
        <ele>90</ele>
        <time>2015-06-13T09:49:58Z</time>
      </trkpt>
      <trkpt lat="49.3496" lon="1.46805">
        <ele>90.400024414062</ele>
        <time>2015-06-13T09:50:03Z</time>
      </trkpt>
      <trkpt lat="49.34923" lon="1.46755">
        <ele>90.400024414062</ele>
        <time>2015-06-13T09:50:12Z</time>
      </trkpt>
      <trkpt lat="49.34887" lon="1.46706">
        <ele>90.599975585938</ele>
        <time>2015-06-13T09:50:21Z</time>
      </trkpt>
      <trkpt lat="49.34884" lon="1.467">
        <ele>90.799987792969</ele>
        <time>2015-06-13T09:50:22Z</time>
      </trkpt>
      <trkpt lat="49.34881" lon="1.46694">
        <ele>91</ele>
        <time>2015-06-13T09:50:23Z</time>
      </trkpt>
      <trkpt lat="49.34875" lon="1.4668">
        <ele>90.799987792969</ele>
        <time>2015-06-13T09:50:25Z</time>
      </trkpt>
      <trkpt lat="49.34874" lon="1.46672">
        <ele>90.599975585938</ele>
        <time>2015-06-13T09:50:26Z</time>
      </trkpt>
      <trkpt lat="49.34872" lon="1.46657">
        <ele>90.400024414062</ele>
        <time>2015-06-13T09:50:28Z</time>
      </trkpt>
      <trkpt lat="49.34872" lon="1.46648">
        <ele>90.799987792969</ele>
        <time>2015-06-13T09:50:29Z</time>
      </trkpt>
      <trkpt lat="49.3487" lon="1.4658">
        <ele>89</ele>
        <time>2015-06-13T09:50:37Z</time>
      </trkpt>
      <trkpt lat="49.34862" lon="1.46502">
        <ele>88.200012207031</ele>
        <time>2015-06-13T09:50:46Z</time>
      </trkpt>
      <trkpt lat="49.34852" lon="1.4643">
        <ele>87.799987792969</ele>
        <time>2015-06-13T09:50:54Z</time>
      </trkpt>
      <trkpt lat="49.34842" lon="1.46357">
        <ele>87.599975585938</ele>
        <time>2015-06-13T09:51:02Z</time>
      </trkpt>
      <trkpt lat="49.34835" lon="1.46278">
        <ele>87.400024414062</ele>
        <time>2015-06-13T09:51:11Z</time>
      </trkpt>
      <trkpt lat="49.34839" lon="1.46204">
        <ele>87.400024414062</ele>
        <time>2015-06-13T09:51:19Z</time>
      </trkpt>
      <trkpt lat="49.34843" lon="1.46187">
        <ele>87.200012207031</ele>
        <time>2015-06-13T09:51:21Z</time>
      </trkpt>
      <trkpt lat="49.34866" lon="1.46117">
        <ele>87</ele>
        <time>2015-06-13T09:51:30Z</time>
      </trkpt>
      <trkpt lat="49.34892" lon="1.46049">
        <ele>86.599975585938</ele>
        <time>2015-06-13T09:51:39Z</time>
      </trkpt>
      <trkpt lat="49.34917" lon="1.45987">
        <ele>85.799987792969</ele>
        <time>2015-06-13T09:51:47Z</time>
      </trkpt>
      <trkpt lat="49.34944" lon="1.45925">
        <ele>86.799987792969</ele>
        <time>2015-06-13T09:51:56Z</time>
      </trkpt>
      <trkpt lat="49.34968" lon="1.45862">
        <ele>88.200012207031</ele>
        <time>2015-06-13T09:52:06Z</time>
      </trkpt>
      <trkpt lat="49.3498" lon="1.45844">
        <ele>88</ele>
        <time>2015-06-13T09:52:09Z</time>
      </trkpt>
      <trkpt lat="49.35021" lon="1.45804">
        <ele>88</ele>
        <time>2015-06-13T09:52:17Z</time>
      </trkpt>
      <trkpt lat="49.35058" lon="1.45766">
        <ele>86.200012207031</ele>
        <time>2015-06-13T09:52:25Z</time>
      </trkpt>
      <trkpt lat="49.35061" lon="1.45759">
        <ele>86</ele>
        <time>2015-06-13T09:52:26Z</time>
      </trkpt>
      <trkpt lat="49.35063" lon="1.45752">
        <ele>86</ele>
        <time>2015-06-13T09:52:27Z</time>
      </trkpt>
      <trkpt lat="49.35065" lon="1.45745">
        <ele>85.799987792969</ele>
        <time>2015-06-13T09:52:28Z</time>
      </trkpt>
      <trkpt lat="49.35068" lon="1.45739">
        <ele>85.599975585938</ele>
        <time>2015-06-13T09:52:29Z</time>
      </trkpt>
      <trkpt lat="49.35071" lon="1.45733">
        <ele>85.400024414062</ele>
        <time>2015-06-13T09:52:30Z</time>
      </trkpt>
      <trkpt lat="49.35075" lon="1.45729">
        <ele>85.400024414062</ele>
        <time>2015-06-13T09:52:31Z</time>
      </trkpt>
      <trkpt lat="49.3508" lon="1.45726">
        <ele>85.400024414062</ele>
        <time>2015-06-13T09:52:32Z</time>
      </trkpt>
      <trkpt lat="49.35085" lon="1.45725">
        <ele>85.599975585938</ele>
        <time>2015-06-13T09:52:33Z</time>
      </trkpt>
      <trkpt lat="49.35091" lon="1.45724">
        <ele>85.599975585938</ele>
        <time>2015-06-13T09:52:34Z</time>
      </trkpt>
      <trkpt lat="49.35097" lon="1.45723">
        <ele>85.799987792969</ele>
        <time>2015-06-13T09:52:35Z</time>
      </trkpt>
      <trkpt lat="49.35103" lon="1.45724">
        <ele>85.799987792969</ele>
        <time>2015-06-13T09:52:36Z</time>
      </trkpt>
      <trkpt lat="49.35155" lon="1.45736">
        <ele>85.599975585938</ele>
        <time>2015-06-13T09:52:45Z</time>
      </trkpt>
      <trkpt lat="49.35202" lon="1.45739">
        <ele>86</ele>
        <time>2015-06-13T09:52:54Z</time>
      </trkpt>
      <trkpt lat="49.35206" lon="1.45735">
        <ele>86.200012207031</ele>
        <time>2015-06-13T09:52:55Z</time>
      </trkpt>
      <trkpt lat="49.35209" lon="1.45729">
        <ele>86.200012207031</ele>
        <time>2015-06-13T09:52:56Z</time>
      </trkpt>
      <trkpt lat="49.3521" lon="1.45721">
        <ele>86.200012207031</ele>
        <time>2015-06-13T09:52:57Z</time>
      </trkpt>
      <trkpt lat="49.35211" lon="1.45711">
        <ele>85.799987792969</ele>
        <time>2015-06-13T09:52:58Z</time>
      </trkpt>
      <trkpt lat="49.35211" lon="1.45702">
        <ele>85.200012207031</ele>
        <time>2015-06-13T09:52:59Z</time>
      </trkpt>
      <trkpt lat="49.35211" lon="1.45692">
        <ele>85</ele>
        <time>2015-06-13T09:53:00Z</time>
      </trkpt>
      <trkpt lat="49.3521" lon="1.4561">
        <ele>84.799987792969</ele>
        <time>2015-06-13T09:53:09Z</time>
      </trkpt>
      <trkpt lat="49.35204" lon="1.45568">
        <ele>84.400024414062</ele>
        <time>2015-06-13T09:53:14Z</time>
      </trkpt>
      <trkpt lat="49.35203" lon="1.4556">
        <ele>84.200012207031</ele>
        <time>2015-06-13T09:53:15Z</time>
      </trkpt>
      <trkpt lat="49.352" lon="1.45517">
        <ele>84</ele>
        <time>2015-06-13T09:53:20Z</time>
      </trkpt>
      <trkpt lat="49.35198" lon="1.455">
        <ele>84.200012207031</ele>
        <time>2015-06-13T09:53:22Z</time>
      </trkpt>
      <trkpt lat="49.35191" lon="1.45421">
        <ele>83.200012207031</ele>
        <time>2015-06-13T09:53:31Z</time>
      </trkpt>
      <trkpt lat="49.35183" lon="1.45342">
        <ele>83.599975585938</ele>
        <time>2015-06-13T09:53:40Z</time>
      </trkpt>
      <trkpt lat="49.35177" lon="1.45264">
        <ele>83.599975585938</ele>
        <time>2015-06-13T09:53:49Z</time>
      </trkpt>
      <trkpt lat="49.35171" lon="1.4519">
        <ele>83.400024414062</ele>
        <time>2015-06-13T09:53:58Z</time>
      </trkpt>
      <trkpt lat="49.35168" lon="1.45148">
        <ele>84.799987792969</ele>
        <time>2015-06-13T09:54:03Z</time>
      </trkpt>
      <trkpt lat="49.35166" lon="1.45123">
        <ele>84.599975585938</ele>
        <time>2015-06-13T09:54:06Z</time>
      </trkpt>
      <trkpt lat="49.3516" lon="1.45045">
        <ele>85.400024414062</ele>
        <time>2015-06-13T09:54:15Z</time>
      </trkpt>
      <trkpt lat="49.35153" lon="1.44963">
        <ele>87</ele>
        <time>2015-06-13T09:54:24Z</time>
      </trkpt>
      <trkpt lat="49.35144" lon="1.44886">
        <ele>87.599975585938</ele>
        <time>2015-06-13T09:54:33Z</time>
      </trkpt>
      <trkpt lat="49.35138" lon="1.44812">
        <ele>86</ele>
        <time>2015-06-13T09:54:48Z</time>
      </trkpt>
      <trkpt lat="49.35132" lon="1.44801">
        <ele>85.400024414062</ele>
        <time>2015-06-13T09:55:00Z</time>
      </trkpt>
      <trkpt lat="49.3513" lon="1.448">
        <ele>85.400024414062</ele>
        <time>2015-06-13T09:55:01Z</time>
      </trkpt>
      <trkpt lat="49.35126" lon="1.44796">
        <ele>85.200012207031</ele>
        <time>2015-06-13T09:55:03Z</time>
      </trkpt>
      <trkpt lat="49.35123" lon="1.44792">
        <ele>85.200012207031</ele>
        <time>2015-06-13T09:55:04Z</time>
      </trkpt>
      <trkpt lat="49.35113" lon="1.44774">
        <ele>85</ele>
        <time>2015-06-13T09:55:08Z</time>
      </trkpt>
      <trkpt lat="49.35102" lon="1.44757">
        <ele>84.599975585938</ele>
        <time>2015-06-13T09:55:12Z</time>
      </trkpt>
      <trkpt lat="49.35089" lon="1.44734">
        <ele>84.400024414062</ele>
        <time>2015-06-13T09:55:16Z</time>
      </trkpt>
      <trkpt lat="49.35056" lon="1.4468">
        <ele>84</ele>
        <time>2015-06-13T09:55:26Z</time>
      </trkpt>
      <trkpt lat="49.35044" lon="1.44658">
        <ele>82.400024414062</ele>
        <time>2015-06-13T09:55:30Z</time>
      </trkpt>
      <trkpt lat="49.35015" lon="1.44599">
        <ele>81.400024414062</ele>
        <time>2015-06-13T09:55:39Z</time>
      </trkpt>
      <trkpt lat="49.35009" lon="1.44583">
        <ele>80</ele>
        <time>2015-06-13T09:55:42Z</time>
      </trkpt>
      <trkpt lat="49.3503" lon="1.44516">
        <ele>80</ele>
        <time>2015-06-13T09:55:55Z</time>
      </trkpt>
      <trkpt lat="49.35061" lon="1.44459">
        <ele>79.599975585938</ele>
        <time>2015-06-13T09:56:06Z</time>
      </trkpt>
      <trkpt lat="49.35064" lon="1.44455">
        <ele>79.400024414062</ele>
        <time>2015-06-13T09:56:07Z</time>
      </trkpt>
      <trkpt lat="49.35067" lon="1.44452">
        <ele>79.200012207031</ele>
        <time>2015-06-13T09:56:08Z</time>
      </trkpt>
      <trkpt lat="49.3507" lon="1.44453">
        <ele>79.200012207031</ele>
        <time>2015-06-13T09:56:09Z</time>
      </trkpt>
      <trkpt lat="49.35073" lon="1.44456">
        <ele>79.200012207031</ele>
        <time>2015-06-13T09:56:10Z</time>
      </trkpt>
      <trkpt lat="49.35076" lon="1.44458">
        <ele>79.200012207031</ele>
        <time>2015-06-13T09:56:11Z</time>
      </trkpt>
      <trkpt lat="49.3511" lon="1.4447">
        <ele>82.599975585938</ele>
        <time>2015-06-13T09:56:20Z</time>
      </trkpt>
      <trkpt lat="49.35129" lon="1.44469">
        <ele>85.599975585938</ele>
        <time>2015-06-13T09:56:25Z</time>
      </trkpt>
      <trkpt lat="49.35146" lon="1.44469">
        <ele>89</ele>
        <time>2015-06-13T09:56:30Z</time>
      </trkpt>
      <trkpt lat="49.35163" lon="1.44471">
        <ele>92.400024414062</ele>
        <time>2015-06-13T09:56:35Z</time>
      </trkpt>
      <trkpt lat="49.35178" lon="1.44475">
        <ele>95.599975585938</ele>
        <time>2015-06-13T09:56:40Z</time>
      </trkpt>
      <trkpt lat="49.35197" lon="1.44481">
        <ele>99</ele>
        <time>2015-06-13T09:56:46Z</time>
      </trkpt>
      <trkpt lat="49.35219" lon="1.44481">
        <ele>102.20001220703</ele>
        <time>2015-06-13T09:56:51Z</time>
      </trkpt>
      <trkpt lat="49.35244" lon="1.44487">
        <ele>105.59997558594</ele>
        <time>2015-06-13T09:56:58Z</time>
      </trkpt>
      <trkpt lat="49.35273" lon="1.44494">
        <ele>108.59997558594</ele>
        <time>2015-06-13T09:57:10Z</time>
      </trkpt>
      <trkpt lat="49.35276" lon="1.44493">
        <ele>108.79998779297</ele>
        <time>2015-06-13T09:57:12Z</time>
      </trkpt>
      <trkpt lat="49.35277" lon="1.44491">
        <ele>108.79998779297</ele>
        <time>2015-06-13T09:57:13Z</time>
      </trkpt>
      <trkpt lat="49.35278" lon="1.44488">
        <ele>108.79998779297</ele>
        <time>2015-06-13T09:57:14Z</time>
      </trkpt>
      <trkpt lat="49.35278" lon="1.44486">
        <ele>108.79998779297</ele>
        <time>2015-06-13T09:57:15Z</time>
      </trkpt>
      <trkpt lat="49.35279" lon="1.44484">
        <ele>108.59997558594</ele>
        <time>2015-06-13T09:57:16Z</time>
      </trkpt>
      <trkpt lat="49.35279" lon="1.44483">
        <ele>108.40002441406</ele>
        <time>2015-06-13T09:57:18Z</time>
      </trkpt>
      <trkpt lat="49.35281" lon="1.44489">
        <ele>109.40002441406</ele>
        <time>2015-06-13T09:58:35Z</time>
      </trkpt>
      <trkpt lat="49.3528" lon="1.445">
        <ele>108.79998779297</ele>
        <time>2015-06-13T09:59:24Z</time>
      </trkpt>
      <trkpt lat="49.35281" lon="1.445">
        <ele>109</ele>
        <time>2015-06-13T09:59:25Z</time>
      </trkpt>
      <trkpt lat="49.35283" lon="1.44501">
        <ele>109.20001220703</ele>
        <time>2015-06-13T09:59:26Z</time>
      </trkpt>
      <trkpt lat="49.35284" lon="1.44501">
        <ele>109.40002441406</ele>
        <time>2015-06-13T09:59:27Z</time>
      </trkpt>
      <trkpt lat="49.35286" lon="1.44501">
        <ele>109.40002441406</ele>
        <time>2015-06-13T09:59:28Z</time>
      </trkpt>
      <trkpt lat="49.35288" lon="1.44501">
        <ele>109.59997558594</ele>
        <time>2015-06-13T09:59:29Z</time>
      </trkpt>
      <trkpt lat="49.3529" lon="1.44501">
        <ele>109.79998779297</ele>
        <time>2015-06-13T09:59:30Z</time>
      </trkpt>
      <trkpt lat="49.35292" lon="1.445">
        <ele>110.20001220703</ele>
        <time>2015-06-13T09:59:31Z</time>
      </trkpt>
      <trkpt lat="49.35316" lon="1.44494">
        <ele>113.40002441406</ele>
        <time>2015-06-13T09:59:43Z</time>
      </trkpt>
      <trkpt lat="49.35348" lon="1.44498">
        <ele>116.40002441406</ele>
        <time>2015-06-13T10:00:01Z</time>
      </trkpt>
      <trkpt lat="49.35375" lon="1.44503">
        <ele>119.40002441406</ele>
        <time>2015-06-13T10:00:16Z</time>
      </trkpt>
      <trkpt lat="49.35415" lon="1.44516">
        <ele>122.40002441406</ele>
        <time>2015-06-13T10:00:35Z</time>
      </trkpt>
      <trkpt lat="49.35468" lon="1.44521">
        <ele>125.20001220703</ele>
        <time>2015-06-13T10:00:56Z</time>
      </trkpt>
      <trkpt lat="49.35525" lon="1.44541">
        <ele>126.59997558594</ele>
        <time>2015-06-13T10:01:15Z</time>
      </trkpt>
      <trkpt lat="49.35579" lon="1.44553">
        <ele>127.79998779297</ele>
        <time>2015-06-13T10:01:35Z</time>
      </trkpt>
      <trkpt lat="49.35637" lon="1.44561">
        <ele>129.79998779297</ele>
        <time>2015-06-13T10:01:55Z</time>
      </trkpt>
      <trkpt lat="49.35694" lon="1.44574">
        <ele>132.59997558594</ele>
        <time>2015-06-13T10:02:15Z</time>
      </trkpt>
      <trkpt lat="49.35755" lon="1.44596">
        <ele>134.40002441406</ele>
        <time>2015-06-13T10:02:38Z</time>
      </trkpt>
      <trkpt lat="49.3582" lon="1.44607">
        <ele>135</ele>
        <time>2015-06-13T10:02:58Z</time>
      </trkpt>
      <trkpt lat="49.3588" lon="1.44615">
        <ele>136.20001220703</ele>
        <time>2015-06-13T10:03:15Z</time>
      </trkpt>
      <trkpt lat="49.3589" lon="1.44624">
        <ele>136.20001220703</ele>
        <time>2015-06-13T10:03:23Z</time>
      </trkpt>
      <trkpt lat="49.35949" lon="1.44655">
        <ele>138.40002441406</ele>
        <time>2015-06-13T10:03:54Z</time>
      </trkpt>
      <trkpt lat="49.36002" lon="1.44665">
        <ele>140</ele>
        <time>2015-06-13T10:04:14Z</time>
      </trkpt>
      <trkpt lat="49.36076" lon="1.44668">
        <ele>142</ele>
        <time>2015-06-13T10:04:35Z</time>
      </trkpt>
      <trkpt lat="49.36118" lon="1.4473">
        <ele>143.59997558594</ele>
        <time>2015-06-13T10:04:55Z</time>
      </trkpt>
      <trkpt lat="49.36128" lon="1.44785">
        <ele>143</ele>
        <time>2015-06-13T10:05:04Z</time>
      </trkpt>
      <trkpt lat="49.36144" lon="1.44863">
        <ele>141.79998779297</ele>
        <time>2015-06-13T10:05:15Z</time>
      </trkpt>
      <trkpt lat="49.36146" lon="1.44882">
        <ele>141.20001220703</ele>
        <time>2015-06-13T10:05:17Z</time>
      </trkpt>
      <trkpt lat="49.36153" lon="1.4497">
        <ele>139.20001220703</ele>
        <time>2015-06-13T10:05:25Z</time>
      </trkpt>
      <trkpt lat="49.36159" lon="1.45047">
        <ele>137</ele>
        <time>2015-06-13T10:05:32Z</time>
      </trkpt>
      <trkpt lat="49.36166" lon="1.45092">
        <ele>135</ele>
        <time>2015-06-13T10:05:37Z</time>
      </trkpt>
      <trkpt lat="49.36169" lon="1.45097">
        <ele>134.79998779297</ele>
        <time>2015-06-13T10:05:38Z</time>
      </trkpt>
      <trkpt lat="49.36173" lon="1.45102">
        <ele>134.79998779297</ele>
        <time>2015-06-13T10:05:39Z</time>
      </trkpt>
      <trkpt lat="49.3621" lon="1.45158">
        <ele>133.79998779297</ele>
        <time>2015-06-13T10:05:50Z</time>
      </trkpt>
      <trkpt lat="49.36242" lon="1.45217">
        <ele>134.59997558594</ele>
        <time>2015-06-13T10:06:02Z</time>
      </trkpt>
      <trkpt lat="49.36269" lon="1.45268">
        <ele>136.59997558594</ele>
        <time>2015-06-13T10:06:14Z</time>
      </trkpt>
      <trkpt lat="49.36307" lon="1.45313">
        <ele>138</ele>
        <time>2015-06-13T10:06:28Z</time>
      </trkpt>
      <trkpt lat="49.36343" lon="1.45363">
        <ele>139</ele>
        <time>2015-06-13T10:06:42Z</time>
      </trkpt>
      <trkpt lat="49.36379" lon="1.45424">
        <ele>140.79998779297</ele>
        <time>2015-06-13T10:06:57Z</time>
      </trkpt>
      <trkpt lat="49.36416" lon="1.45468">
        <ele>142.59997558594</ele>
        <time>2015-06-13T10:07:11Z</time>
      </trkpt>
      <trkpt lat="49.36453" lon="1.45523">
        <ele>144.59997558594</ele>
        <time>2015-06-13T10:07:26Z</time>
      </trkpt>
      <trkpt lat="49.36492" lon="1.45572">
        <ele>146.20001220703</ele>
        <time>2015-06-13T10:07:43Z</time>
      </trkpt>
      <trkpt lat="49.36549" lon="1.45604">
        <ele>149.20001220703</ele>
        <time>2015-06-13T10:07:59Z</time>
      </trkpt>
      <trkpt lat="49.36599" lon="1.45632">
        <ele>151.20001220703</ele>
        <time>2015-06-13T10:08:14Z</time>
      </trkpt>
      <trkpt lat="49.36647" lon="1.45667">
        <ele>154.59997558594</ele>
        <time>2015-06-13T10:08:30Z</time>
      </trkpt>
      <trkpt lat="49.3669" lon="1.45698">
        <ele>157.59997558594</ele>
        <time>2015-06-13T10:08:44Z</time>
      </trkpt>
      <trkpt lat="49.36732" lon="1.45741">
        <ele>160.79998779297</ele>
        <time>2015-06-13T10:08:59Z</time>
      </trkpt>
      <trkpt lat="49.36776" lon="1.45775">
        <ele>163.79998779297</ele>
        <time>2015-06-13T10:09:14Z</time>
      </trkpt>
      <trkpt lat="49.36819" lon="1.45828">
        <ele>166.59997558594</ele>
        <time>2015-06-13T10:09:31Z</time>
      </trkpt>
      <trkpt lat="49.36852" lon="1.45894">
        <ele>168.79998779297</ele>
        <time>2015-06-13T10:09:50Z</time>
      </trkpt>
      <trkpt lat="49.36857" lon="1.45915">
        <ele>169.59997558594</ele>
        <time>2015-06-13T10:09:58Z</time>
      </trkpt>
      <trkpt lat="49.36854" lon="1.45922">
        <ele>170.40002441406</ele>
        <time>2015-06-13T10:10:06Z</time>
      </trkpt>
      <trkpt lat="49.36852" lon="1.45919">
        <ele>170.79998779297</ele>
        <time>2015-06-13T10:10:17Z</time>
      </trkpt>
      <trkpt lat="49.36852" lon="1.45912">
        <ele>170.79998779297</ele>
        <time>2015-06-13T10:10:23Z</time>
      </trkpt>
      <trkpt lat="49.3685" lon="1.45909">
        <ele>170.79998779297</ele>
        <time>2015-06-13T10:10:26Z</time>
      </trkpt>
      <trkpt lat="49.36853" lon="1.45905">
        <ele>170.79998779297</ele>
        <time>2015-06-13T10:10:40Z</time>
      </trkpt>
      <trkpt lat="49.36853" lon="1.45913">
        <ele>170.59997558594</ele>
        <time>2015-06-13T10:10:49Z</time>
      </trkpt>
      <trkpt lat="49.36853" lon="1.45916">
        <ele>170.59997558594</ele>
        <time>2015-06-13T10:10:51Z</time>
      </trkpt>
      <trkpt lat="49.36852" lon="1.45918">
        <ele>169.79998779297</ele>
        <time>2015-06-13T10:11:02Z</time>
      </trkpt>
      <trkpt lat="49.36853" lon="1.45918">
        <ele>170</ele>
        <time>2015-06-13T10:11:08Z</time>
      </trkpt>
      <trkpt lat="49.36852" lon="1.45916">
        <ele>169.79998779297</ele>
        <time>2015-06-13T10:11:09Z</time>
      </trkpt>
      <trkpt lat="49.36849" lon="1.45881">
        <ele>168.40002441406</ele>
        <time>2015-06-13T10:11:36Z</time>
      </trkpt>
      <trkpt lat="49.36849" lon="1.45873">
        <ele>168.40002441406</ele>
        <time>2015-06-13T10:11:42Z</time>
      </trkpt>
      <trkpt lat="49.36847" lon="1.4587">
        <ele>168.59997558594</ele>
        <time>2015-06-13T10:11:43Z</time>
      </trkpt>
      <trkpt lat="49.36845" lon="1.45867">
        <ele>168.40002441406</ele>
        <time>2015-06-13T10:11:44Z</time>
      </trkpt>
      <trkpt lat="49.36867" lon="1.45818">
        <ele>169.59997558594</ele>
        <time>2015-06-13T10:12:03Z</time>
      </trkpt>
      <trkpt lat="49.36907" lon="1.45772">
        <ele>169.20001220703</ele>
        <time>2015-06-13T10:12:22Z</time>
      </trkpt>
      <trkpt lat="49.36948" lon="1.45711">
        <ele>170.40002441406</ele>
        <time>2015-06-13T10:12:40Z</time>
      </trkpt>
      <trkpt lat="49.37008" lon="1.45662">
        <ele>169.40002441406</ele>
        <time>2015-06-13T10:12:58Z</time>
      </trkpt>
      <trkpt lat="49.3707" lon="1.45658">
        <ele>170.20001220703</ele>
        <time>2015-06-13T10:13:15Z</time>
      </trkpt>
      <trkpt lat="49.37124" lon="1.45676">
        <ele>171.20001220703</ele>
        <time>2015-06-13T10:13:32Z</time>
      </trkpt>
      <trkpt lat="49.37177" lon="1.45695">
        <ele>171.40002441406</ele>
        <time>2015-06-13T10:13:49Z</time>
      </trkpt>
      <trkpt lat="49.37198" lon="1.45773">
        <ele>173.79998779297</ele>
        <time>2015-06-13T10:14:07Z</time>
      </trkpt>
      <trkpt lat="49.372" lon="1.45823">
        <ele>172</ele>
        <time>2015-06-13T10:14:14Z</time>
      </trkpt>
      <trkpt lat="49.372" lon="1.45832">
        <ele>172</ele>
        <time>2015-06-13T10:14:15Z</time>
      </trkpt>
      <trkpt lat="49.372" lon="1.45871">
        <ele>170.20001220703</ele>
        <time>2015-06-13T10:14:19Z</time>
      </trkpt>
      <trkpt lat="49.37203" lon="1.45889">
        <ele>168.79998779297</ele>
        <time>2015-06-13T10:14:21Z</time>
      </trkpt>
      <trkpt lat="49.37205" lon="1.45897">
        <ele>168.40002441406</ele>
        <time>2015-06-13T10:14:22Z</time>
      </trkpt>
      <trkpt lat="49.37205" lon="1.45905">
        <ele>167.79998779297</ele>
        <time>2015-06-13T10:14:23Z</time>
      </trkpt>
      <trkpt lat="49.37206" lon="1.45913">
        <ele>167.40002441406</ele>
        <time>2015-06-13T10:14:24Z</time>
      </trkpt>
      <trkpt lat="49.37206" lon="1.45922">
        <ele>167</ele>
        <time>2015-06-13T10:14:25Z</time>
      </trkpt>
      <trkpt lat="49.37206" lon="1.45945">
        <ele>164.59997558594</ele>
        <time>2015-06-13T10:14:28Z</time>
      </trkpt>
      <trkpt lat="49.37208" lon="1.45952">
        <ele>164.59997558594</ele>
        <time>2015-06-13T10:14:29Z</time>
      </trkpt>
      <trkpt lat="49.37209" lon="1.46042">
        <ele>166</ele>
        <time>2015-06-13T10:14:49Z</time>
      </trkpt>
      <trkpt lat="49.37221" lon="1.46072">
        <ele>167</ele>
        <time>2015-06-13T10:15:03Z</time>
      </trkpt>
      <trkpt lat="49.37223" lon="1.46073">
        <ele>166.79998779297</ele>
        <time>2015-06-13T10:15:04Z</time>
      </trkpt>
      <trkpt lat="49.37225" lon="1.46075">
        <ele>166.59997558594</ele>
        <time>2015-06-13T10:15:08Z</time>
      </trkpt>
      <trkpt lat="49.37231" lon="1.46089">
        <ele>166.59997558594</ele>
        <time>2015-06-13T10:15:39Z</time>
      </trkpt>
      <trkpt lat="49.37233" lon="1.46089">
        <ele>166.59997558594</ele>
        <time>2015-06-13T10:15:40Z</time>
      </trkpt>
      <trkpt lat="49.37234" lon="1.46091">
        <ele>166.59997558594</ele>
        <time>2015-06-13T10:15:44Z</time>
      </trkpt>
      <trkpt lat="49.37234" lon="1.46092">
        <ele>166.59997558594</ele>
        <time>2015-06-13T10:15:45Z</time>
      </trkpt>
      <trkpt lat="49.37236" lon="1.46093">
        <ele>166.40002441406</ele>
        <time>2015-06-13T10:15:47Z</time>
      </trkpt>
      <trkpt lat="49.37237" lon="1.46093">
        <ele>166.40002441406</ele>
        <time>2015-06-13T10:15:48Z</time>
      </trkpt>
      <trkpt lat="49.37238" lon="1.46094">
        <ele>166.40002441406</ele>
        <time>2015-06-13T10:15:51Z</time>
      </trkpt>
      <trkpt lat="49.37235" lon="1.46096">
        <ele>166.59997558594</ele>
        <time>2015-06-13T10:16:06Z</time>
      </trkpt>
      <trkpt lat="49.37236" lon="1.46095">
        <ele>166.59997558594</ele>
        <time>2015-06-13T10:16:07Z</time>
      </trkpt>
      <trkpt lat="49.37268" lon="1.46082">
        <ele>164.40002441406</ele>
        <time>2015-06-13T10:16:16Z</time>
      </trkpt>
      <trkpt lat="49.37273" lon="1.46082">
        <ele>164.40002441406</ele>
        <time>2015-06-13T10:16:17Z</time>
      </trkpt>
      <trkpt lat="49.37314" lon="1.46078">
        <ele>160</ele>
        <time>2015-06-13T10:16:24Z</time>
      </trkpt>
      <trkpt lat="49.37342" lon="1.46073">
        <ele>155.79998779297</ele>
        <time>2015-06-13T10:16:28Z</time>
      </trkpt>
      <trkpt lat="49.37359" lon="1.4607">
        <ele>153.40002441406</ele>
        <time>2015-06-13T10:16:31Z</time>
      </trkpt>
      <trkpt lat="49.37362" lon="1.46067">
        <ele>153</ele>
        <time>2015-06-13T10:16:32Z</time>
      </trkpt>
      <trkpt lat="49.37364" lon="1.46065">
        <ele>152</ele>
        <time>2015-06-13T10:16:33Z</time>
      </trkpt>
      <trkpt lat="49.37365" lon="1.46062">
        <ele>151.40002441406</ele>
        <time>2015-06-13T10:16:34Z</time>
      </trkpt>
      <trkpt lat="49.37367" lon="1.46058">
        <ele>151</ele>
        <time>2015-06-13T10:16:35Z</time>
      </trkpt>
      <trkpt lat="49.37378" lon="1.46036">
        <ele>150.20001220703</ele>
        <time>2015-06-13T10:16:39Z</time>
      </trkpt>
      <trkpt lat="49.37381" lon="1.46029">
        <ele>149.79998779297</ele>
        <time>2015-06-13T10:16:40Z</time>
      </trkpt>
      <trkpt lat="49.37406" lon="1.45979">
        <ele>146.20001220703</ele>
        <time>2015-06-13T10:16:46Z</time>
      </trkpt>
      <trkpt lat="49.37438" lon="1.45918">
        <ele>142.59997558594</ele>
        <time>2015-06-13T10:16:52Z</time>
      </trkpt>
      <trkpt lat="49.37454" lon="1.4587">
        <ele>139.59997558594</ele>
        <time>2015-06-13T10:16:56Z</time>
      </trkpt>
      <trkpt lat="49.37462" lon="1.45846">
        <ele>138.79998779297</ele>
        <time>2015-06-13T10:16:58Z</time>
      </trkpt>
      <trkpt lat="49.3748" lon="1.45768">
        <ele>136.79998779297</ele>
        <time>2015-06-13T10:17:04Z</time>
      </trkpt>
      <trkpt lat="49.37492" lon="1.45717">
        <ele>133.40002441406</ele>
        <time>2015-06-13T10:17:08Z</time>
      </trkpt>
      <trkpt lat="49.37495" lon="1.45706">
        <ele>133.20001220703</ele>
        <time>2015-06-13T10:17:09Z</time>
      </trkpt>
      <trkpt lat="49.37511" lon="1.45656">
        <ele>129.59997558594</ele>
        <time>2015-06-13T10:17:13Z</time>
      </trkpt>
      <trkpt lat="49.37531" lon="1.4561">
        <ele>126</ele>
        <time>2015-06-13T10:17:17Z</time>
      </trkpt>
      <trkpt lat="49.37552" lon="1.45576">
        <ele>122.79998779297</ele>
        <time>2015-06-13T10:17:21Z</time>
      </trkpt>
      <trkpt lat="49.37576" lon="1.4555">
        <ele>120.40002441406</ele>
        <time>2015-06-13T10:17:25Z</time>
      </trkpt>
      <trkpt lat="49.37621" lon="1.4551">
        <ele>117</ele>
        <time>2015-06-13T10:17:33Z</time>
      </trkpt>
      <trkpt lat="49.3763" lon="1.45506">
        <ele>115.59997558594</ele>
        <time>2015-06-13T10:17:36Z</time>
      </trkpt>
      <trkpt lat="49.37648" lon="1.45505">
        <ele>115</ele>
        <time>2015-06-13T10:17:42Z</time>
      </trkpt>
      <trkpt lat="49.37649" lon="1.45508">
        <ele>114.59997558594</ele>
        <time>2015-06-13T10:17:45Z</time>
      </trkpt>
      <trkpt lat="49.37648" lon="1.45522">
        <ele>115.59997558594</ele>
        <time>2015-06-13T10:17:53Z</time>
      </trkpt>
      <trkpt lat="49.37646" lon="1.45526">
        <ele>115.20001220703</ele>
        <time>2015-06-13T10:17:54Z</time>
      </trkpt>
      <trkpt lat="49.37646" lon="1.45528">
        <ele>115.20001220703</ele>
        <time>2015-06-13T10:17:55Z</time>
      </trkpt>
      <trkpt lat="49.37644" lon="1.4553">
        <ele>115.20001220703</ele>
        <time>2015-06-13T10:17:56Z</time>
      </trkpt>
      <trkpt lat="49.37644" lon="1.45531">
        <ele>115.40002441406</ele>
        <time>2015-06-13T10:17:57Z</time>
      </trkpt>
      <trkpt lat="49.37636" lon="1.45541">
        <ele>117.20001220703</ele>
        <time>2015-06-13T10:18:11Z</time>
      </trkpt>
      <trkpt lat="49.37634" lon="1.45543">
        <ele>117.20001220703</ele>
        <time>2015-06-13T10:18:14Z</time>
      </trkpt>
      <trkpt lat="49.37633" lon="1.45543">
        <ele>117.20001220703</ele>
        <time>2015-06-13T10:18:19Z</time>
      </trkpt>
      <trkpt lat="49.37634" lon="1.45545">
        <ele>117.40002441406</ele>
        <time>2015-06-13T10:18:33Z</time>
      </trkpt>
      <trkpt lat="49.37634" lon="1.45544">
        <ele>117.40002441406</ele>
        <time>2015-06-13T10:18:37Z</time>
      </trkpt>
      <trkpt lat="49.37634" lon="1.45542">
        <ele>117.40002441406</ele>
        <time>2015-06-13T10:18:38Z</time>
      </trkpt>
      <trkpt lat="49.37636" lon="1.45543">
        <ele>116.40002441406</ele>
        <time>2015-06-13T10:19:00Z</time>
      </trkpt>
      <trkpt lat="49.37637" lon="1.45539">
        <ele>115.79998779297</ele>
        <time>2015-06-13T10:19:06Z</time>
      </trkpt>
      <trkpt lat="49.37637" lon="1.45537">
        <ele>115.79998779297</ele>
        <time>2015-06-13T10:19:07Z</time>
      </trkpt>
      <trkpt lat="49.37636" lon="1.45535">
        <ele>115.79998779297</ele>
        <time>2015-06-13T10:19:08Z</time>
      </trkpt>
      <trkpt lat="49.37635" lon="1.45533">
        <ele>115.79998779297</ele>
        <time>2015-06-13T10:19:09Z</time>
      </trkpt>
      <trkpt lat="49.37635" lon="1.45531">
        <ele>115.59997558594</ele>
        <time>2015-06-13T10:19:10Z</time>
      </trkpt>
      <trkpt lat="49.37638" lon="1.45521">
        <ele>116</ele>
        <time>2015-06-13T10:19:12Z</time>
      </trkpt>
      <trkpt lat="49.37639" lon="1.45517">
        <ele>116.20001220703</ele>
        <time>2015-06-13T10:19:13Z</time>
      </trkpt>
      <trkpt lat="49.37639" lon="1.45513">
        <ele>116.20001220703</ele>
        <time>2015-06-13T10:19:14Z</time>
      </trkpt>
      <trkpt lat="49.37623" lon="1.4546">
        <ele>113</ele>
        <time>2015-06-13T10:19:28Z</time>
      </trkpt>
      <trkpt lat="49.37597" lon="1.45374">
        <ele>111.59997558594</ele>
        <time>2015-06-13T10:19:37Z</time>
      </trkpt>
      <trkpt lat="49.37587" lon="1.45344">
        <ele>110.20001220703</ele>
        <time>2015-06-13T10:19:40Z</time>
      </trkpt>
      <trkpt lat="49.37571" lon="1.45284">
        <ele>110.59997558594</ele>
        <time>2015-06-13T10:19:46Z</time>
      </trkpt>
      <trkpt lat="49.37535" lon="1.45212">
        <ele>107.59997558594</ele>
        <time>2015-06-13T10:19:55Z</time>
      </trkpt>
      <trkpt lat="49.37528" lon="1.45196">
        <ele>107.20001220703</ele>
        <time>2015-06-13T10:19:57Z</time>
      </trkpt>
      <trkpt lat="49.37524" lon="1.45186">
        <ele>106.59997558594</ele>
        <time>2015-06-13T10:19:58Z</time>
      </trkpt>
      <trkpt lat="49.37521" lon="1.45178">
        <ele>106.20001220703</ele>
        <time>2015-06-13T10:19:59Z</time>
      </trkpt>
      <trkpt lat="49.37519" lon="1.4517">
        <ele>105.79998779297</ele>
        <time>2015-06-13T10:20:00Z</time>
      </trkpt>
      <trkpt lat="49.37518" lon="1.45161">
        <ele>105.40002441406</ele>
        <time>2015-06-13T10:20:01Z</time>
      </trkpt>
      <trkpt lat="49.37517" lon="1.45153">
        <ele>105.20001220703</ele>
        <time>2015-06-13T10:20:02Z</time>
      </trkpt>
      <trkpt lat="49.37517" lon="1.45144">
        <ele>105.20001220703</ele>
        <time>2015-06-13T10:20:03Z</time>
      </trkpt>
      <trkpt lat="49.37517" lon="1.45134">
        <ele>105.20001220703</ele>
        <time>2015-06-13T10:20:04Z</time>
      </trkpt>
      <trkpt lat="49.37518" lon="1.45124">
        <ele>105.20001220703</ele>
        <time>2015-06-13T10:20:05Z</time>
      </trkpt>
      <trkpt lat="49.37519" lon="1.45115">
        <ele>105.20001220703</ele>
        <time>2015-06-13T10:20:06Z</time>
      </trkpt>
      <trkpt lat="49.37529" lon="1.45036">
        <ele>103.20001220703</ele>
        <time>2015-06-13T10:20:15Z</time>
      </trkpt>
      <trkpt lat="49.3753" lon="1.45028">
        <ele>103</ele>
        <time>2015-06-13T10:20:16Z</time>
      </trkpt>
      <trkpt lat="49.37541" lon="1.4495">
        <ele>103</ele>
        <time>2015-06-13T10:20:25Z</time>
      </trkpt>
      <trkpt lat="49.37552" lon="1.44871">
        <ele>100.79998779297</ele>
        <time>2015-06-13T10:20:34Z</time>
      </trkpt>
      <trkpt lat="49.3756" lon="1.4481">
        <ele>100</ele>
        <time>2015-06-13T10:20:41Z</time>
      </trkpt>
      <trkpt lat="49.37574" lon="1.44727">
        <ele>99.599975585938</ele>
        <time>2015-06-13T10:20:49Z</time>
      </trkpt>
      <trkpt lat="49.3758" lon="1.44679">
        <ele>97</ele>
        <time>2015-06-13T10:20:54Z</time>
      </trkpt>
      <trkpt lat="49.37582" lon="1.44671">
        <ele>96.799987792969</ele>
        <time>2015-06-13T10:20:55Z</time>
      </trkpt>
      <trkpt lat="49.3759" lon="1.44613">
        <ele>94.799987792969</ele>
        <time>2015-06-13T10:21:06Z</time>
      </trkpt>
      <trkpt lat="49.3759" lon="1.44611">
        <ele>94.799987792969</ele>
        <time>2015-06-13T10:21:07Z</time>
      </trkpt>
      <trkpt lat="49.37588" lon="1.44614">
        <ele>94.799987792969</ele>
        <time>2015-06-13T10:21:09Z</time>
      </trkpt>
      <trkpt lat="49.37585" lon="1.4465">
        <ele>95.200012207031</ele>
        <time>2015-06-13T10:21:17Z</time>
      </trkpt>
      <trkpt lat="49.37586" lon="1.44653">
        <ele>95.400024414062</ele>
        <time>2015-06-13T10:21:18Z</time>
      </trkpt>
      <trkpt lat="49.37587" lon="1.44656">
        <ele>95.599975585938</ele>
        <time>2015-06-13T10:21:19Z</time>
      </trkpt>
      <trkpt lat="49.37589" lon="1.44659">
        <ele>95.799987792969</ele>
        <time>2015-06-13T10:21:20Z</time>
      </trkpt>
      <trkpt lat="49.37591" lon="1.4466">
        <ele>95.799987792969</ele>
        <time>2015-06-13T10:21:21Z</time>
      </trkpt>
      <trkpt lat="49.37594" lon="1.44661">
        <ele>95.599975585938</ele>
        <time>2015-06-13T10:21:22Z</time>
      </trkpt>
      <trkpt lat="49.37597" lon="1.44663">
        <ele>95.799987792969</ele>
        <time>2015-06-13T10:21:23Z</time>
      </trkpt>
      <trkpt lat="49.37619" lon="1.44681">
        <ele>99</ele>
        <time>2015-06-13T10:21:34Z</time>
      </trkpt>
      <trkpt lat="49.37629" lon="1.44699">
        <ele>102</ele>
        <time>2015-06-13T10:21:42Z</time>
      </trkpt>
      <trkpt lat="49.3764" lon="1.44714">
        <ele>105.20001220703</ele>
        <time>2015-06-13T10:21:50Z</time>
      </trkpt>
      <trkpt lat="49.37654" lon="1.44735">
        <ele>108.40002441406</ele>
        <time>2015-06-13T10:22:02Z</time>
      </trkpt>
      <trkpt lat="49.37666" lon="1.44763">
        <ele>110.79998779297</ele>
        <time>2015-06-13T10:22:14Z</time>
      </trkpt>
      <trkpt lat="49.37675" lon="1.44786">
        <ele>112.40002441406</ele>
        <time>2015-06-13T10:22:24Z</time>
      </trkpt>
      <trkpt lat="49.3768" lon="1.44818">
        <ele>113.79998779297</ele>
        <time>2015-06-13T10:22:35Z</time>
      </trkpt>
      <trkpt lat="49.37676" lon="1.4487">
        <ele>115.40002441406</ele>
        <time>2015-06-13T10:22:50Z</time>
      </trkpt>
      <trkpt lat="49.37657" lon="1.44936">
        <ele>116.40002441406</ele>
        <time>2015-06-13T10:23:11Z</time>
      </trkpt>
      <trkpt lat="49.37637" lon="1.44968">
        <ele>113.20001220703</ele>
        <time>2015-06-13T10:23:23Z</time>
      </trkpt>
      <trkpt lat="49.37635" lon="1.45014">
        <ele>116.40002441406</ele>
        <time>2015-06-13T10:23:38Z</time>
      </trkpt>
      <trkpt lat="49.37633" lon="1.45045">
        <ele>119.59997558594</ele>
        <time>2015-06-13T10:23:49Z</time>
      </trkpt>
      <trkpt lat="49.37634" lon="1.45077">
        <ele>122.59997558594</ele>
        <time>2015-06-13T10:24:00Z</time>
      </trkpt>
      <trkpt lat="49.37642" lon="1.45116">
        <ele>125.79998779297</ele>
        <time>2015-06-13T10:24:14Z</time>
      </trkpt>
      <trkpt lat="49.37656" lon="1.4515">
        <ele>129</ele>
        <time>2015-06-13T10:24:29Z</time>
      </trkpt>
      <trkpt lat="49.37668" lon="1.45184">
        <ele>130.59997558594</ele>
        <time>2015-06-13T10:24:44Z</time>
      </trkpt>
      <trkpt lat="49.37666" lon="1.45193">
        <ele>131.59997558594</ele>
        <time>2015-06-13T10:25:04Z</time>
      </trkpt>
      <trkpt lat="49.37665" lon="1.45199">
        <ele>132</ele>
        <time>2015-06-13T10:25:32Z</time>
      </trkpt>
      <trkpt lat="49.37664" lon="1.45198">
        <ele>131.40002441406</ele>
        <time>2015-06-13T10:26:01Z</time>
      </trkpt>
      <trkpt lat="49.37665" lon="1.45199">
        <ele>131.40002441406</ele>
        <time>2015-06-13T10:26:02Z</time>
      </trkpt>
      <trkpt lat="49.37677" lon="1.45215">
        <ele>134.79998779297</ele>
        <time>2015-06-13T10:26:21Z</time>
      </trkpt>
      <trkpt lat="49.37682" lon="1.45218">
        <ele>134.40002441406</ele>
        <time>2015-06-13T10:26:37Z</time>
      </trkpt>
      <trkpt lat="49.37681" lon="1.45217">
        <ele>134</ele>
        <time>2015-06-13T10:26:39Z</time>
      </trkpt>
      <trkpt lat="49.37673" lon="1.45213">
        <ele>133</ele>
        <time>2015-06-13T10:26:46Z</time>
      </trkpt>
      <trkpt lat="49.37661" lon="1.45193">
        <ele>131</ele>
        <time>2015-06-13T10:27:08Z</time>
      </trkpt>
      <trkpt lat="49.37638" lon="1.45125">
        <ele>127.59997558594</ele>
        <time>2015-06-13T10:27:22Z</time>
      </trkpt>
      <trkpt lat="49.37634" lon="1.45097">
        <ele>126.79998779297</ele>
        <time>2015-06-13T10:27:26Z</time>
      </trkpt>
      <trkpt lat="49.37628" lon="1.45054">
        <ele>123.40002441406</ele>
        <time>2015-06-13T10:27:33Z</time>
      </trkpt>
      <trkpt lat="49.37628" lon="1.45045">
        <ele>120.79998779297</ele>
        <time>2015-06-13T10:27:36Z</time>
      </trkpt>
      <trkpt lat="49.37629" lon="1.45044">
        <ele>120.20001220703</ele>
        <time>2015-06-13T10:27:38Z</time>
      </trkpt>
      <trkpt lat="49.37623" lon="1.45048">
        <ele>120</ele>
        <time>2015-06-13T10:28:02Z</time>
      </trkpt>
      <trkpt lat="49.37634" lon="1.45087">
        <ele>123</ele>
        <time>2015-06-13T10:28:15Z</time>
      </trkpt>
      <trkpt lat="49.37646" lon="1.45134">
        <ele>126.20001220703</ele>
        <time>2015-06-13T10:28:28Z</time>
      </trkpt>
      <trkpt lat="49.37659" lon="1.45166">
        <ele>129.20001220703</ele>
        <time>2015-06-13T10:28:40Z</time>
      </trkpt>
      <trkpt lat="49.37669" lon="1.45201">
        <ele>130.59997558594</ele>
        <time>2015-06-13T10:28:54Z</time>
      </trkpt>
      <trkpt lat="49.37674" lon="1.45205">
        <ele>132.20001220703</ele>
        <time>2015-06-13T10:29:06Z</time>
      </trkpt>
      <trkpt lat="49.37676" lon="1.45204">
        <ele>132.79998779297</ele>
        <time>2015-06-13T10:29:09Z</time>
      </trkpt>
      <trkpt lat="49.37674" lon="1.45208">
        <ele>132</ele>
        <time>2015-06-13T10:29:18Z</time>
      </trkpt>
      <trkpt lat="49.37678" lon="1.45209">
        <ele>132.59997558594</ele>
        <time>2015-06-13T10:29:20Z</time>
      </trkpt>
      <trkpt lat="49.37679" lon="1.4521">
        <ele>133.40002441406</ele>
        <time>2015-06-13T10:29:22Z</time>
      </trkpt>
      <trkpt lat="49.3768" lon="1.45211">
        <ele>133.59997558594</ele>
        <time>2015-06-13T10:29:23Z</time>
      </trkpt>
      <trkpt lat="49.37692" lon="1.45216">
        <ele>136.79998779297</ele>
        <time>2015-06-13T10:29:39Z</time>
      </trkpt>
      <trkpt lat="49.37691" lon="1.45215">
        <ele>137.40002441406</ele>
        <time>2015-06-13T10:29:44Z</time>
      </trkpt>
      <trkpt lat="49.37688" lon="1.45211">
        <ele>137</ele>
        <time>2015-06-13T10:29:54Z</time>
      </trkpt>
      <trkpt lat="49.37694" lon="1.452">
        <ele>137</ele>
        <time>2015-06-13T10:30:15Z</time>
      </trkpt>
      <trkpt lat="49.37697" lon="1.45198">
        <ele>138</ele>
        <time>2015-06-13T10:30:20Z</time>
      </trkpt>
      <trkpt lat="49.37696" lon="1.45199">
        <ele>137</ele>
        <time>2015-06-13T10:30:35Z</time>
      </trkpt>
      <trkpt lat="49.37697" lon="1.45202">
        <ele>137.40002441406</ele>
        <time>2015-06-13T10:30:59Z</time>
      </trkpt>
      <trkpt lat="49.37697" lon="1.452">
        <ele>137.40002441406</ele>
        <time>2015-06-13T10:31:00Z</time>
      </trkpt>
      <trkpt lat="49.37697" lon="1.45198">
        <ele>137.40002441406</ele>
        <time>2015-06-13T10:31:01Z</time>
      </trkpt>
      <trkpt lat="49.37697" lon="1.45195">
        <ele>137.59997558594</ele>
        <time>2015-06-13T10:31:02Z</time>
      </trkpt>
      <trkpt lat="49.37697" lon="1.45192">
        <ele>137.59997558594</ele>
        <time>2015-06-13T10:31:03Z</time>
      </trkpt>
      <trkpt lat="49.37698" lon="1.45189">
        <ele>137.59997558594</ele>
        <time>2015-06-13T10:31:04Z</time>
      </trkpt>
      <trkpt lat="49.37714" lon="1.4511">
        <ele>138.79998779297</ele>
        <time>2015-06-13T10:31:23Z</time>
      </trkpt>
      <trkpt lat="49.3776" lon="1.45057">
        <ele>138.79998779297</ele>
        <time>2015-06-13T10:31:42Z</time>
      </trkpt>
      <trkpt lat="49.37787" lon="1.45072">
        <ele>142</ele>
        <time>2015-06-13T10:31:52Z</time>
      </trkpt>
      <trkpt lat="49.37826" lon="1.4509">
        <ele>145.20001220703</ele>
        <time>2015-06-13T10:32:08Z</time>
      </trkpt>
      <trkpt lat="49.37863" lon="1.45116">
        <ele>148.20001220703</ele>
        <time>2015-06-13T10:32:26Z</time>
      </trkpt>
      <trkpt lat="49.37905" lon="1.45142">
        <ele>151.20001220703</ele>
        <time>2015-06-13T10:32:46Z</time>
      </trkpt>
      <trkpt lat="49.37944" lon="1.45182">
        <ele>154.20001220703</ele>
        <time>2015-06-13T10:33:05Z</time>
      </trkpt>
      <trkpt lat="49.37978" lon="1.45209">
        <ele>157.20001220703</ele>
        <time>2015-06-13T10:33:20Z</time>
      </trkpt>
      <trkpt lat="49.38011" lon="1.45238">
        <ele>160.40002441406</ele>
        <time>2015-06-13T10:33:37Z</time>
      </trkpt>
      <trkpt lat="49.38055" lon="1.45269">
        <ele>163.59997558594</ele>
        <time>2015-06-13T10:33:56Z</time>
      </trkpt>
      <trkpt lat="49.38092" lon="1.45296">
        <ele>167</ele>
        <time>2015-06-13T10:34:14Z</time>
      </trkpt>
      <trkpt lat="49.38127" lon="1.45322">
        <ele>170</ele>
        <time>2015-06-13T10:34:32Z</time>
      </trkpt>
      <trkpt lat="49.38169" lon="1.45355">
        <ele>173</ele>
        <time>2015-06-13T10:34:52Z</time>
      </trkpt>
      <trkpt lat="49.38217" lon="1.45398">
        <ele>176</ele>
        <time>2015-06-13T10:35:12Z</time>
      </trkpt>
      <trkpt lat="49.38266" lon="1.4543">
        <ele>178.59997558594</ele>
        <time>2015-06-13T10:35:32Z</time>
      </trkpt>
      <trkpt lat="49.38313" lon="1.45473">
        <ele>181.40002441406</ele>
        <time>2015-06-13T10:35:54Z</time>
      </trkpt>
      <trkpt lat="49.38367" lon="1.45511">
        <ele>183.40002441406</ele>
        <time>2015-06-13T10:36:20Z</time>
      </trkpt>
      <trkpt lat="49.38418" lon="1.45551">
        <ele>184</ele>
        <time>2015-06-13T10:36:42Z</time>
      </trkpt>
      <trkpt lat="49.38428" lon="1.4558">
        <ele>184</ele>
        <time>2015-06-13T10:37:13Z</time>
      </trkpt>
      <trkpt lat="49.38426" lon="1.45581">
        <ele>183.79998779297</ele>
        <time>2015-06-13T10:37:16Z</time>
      </trkpt>
      <trkpt lat="49.38427" lon="1.45581">
        <ele>184.59997558594</ele>
        <time>2015-06-13T10:37:24Z</time>
      </trkpt>
      <trkpt lat="49.3843" lon="1.45582">
        <ele>184.79998779297</ele>
        <time>2015-06-13T10:37:35Z</time>
      </trkpt>
      <trkpt lat="49.38438" lon="1.45584">
        <ele>185</ele>
        <time>2015-06-13T10:37:45Z</time>
      </trkpt>
      <trkpt lat="49.38442" lon="1.45586">
        <ele>183.79998779297</ele>
        <time>2015-06-13T10:38:01Z</time>
      </trkpt>
      <trkpt lat="49.38448" lon="1.45585">
        <ele>183.79998779297</ele>
        <time>2015-06-13T10:38:09Z</time>
      </trkpt>
      <trkpt lat="49.38441" lon="1.45596">
        <ele>183.79998779297</ele>
        <time>2015-06-13T10:38:15Z</time>
      </trkpt>
      <trkpt lat="49.38438" lon="1.45598">
        <ele>184</ele>
        <time>2015-06-13T10:38:17Z</time>
      </trkpt>
      <trkpt lat="49.38434" lon="1.45597">
        <ele>184.20001220703</ele>
        <time>2015-06-13T10:38:25Z</time>
      </trkpt>
      <trkpt lat="49.38447" lon="1.45575">
        <ele>184.20001220703</ele>
        <time>2015-06-13T10:38:43Z</time>
      </trkpt>
      <trkpt lat="49.3845" lon="1.45571">
        <ele>184.40002441406</ele>
        <time>2015-06-13T10:38:56Z</time>
      </trkpt>
      <trkpt lat="49.3845" lon="1.45579">
        <ele>184.59997558594</ele>
        <time>2015-06-13T10:39:11Z</time>
      </trkpt>
      <trkpt lat="49.38451" lon="1.4558">
        <ele>184.59997558594</ele>
        <time>2015-06-13T10:39:12Z</time>
      </trkpt>
      <trkpt lat="49.38453" lon="1.45581">
        <ele>184.40002441406</ele>
        <time>2015-06-13T10:39:13Z</time>
      </trkpt>
      <trkpt lat="49.38455" lon="1.45583">
        <ele>184.40002441406</ele>
        <time>2015-06-13T10:39:14Z</time>
      </trkpt>
      <trkpt lat="49.38457" lon="1.45585">
        <ele>184.59997558594</ele>
        <time>2015-06-13T10:39:15Z</time>
      </trkpt>
      <trkpt lat="49.3846" lon="1.45588">
        <ele>184.59997558594</ele>
        <time>2015-06-13T10:39:16Z</time>
      </trkpt>
      <trkpt lat="49.38462" lon="1.45589">
        <ele>184.59997558594</ele>
        <time>2015-06-13T10:39:17Z</time>
      </trkpt>
      <trkpt lat="49.38465" lon="1.4559">
        <ele>184.59997558594</ele>
        <time>2015-06-13T10:39:18Z</time>
      </trkpt>
      <trkpt lat="49.38468" lon="1.45591">
        <ele>184.59997558594</ele>
        <time>2015-06-13T10:39:19Z</time>
      </trkpt>
      <trkpt lat="49.38506" lon="1.45617">
        <ele>184.40002441406</ele>
        <time>2015-06-13T10:39:35Z</time>
      </trkpt>
      <trkpt lat="49.3855" lon="1.4564">
        <ele>182.20001220703</ele>
        <time>2015-06-13T10:39:44Z</time>
      </trkpt>
      <trkpt lat="49.3858" lon="1.45658">
        <ele>179.59997558594</ele>
        <time>2015-06-13T10:39:49Z</time>
      </trkpt>
      <trkpt lat="49.38595" lon="1.45668">
        <ele>176.20001220703</ele>
        <time>2015-06-13T10:39:52Z</time>
      </trkpt>
      <trkpt lat="49.38607" lon="1.45675">
        <ele>172.79998779297</ele>
        <time>2015-06-13T10:39:54Z</time>
      </trkpt>
      <trkpt lat="49.38616" lon="1.45684">
        <ele>169.20001220703</ele>
        <time>2015-06-13T10:39:56Z</time>
      </trkpt>
      <trkpt lat="49.38625" lon="1.4569">
        <ele>165.79998779297</ele>
        <time>2015-06-13T10:39:58Z</time>
      </trkpt>
      <trkpt lat="49.38637" lon="1.45701">
        <ele>162.40002441406</ele>
        <time>2015-06-13T10:40:01Z</time>
      </trkpt>
      <trkpt lat="49.3864" lon="1.45708">
        <ele>161.59997558594</ele>
        <time>2015-06-13T10:40:02Z</time>
      </trkpt>
      <trkpt lat="49.38643" lon="1.45716">
        <ele>161.20001220703</ele>
        <time>2015-06-13T10:40:03Z</time>
      </trkpt>
      <trkpt lat="49.38648" lon="1.45728">
        <ele>160.79998779297</ele>
        <time>2015-06-13T10:40:04Z</time>
      </trkpt>
      <trkpt lat="49.38652" lon="1.45741">
        <ele>160.40002441406</ele>
        <time>2015-06-13T10:40:05Z</time>
      </trkpt>
      <trkpt lat="49.38657" lon="1.45752">
        <ele>159.79998779297</ele>
        <time>2015-06-13T10:40:06Z</time>
      </trkpt>
      <trkpt lat="49.38679" lon="1.45802">
        <ele>163</ele>
        <time>2015-06-13T10:40:14Z</time>
      </trkpt>
      <trkpt lat="49.38683" lon="1.4582">
        <ele>166.40002441406</ele>
        <time>2015-06-13T10:40:20Z</time>
      </trkpt>
      <trkpt lat="49.38689" lon="1.45837">
        <ele>168.79998779297</ele>
        <time>2015-06-13T10:40:25Z</time>
      </trkpt>
      <trkpt lat="49.38699" lon="1.45862">
        <ele>172</ele>
        <time>2015-06-13T10:40:34Z</time>
      </trkpt>
      <trkpt lat="49.38713" lon="1.45894">
        <ele>175</ele>
        <time>2015-06-13T10:40:45Z</time>
      </trkpt>
      <trkpt lat="49.38726" lon="1.45919">
        <ele>178.20001220703</ele>
        <time>2015-06-13T10:40:55Z</time>
      </trkpt>
      <trkpt lat="49.38745" lon="1.45978">
        <ele>181.20001220703</ele>
        <time>2015-06-13T10:41:16Z</time>
      </trkpt>
      <trkpt lat="49.38768" lon="1.46025">
        <ele>183</ele>
        <time>2015-06-13T10:41:39Z</time>
      </trkpt>
      <trkpt lat="49.38767" lon="1.4603">
        <ele>183.20001220703</ele>
        <time>2015-06-13T10:41:49Z</time>
      </trkpt>
      <trkpt lat="49.38765" lon="1.46029">
        <ele>183.20001220703</ele>
        <time>2015-06-13T10:42:20Z</time>
      </trkpt>
      <trkpt lat="49.38765" lon="1.46028">
        <ele>183.20001220703</ele>
        <time>2015-06-13T10:42:35Z</time>
      </trkpt>
      <trkpt lat="49.3877" lon="1.46032">
        <ele>183.59997558594</ele>
        <time>2015-06-13T10:43:27Z</time>
      </trkpt>
      <trkpt lat="49.3877" lon="1.46034">
        <ele>183.59997558594</ele>
        <time>2015-06-13T10:43:28Z</time>
      </trkpt>
      <trkpt lat="49.38797" lon="1.46101">
        <ele>185</ele>
        <time>2015-06-13T10:43:46Z</time>
      </trkpt>
      <trkpt lat="49.38826" lon="1.46168">
        <ele>186.40002441406</ele>
        <time>2015-06-13T10:44:02Z</time>
      </trkpt>
      <trkpt lat="49.38853" lon="1.46234">
        <ele>186.59997558594</ele>
        <time>2015-06-13T10:44:16Z</time>
      </trkpt>
      <trkpt lat="49.3888" lon="1.46303">
        <ele>186.79998779297</ele>
        <time>2015-06-13T10:44:29Z</time>
      </trkpt>
      <trkpt lat="49.38892" lon="1.46333">
        <ele>187.40002441406</ele>
        <time>2015-06-13T10:44:35Z</time>
      </trkpt>
      <trkpt lat="49.38895" lon="1.46338">
        <ele>187.59997558594</ele>
        <time>2015-06-13T10:44:36Z</time>
      </trkpt>
      <trkpt lat="49.38923" lon="1.46397">
        <ele>186.79998779297</ele>
        <time>2015-06-13T10:44:50Z</time>
      </trkpt>
      <trkpt lat="49.38923" lon="1.46401">
        <ele>186.79998779297</ele>
        <time>2015-06-13T10:44:51Z</time>
      </trkpt>
      <trkpt lat="49.38915" lon="1.46478">
        <ele>187.59997558594</ele>
        <time>2015-06-13T10:45:07Z</time>
      </trkpt>
      <trkpt lat="49.38892" lon="1.46547">
        <ele>188.40002441406</ele>
        <time>2015-06-13T10:45:20Z</time>
      </trkpt>
      <trkpt lat="49.38877" lon="1.46618">
        <ele>189</ele>
        <time>2015-06-13T10:45:37Z</time>
      </trkpt>
      <trkpt lat="49.38856" lon="1.46686">
        <ele>189.20001220703</ele>
        <time>2015-06-13T10:45:57Z</time>
      </trkpt>
      <trkpt lat="49.38848" lon="1.46772">
        <ele>189.40002441406</ele>
        <time>2015-06-13T10:46:21Z</time>
      </trkpt>
      <trkpt lat="49.38848" lon="1.4685">
        <ele>189.20001220703</ele>
        <time>2015-06-13T10:46:40Z</time>
      </trkpt>
      <trkpt lat="49.38851" lon="1.46924">
        <ele>189.40002441406</ele>
        <time>2015-06-13T10:47:01Z</time>
      </trkpt>
      <trkpt lat="49.38851" lon="1.46952">
        <ele>188.59997558594</ele>
        <time>2015-06-13T10:47:15Z</time>
      </trkpt>
      <trkpt lat="49.38852" lon="1.46947">
        <ele>188</ele>
        <time>2015-06-13T10:47:27Z</time>
      </trkpt>
      <trkpt lat="49.38851" lon="1.46948">
        <ele>188</ele>
        <time>2015-06-13T10:47:36Z</time>
      </trkpt>
      <trkpt lat="49.3885" lon="1.46948">
        <ele>188.20001220703</ele>
        <time>2015-06-13T10:47:45Z</time>
      </trkpt>
      <trkpt lat="49.38853" lon="1.46953">
        <ele>188.40002441406</ele>
        <time>2015-06-13T10:47:50Z</time>
      </trkpt>
      <trkpt lat="49.38855" lon="1.46954">
        <ele>188.20001220703</ele>
        <time>2015-06-13T10:47:51Z</time>
      </trkpt>
      <trkpt lat="49.38858" lon="1.46955">
        <ele>188.20001220703</ele>
        <time>2015-06-13T10:47:52Z</time>
      </trkpt>
      <trkpt lat="49.3891" lon="1.46966">
        <ele>187.59997558594</ele>
        <time>2015-06-13T10:48:01Z</time>
      </trkpt>
      <trkpt lat="49.3896" lon="1.46976">
        <ele>185.20001220703</ele>
        <time>2015-06-13T10:48:08Z</time>
      </trkpt>
      <trkpt lat="49.3901" lon="1.4699">
        <ele>182.79998779297</ele>
        <time>2015-06-13T10:48:14Z</time>
      </trkpt>
      <trkpt lat="49.39064" lon="1.47003">
        <ele>179.79998779297</ele>
        <time>2015-06-13T10:48:20Z</time>
      </trkpt>
      <trkpt lat="49.39091" lon="1.47012">
        <ele>180.40002441406</ele>
        <time>2015-06-13T10:48:23Z</time>
      </trkpt>
      <trkpt lat="49.39098" lon="1.47018">
        <ele>179.79998779297</ele>
        <time>2015-06-13T10:48:24Z</time>
      </trkpt>
      <trkpt lat="49.39105" lon="1.47026">
        <ele>179</ele>
        <time>2015-06-13T10:48:25Z</time>
      </trkpt>
      <trkpt lat="49.39108" lon="1.47037">
        <ele>178.59997558594</ele>
        <time>2015-06-13T10:48:26Z</time>
      </trkpt>
      <trkpt lat="49.3911" lon="1.47048">
        <ele>178.59997558594</ele>
        <time>2015-06-13T10:48:27Z</time>
      </trkpt>
      <trkpt lat="49.39113" lon="1.47057">
        <ele>178.59997558594</ele>
        <time>2015-06-13T10:48:28Z</time>
      </trkpt>
      <trkpt lat="49.39117" lon="1.47065">
        <ele>178.40002441406</ele>
        <time>2015-06-13T10:48:29Z</time>
      </trkpt>
      <trkpt lat="49.39121" lon="1.47071">
        <ele>178.40002441406</ele>
        <time>2015-06-13T10:48:30Z</time>
      </trkpt>
      <trkpt lat="49.39124" lon="1.47078">
        <ele>178.40002441406</ele>
        <time>2015-06-13T10:48:31Z</time>
      </trkpt>
      <trkpt lat="49.39134" lon="1.47098">
        <ele>178.59997558594</ele>
        <time>2015-06-13T10:48:34Z</time>
      </trkpt>
      <trkpt lat="49.39135" lon="1.47104">
        <ele>178.59997558594</ele>
        <time>2015-06-13T10:48:35Z</time>
      </trkpt>
      <trkpt lat="49.39153" lon="1.47171">
        <ele>179.59997558594</ele>
        <time>2015-06-13T10:48:45Z</time>
      </trkpt>
      <trkpt lat="49.39165" lon="1.47226">
        <ele>180</ele>
        <time>2015-06-13T10:48:53Z</time>
      </trkpt>
      <trkpt lat="49.39179" lon="1.47294">
        <ele>180.40002441406</ele>
        <time>2015-06-13T10:49:03Z</time>
      </trkpt>
      <trkpt lat="49.39187" lon="1.4732">
        <ele>180</ele>
        <time>2015-06-13T10:49:07Z</time>
      </trkpt>
      <trkpt lat="49.3919" lon="1.47326">
        <ele>180</ele>
        <time>2015-06-13T10:49:08Z</time>
      </trkpt>
      <trkpt lat="49.392" lon="1.47342">
        <ele>179.59997558594</ele>
        <time>2015-06-13T10:49:11Z</time>
      </trkpt>
      <trkpt lat="49.39204" lon="1.47347">
        <ele>179.59997558594</ele>
        <time>2015-06-13T10:49:12Z</time>
      </trkpt>
      <trkpt lat="49.39208" lon="1.4735">
        <ele>179.40002441406</ele>
        <time>2015-06-13T10:49:13Z</time>
      </trkpt>
      <trkpt lat="49.39213" lon="1.47354">
        <ele>179.40002441406</ele>
        <time>2015-06-13T10:49:14Z</time>
      </trkpt>
      <trkpt lat="49.39219" lon="1.47357">
        <ele>179.40002441406</ele>
        <time>2015-06-13T10:49:15Z</time>
      </trkpt>
      <trkpt lat="49.39265" lon="1.47383">
        <ele>179.20001220703</ele>
        <time>2015-06-13T10:49:24Z</time>
      </trkpt>
      <trkpt lat="49.39269" lon="1.47387">
        <ele>179</ele>
        <time>2015-06-13T10:49:25Z</time>
      </trkpt>
      <trkpt lat="49.39318" lon="1.4742">
        <ele>177.79998779297</ele>
        <time>2015-06-13T10:49:35Z</time>
      </trkpt>
      <trkpt lat="49.39327" lon="1.47426">
        <ele>177.40002441406</ele>
        <time>2015-06-13T10:49:37Z</time>
      </trkpt>
      <trkpt lat="49.39375" lon="1.47462">
        <ele>176.59997558594</ele>
        <time>2015-06-13T10:49:46Z</time>
      </trkpt>
      <trkpt lat="49.39385" lon="1.47473">
        <ele>176.40002441406</ele>
        <time>2015-06-13T10:49:48Z</time>
      </trkpt>
      <trkpt lat="49.3939" lon="1.47479">
        <ele>176.40002441406</ele>
        <time>2015-06-13T10:49:49Z</time>
      </trkpt>
      <trkpt lat="49.39434" lon="1.47521">
        <ele>174.59997558594</ele>
        <time>2015-06-13T10:49:57Z</time>
      </trkpt>
      <trkpt lat="49.39474" lon="1.47569">
        <ele>172</ele>
        <time>2015-06-13T10:50:04Z</time>
      </trkpt>
      <trkpt lat="49.39518" lon="1.47622">
        <ele>169.40002441406</ele>
        <time>2015-06-13T10:50:11Z</time>
      </trkpt>
      <trkpt lat="49.39558" lon="1.47667">
        <ele>168</ele>
        <time>2015-06-13T10:50:17Z</time>
      </trkpt>
      <trkpt lat="49.39586" lon="1.47702">
        <ele>165</ele>
        <time>2015-06-13T10:50:23Z</time>
      </trkpt>
      <trkpt lat="49.39594" lon="1.47713">
        <ele>162.20001220703</ele>
        <time>2015-06-13T10:50:41Z</time>
      </trkpt>
      <trkpt lat="49.39593" lon="1.47716">
        <ele>162.40002441406</ele>
        <time>2015-06-13T10:50:50Z</time>
      </trkpt>
      <trkpt lat="49.39588" lon="1.47725">
        <ele>163</ele>
        <time>2015-06-13T10:50:56Z</time>
      </trkpt>
      <trkpt lat="49.39577" lon="1.47796">
        <ele>166.20001220703</ele>
        <time>2015-06-13T10:51:17Z</time>
      </trkpt>
      <trkpt lat="49.39582" lon="1.47867">
        <ele>167.79998779297</ele>
        <time>2015-06-13T10:51:31Z</time>
      </trkpt>
      <trkpt lat="49.39562" lon="1.47952">
        <ele>168</ele>
        <time>2015-06-13T10:51:44Z</time>
      </trkpt>
      <trkpt lat="49.3953" lon="1.48024">
        <ele>166.59997558594</ele>
        <time>2015-06-13T10:51:56Z</time>
      </trkpt>
      <trkpt lat="49.39525" lon="1.48026">
        <ele>166.40002441406</ele>
        <time>2015-06-13T10:51:57Z</time>
      </trkpt>
      <trkpt lat="49.3952" lon="1.48027">
        <ele>166.59997558594</ele>
        <time>2015-06-13T10:51:58Z</time>
      </trkpt>
      <trkpt lat="49.39516" lon="1.48028">
        <ele>166.79998779297</ele>
        <time>2015-06-13T10:51:59Z</time>
      </trkpt>
      <trkpt lat="49.39507" lon="1.48029">
        <ele>166.79998779297</ele>
        <time>2015-06-13T10:52:00Z</time>
      </trkpt>
      <trkpt lat="49.39501" lon="1.48033">
        <ele>166.79998779297</ele>
        <time>2015-06-13T10:52:01Z</time>
      </trkpt>
      <trkpt lat="49.39499" lon="1.48038">
        <ele>167</ele>
        <time>2015-06-13T10:52:02Z</time>
      </trkpt>
      <trkpt lat="49.39498" lon="1.48045">
        <ele>166.79998779297</ele>
        <time>2015-06-13T10:52:03Z</time>
      </trkpt>
      <trkpt lat="49.39496" lon="1.4805">
        <ele>166.79998779297</ele>
        <time>2015-06-13T10:52:04Z</time>
      </trkpt>
      <trkpt lat="49.39489" lon="1.48063">
        <ele>165.40002441406</ele>
        <time>2015-06-13T10:52:06Z</time>
      </trkpt>
      <trkpt lat="49.39482" lon="1.48079">
        <ele>164.40002441406</ele>
        <time>2015-06-13T10:52:08Z</time>
      </trkpt>
      <trkpt lat="49.3948" lon="1.48086">
        <ele>163</ele>
        <time>2015-06-13T10:52:09Z</time>
      </trkpt>
      <trkpt lat="49.39478" lon="1.48092">
        <ele>162.40002441406</ele>
        <time>2015-06-13T10:52:10Z</time>
      </trkpt>
      <trkpt lat="49.39475" lon="1.48095">
        <ele>161.40002441406</ele>
        <time>2015-06-13T10:52:11Z</time>
      </trkpt>
      <trkpt lat="49.39472" lon="1.481">
        <ele>160.59997558594</ele>
        <time>2015-06-13T10:52:12Z</time>
      </trkpt>
      <trkpt lat="49.3947" lon="1.48105">
        <ele>159.59997558594</ele>
        <time>2015-06-13T10:52:13Z</time>
      </trkpt>
      <trkpt lat="49.39469" lon="1.48112">
        <ele>158.79998779297</ele>
        <time>2015-06-13T10:52:14Z</time>
      </trkpt>
      <trkpt lat="49.3947" lon="1.48119">
        <ele>157.20001220703</ele>
        <time>2015-06-13T10:52:15Z</time>
      </trkpt>
      <trkpt lat="49.39472" lon="1.48125">
        <ele>155.79998779297</ele>
        <time>2015-06-13T10:52:16Z</time>
      </trkpt>
      <trkpt lat="49.39475" lon="1.48131">
        <ele>155.79998779297</ele>
        <time>2015-06-13T10:52:17Z</time>
      </trkpt>
      <trkpt lat="49.39476" lon="1.48137">
        <ele>155.59997558594</ele>
        <time>2015-06-13T10:52:18Z</time>
      </trkpt>
      <trkpt lat="49.39474" lon="1.48153">
        <ele>153.20001220703</ele>
        <time>2015-06-13T10:52:22Z</time>
      </trkpt>
      <trkpt lat="49.39472" lon="1.48154">
        <ele>153</ele>
        <time>2015-06-13T10:52:23Z</time>
      </trkpt>
      <trkpt lat="49.39469" lon="1.48154">
        <ele>153</ele>
        <time>2015-06-13T10:52:24Z</time>
      </trkpt>
      <trkpt lat="49.39467" lon="1.48154">
        <ele>153</ele>
        <time>2015-06-13T10:52:25Z</time>
      </trkpt>
      <trkpt lat="49.39464" lon="1.48154">
        <ele>153</ele>
        <time>2015-06-13T10:52:26Z</time>
      </trkpt>
      <trkpt lat="49.39461" lon="1.48155">
        <ele>153.20001220703</ele>
        <time>2015-06-13T10:52:27Z</time>
      </trkpt>
      <trkpt lat="49.39458" lon="1.48156">
        <ele>153.40002441406</ele>
        <time>2015-06-13T10:52:28Z</time>
      </trkpt>
      <trkpt lat="49.39455" lon="1.48157">
        <ele>153.59997558594</ele>
        <time>2015-06-13T10:52:29Z</time>
      </trkpt>
      <trkpt lat="49.39408" lon="1.48171">
        <ele>156.20001220703</ele>
        <time>2015-06-13T10:52:45Z</time>
      </trkpt>
      <trkpt lat="49.39366" lon="1.4819">
        <ele>159.40002441406</ele>
        <time>2015-06-13T10:53:00Z</time>
      </trkpt>
      <trkpt lat="49.39322" lon="1.48202">
        <ele>161.79998779297</ele>
        <time>2015-06-13T10:53:17Z</time>
      </trkpt>
      <trkpt lat="49.39286" lon="1.48235">
        <ele>165</ele>
        <time>2015-06-13T10:53:33Z</time>
      </trkpt>
      <trkpt lat="49.39301" lon="1.48267">
        <ele>168</ele>
        <time>2015-06-13T10:53:42Z</time>
      </trkpt>
      <trkpt lat="49.39336" lon="1.48324">
        <ele>171</ele>
        <time>2015-06-13T10:54:01Z</time>
      </trkpt>
      <trkpt lat="49.39344" lon="1.48336">
        <ele>171.20001220703</ele>
        <time>2015-06-13T10:54:05Z</time>
      </trkpt>
      <trkpt lat="49.39346" lon="1.48337">
        <ele>171.20001220703</ele>
        <time>2015-06-13T10:54:06Z</time>
      </trkpt>
      <trkpt lat="49.39348" lon="1.48335">
        <ele>171.20001220703</ele>
        <time>2015-06-13T10:54:07Z</time>
      </trkpt>
      <trkpt lat="49.39348" lon="1.48332">
        <ele>171.40002441406</ele>
        <time>2015-06-13T10:54:08Z</time>
      </trkpt>
      <trkpt lat="49.39347" lon="1.48331">
        <ele>171.40002441406</ele>
        <time>2015-06-13T10:54:09Z</time>
      </trkpt>
      <trkpt lat="49.39345" lon="1.4833">
        <ele>171.40002441406</ele>
        <time>2015-06-13T10:54:10Z</time>
      </trkpt>
      <trkpt lat="49.39344" lon="1.48329">
        <ele>171.40002441406</ele>
        <time>2015-06-13T10:54:11Z</time>
      </trkpt>
      <trkpt lat="49.39333" lon="1.48313">
        <ele>170.79998779297</ele>
        <time>2015-06-13T10:54:22Z</time>
      </trkpt>
      <trkpt lat="49.39331" lon="1.48309">
        <ele>170.59997558594</ele>
        <time>2015-06-13T10:54:25Z</time>
      </trkpt>
      <trkpt lat="49.39331" lon="1.48307">
        <ele>170.59997558594</ele>
        <time>2015-06-13T10:54:26Z</time>
      </trkpt>
      <trkpt lat="49.39328" lon="1.483">
        <ele>170.40002441406</ele>
        <time>2015-06-13T10:54:30Z</time>
      </trkpt>
      <trkpt lat="49.39323" lon="1.48299">
        <ele>170.20001220703</ele>
        <time>2015-06-13T10:54:41Z</time>
      </trkpt>
      <trkpt lat="49.39322" lon="1.48298">
        <ele>170.20001220703</ele>
        <time>2015-06-13T10:54:42Z</time>
      </trkpt>
      <trkpt lat="49.39321" lon="1.48296">
        <ele>170</ele>
        <time>2015-06-13T10:54:43Z</time>
      </trkpt>
      <trkpt lat="49.3932" lon="1.48293">
        <ele>170</ele>
        <time>2015-06-13T10:54:44Z</time>
      </trkpt>
      <trkpt lat="49.39319" lon="1.48291">
        <ele>170</ele>
        <time>2015-06-13T10:54:45Z</time>
      </trkpt>
      <trkpt lat="49.39318" lon="1.48289">
        <ele>170</ele>
        <time>2015-06-13T10:54:46Z</time>
      </trkpt>
      <trkpt lat="49.39317" lon="1.48286">
        <ele>169.79998779297</ele>
        <time>2015-06-13T10:54:47Z</time>
      </trkpt>
      <trkpt lat="49.39316" lon="1.48284">
        <ele>169.79998779297</ele>
        <time>2015-06-13T10:54:48Z</time>
      </trkpt>
      <trkpt lat="49.39315" lon="1.48281">
        <ele>170</ele>
        <time>2015-06-13T10:54:49Z</time>
      </trkpt>
      <trkpt lat="49.39313" lon="1.48278">
        <ele>170</ele>
        <time>2015-06-13T10:54:50Z</time>
      </trkpt>
      <trkpt lat="49.39311" lon="1.48274">
        <ele>169.59997558594</ele>
        <time>2015-06-13T10:54:51Z</time>
      </trkpt>
      <trkpt lat="49.39309" lon="1.48271">
        <ele>169</ele>
        <time>2015-06-13T10:54:53Z</time>
      </trkpt>
      <trkpt lat="49.39307" lon="1.48271">
        <ele>168.59997558594</ele>
        <time>2015-06-13T10:54:54Z</time>
      </trkpt>
      <trkpt lat="49.39307" lon="1.48272">
        <ele>168.79998779297</ele>
        <time>2015-06-13T10:55:00Z</time>
      </trkpt>
      <trkpt lat="49.39308" lon="1.48274">
        <ele>168.79998779297</ele>
        <time>2015-06-13T10:55:01Z</time>
      </trkpt>
      <trkpt lat="49.39309" lon="1.48276">
        <ele>169.20001220703</ele>
        <time>2015-06-13T10:55:02Z</time>
      </trkpt>
      <trkpt lat="49.3931" lon="1.48278">
        <ele>169.40002441406</ele>
        <time>2015-06-13T10:55:03Z</time>
      </trkpt>
      <trkpt lat="49.39311" lon="1.48281">
        <ele>169.40002441406</ele>
        <time>2015-06-13T10:55:04Z</time>
      </trkpt>
      <trkpt lat="49.39343" lon="1.48347">
        <ele>171</ele>
        <time>2015-06-13T10:55:31Z</time>
      </trkpt>
      <trkpt lat="49.39369" lon="1.48418">
        <ele>172.20001220703</ele>
        <time>2015-06-13T10:55:46Z</time>
      </trkpt>
      <trkpt lat="49.3938" lon="1.4847">
        <ele>173.40002441406</ele>
        <time>2015-06-13T10:55:57Z</time>
      </trkpt>
      <trkpt lat="49.39381" lon="1.48475">
        <ele>173.40002441406</ele>
        <time>2015-06-13T10:55:58Z</time>
      </trkpt>
      <trkpt lat="49.39391" lon="1.48548">
        <ele>172.59997558594</ele>
        <time>2015-06-13T10:56:13Z</time>
      </trkpt>
      <trkpt lat="49.39397" lon="1.48579">
        <ele>173.59997558594</ele>
        <time>2015-06-13T10:56:18Z</time>
      </trkpt>
      <trkpt lat="49.39397" lon="1.48586">
        <ele>174</ele>
        <time>2015-06-13T10:56:19Z</time>
      </trkpt>
      <trkpt lat="49.39402" lon="1.48661">
        <ele>173.40002441406</ele>
        <time>2015-06-13T10:56:32Z</time>
      </trkpt>
      <trkpt lat="49.39402" lon="1.48737">
        <ele>172.40002441406</ele>
        <time>2015-06-13T10:56:45Z</time>
      </trkpt>
      <trkpt lat="49.39402" lon="1.48772">
        <ele>170.79998779297</ele>
        <time>2015-06-13T10:56:49Z</time>
      </trkpt>
      <trkpt lat="49.39405" lon="1.48808">
        <ele>170.79998779297</ele>
        <time>2015-06-13T10:56:53Z</time>
      </trkpt>
      <trkpt lat="49.39409" lon="1.48858">
        <ele>167.59997558594</ele>
        <time>2015-06-13T10:57:00Z</time>
      </trkpt>
      <trkpt lat="49.39416" lon="1.48885">
        <ele>164.20001220703</ele>
        <time>2015-06-13T10:57:05Z</time>
      </trkpt>
      <trkpt lat="49.39423" lon="1.48896">
        <ele>161.59997558594</ele>
        <time>2015-06-13T10:57:10Z</time>
      </trkpt>
      <trkpt lat="49.39422" lon="1.48902">
        <ele>160.79998779297</ele>
        <time>2015-06-13T10:57:13Z</time>
      </trkpt>
      <trkpt lat="49.39422" lon="1.48905">
        <ele>160.40002441406</ele>
        <time>2015-06-13T10:57:14Z</time>
      </trkpt>
      <trkpt lat="49.39421" lon="1.48907">
        <ele>159.59997558594</ele>
        <time>2015-06-13T10:57:15Z</time>
      </trkpt>
      <trkpt lat="49.39421" lon="1.48909">
        <ele>159.20001220703</ele>
        <time>2015-06-13T10:57:16Z</time>
      </trkpt>
      <trkpt lat="49.39422" lon="1.48909">
        <ele>159</ele>
        <time>2015-06-13T10:57:17Z</time>
      </trkpt>
      <trkpt lat="49.39419" lon="1.48915">
        <ele>159</ele>
        <time>2015-06-13T10:57:23Z</time>
      </trkpt>
      <trkpt lat="49.39418" lon="1.48919">
        <ele>161.40002441406</ele>
        <time>2015-06-13T10:57:29Z</time>
      </trkpt>
      <trkpt lat="49.39416" lon="1.4892">
        <ele>162.40002441406</ele>
        <time>2015-06-13T10:57:32Z</time>
      </trkpt>
      <trkpt lat="49.39415" lon="1.4892">
        <ele>163.20001220703</ele>
        <time>2015-06-13T10:57:39Z</time>
      </trkpt>
      <trkpt lat="49.39422" lon="1.48934">
        <ele>163.20001220703</ele>
        <time>2015-06-13T10:58:18Z</time>
      </trkpt>
      <trkpt lat="49.39422" lon="1.48932">
        <ele>163.20001220703</ele>
        <time>2015-06-13T10:58:19Z</time>
      </trkpt>
      <trkpt lat="49.39416" lon="1.48933">
        <ele>164.20001220703</ele>
        <time>2015-06-13T10:58:25Z</time>
      </trkpt>
      <trkpt lat="49.39415" lon="1.48941">
        <ele>165.79998779297</ele>
        <time>2015-06-13T10:58:33Z</time>
      </trkpt>
      <trkpt lat="49.39417" lon="1.48941">
        <ele>166</ele>
        <time>2015-06-13T10:58:34Z</time>
      </trkpt>
      <trkpt lat="49.39418" lon="1.48941">
        <ele>166</ele>
        <time>2015-06-13T10:58:35Z</time>
      </trkpt>
      <trkpt lat="49.39421" lon="1.48944">
        <ele>166.79998779297</ele>
        <time>2015-06-13T10:58:40Z</time>
      </trkpt>
      <trkpt lat="49.39421" lon="1.48946">
        <ele>167</ele>
        <time>2015-06-13T10:58:41Z</time>
      </trkpt>
      <trkpt lat="49.3942" lon="1.48971">
        <ele>168.40002441406</ele>
        <time>2015-06-13T10:58:57Z</time>
      </trkpt>
      <trkpt lat="49.39421" lon="1.48973">
        <ele>168.59997558594</ele>
        <time>2015-06-13T10:58:58Z</time>
      </trkpt>
      <trkpt lat="49.39424" lon="1.48984">
        <ele>169.20001220703</ele>
        <time>2015-06-13T10:59:04Z</time>
      </trkpt>
      <trkpt lat="49.39424" lon="1.48986">
        <ele>169.40002441406</ele>
        <time>2015-06-13T10:59:05Z</time>
      </trkpt>
      <trkpt lat="49.39424" lon="1.48989">
        <ele>169.59997558594</ele>
        <time>2015-06-13T10:59:06Z</time>
      </trkpt>
      <trkpt lat="49.39425" lon="1.48992">
        <ele>169.59997558594</ele>
        <time>2015-06-13T10:59:07Z</time>
      </trkpt>
      <trkpt lat="49.39426" lon="1.48996">
        <ele>169.79998779297</ele>
        <time>2015-06-13T10:59:08Z</time>
      </trkpt>
      <trkpt lat="49.39427" lon="1.48999">
        <ele>170</ele>
        <time>2015-06-13T10:59:09Z</time>
      </trkpt>
      <trkpt lat="49.39428" lon="1.49003">
        <ele>170.20001220703</ele>
        <time>2015-06-13T10:59:10Z</time>
      </trkpt>
      <trkpt lat="49.39466" lon="1.49053">
        <ele>170.79998779297</ele>
        <time>2015-06-13T10:59:27Z</time>
      </trkpt>
      <trkpt lat="49.39469" lon="1.49065">
        <ele>172</ele>
        <time>2015-06-13T10:59:32Z</time>
      </trkpt>
      <trkpt lat="49.3947" lon="1.49067">
        <ele>172.40002441406</ele>
        <time>2015-06-13T10:59:33Z</time>
      </trkpt>
      <trkpt lat="49.39472" lon="1.49069">
        <ele>172.40002441406</ele>
        <time>2015-06-13T10:59:34Z</time>
      </trkpt>
      <trkpt lat="49.39474" lon="1.49071">
        <ele>172.20001220703</ele>
        <time>2015-06-13T10:59:35Z</time>
      </trkpt>
      <trkpt lat="49.39476" lon="1.49072">
        <ele>172.20001220703</ele>
        <time>2015-06-13T10:59:36Z</time>
      </trkpt>
      <trkpt lat="49.39478" lon="1.49073">
        <ele>172.20001220703</ele>
        <time>2015-06-13T10:59:37Z</time>
      </trkpt>
      <trkpt lat="49.3948" lon="1.49074">
        <ele>171.79998779297</ele>
        <time>2015-06-13T10:59:43Z</time>
      </trkpt>
      <trkpt lat="49.39481" lon="1.49075">
        <ele>172</ele>
        <time>2015-06-13T10:59:45Z</time>
      </trkpt>
      <trkpt lat="49.39482" lon="1.49075">
        <ele>172</ele>
        <time>2015-06-13T10:59:46Z</time>
      </trkpt>
      <trkpt lat="49.39486" lon="1.4908">
        <ele>172.79998779297</ele>
        <time>2015-06-13T11:00:16Z</time>
      </trkpt>
      <trkpt lat="49.39481" lon="1.49074">
        <ele>172.40002441406</ele>
        <time>2015-06-13T11:00:56Z</time>
      </trkpt>
      <trkpt lat="49.39526" lon="1.49042">
        <ele>172.79998779297</ele>
        <time>2015-06-13T11:01:12Z</time>
      </trkpt>
      <trkpt lat="49.39574" lon="1.49012">
        <ele>171.59997558594</ele>
        <time>2015-06-13T11:01:23Z</time>
      </trkpt>
      <trkpt lat="49.39624" lon="1.48983">
        <ele>171.20001220703</ele>
        <time>2015-06-13T11:01:34Z</time>
      </trkpt>
      <trkpt lat="49.39671" lon="1.48955">
        <ele>170.20001220703</ele>
        <time>2015-06-13T11:01:44Z</time>
      </trkpt>
      <trkpt lat="49.39717" lon="1.4892">
        <ele>168.40002441406</ele>
        <time>2015-06-13T11:01:55Z</time>
      </trkpt>
      <trkpt lat="49.39756" lon="1.48877">
        <ele>166.59997558594</ele>
        <time>2015-06-13T11:02:04Z</time>
      </trkpt>
      <trkpt lat="49.39792" lon="1.48824">
        <ele>166</ele>
        <time>2015-06-13T11:02:13Z</time>
      </trkpt>
      <trkpt lat="49.39828" lon="1.48775">
        <ele>165</ele>
        <time>2015-06-13T11:02:23Z</time>
      </trkpt>
      <trkpt lat="49.39846" lon="1.48702">
        <ele>162.59997558594</ele>
        <time>2015-06-13T11:02:35Z</time>
      </trkpt>
      <trkpt lat="49.39855" lon="1.48661">
        <ele>159.40002441406</ele>
        <time>2015-06-13T11:02:39Z</time>
      </trkpt>
      <trkpt lat="49.39872" lon="1.48611">
        <ele>156</ele>
        <time>2015-06-13T11:02:44Z</time>
      </trkpt>
      <trkpt lat="49.39899" lon="1.48549">
        <ele>152</ele>
        <time>2015-06-13T11:02:51Z</time>
      </trkpt>
      <trkpt lat="49.39913" lon="1.48509">
        <ele>148.79998779297</ele>
        <time>2015-06-13T11:02:55Z</time>
      </trkpt>
      <trkpt lat="49.39929" lon="1.4847">
        <ele>145.79998779297</ele>
        <time>2015-06-13T11:02:59Z</time>
      </trkpt>
      <trkpt lat="49.39943" lon="1.48441">
        <ele>143.20001220703</ele>
        <time>2015-06-13T11:03:02Z</time>
      </trkpt>
      <trkpt lat="49.39977" lon="1.48387">
        <ele>139.59997558594</ele>
        <time>2015-06-13T11:03:08Z</time>
      </trkpt>
      <trkpt lat="49.39987" lon="1.48374">
        <ele>138.79998779297</ele>
        <time>2015-06-13T11:03:10Z</time>
      </trkpt>
      <trkpt lat="49.4" lon="1.48356">
        <ele>137.79998779297</ele>
        <time>2015-06-13T11:03:13Z</time>
      </trkpt>
      <trkpt lat="49.40005" lon="1.4835">
        <ele>137.20001220703</ele>
        <time>2015-06-13T11:03:16Z</time>
      </trkpt>
      <trkpt lat="49.40004" lon="1.48347">
        <ele>137</ele>
        <time>2015-06-13T11:03:26Z</time>
      </trkpt>
      <trkpt lat="49.40004" lon="1.48343">
        <ele>137</ele>
        <time>2015-06-13T11:03:27Z</time>
      </trkpt>
      <trkpt lat="49.40005" lon="1.48338">
        <ele>136.79998779297</ele>
        <time>2015-06-13T11:03:28Z</time>
      </trkpt>
      <trkpt lat="49.40008" lon="1.48331">
        <ele>136.59997558594</ele>
        <time>2015-06-13T11:03:29Z</time>
      </trkpt>
      <trkpt lat="49.4001" lon="1.48322">
        <ele>136.20001220703</ele>
        <time>2015-06-13T11:03:30Z</time>
      </trkpt>
      <trkpt lat="49.40025" lon="1.48266">
        <ele>132.40002441406</ele>
        <time>2015-06-13T11:03:35Z</time>
      </trkpt>
      <trkpt lat="49.4003" lon="1.48222">
        <ele>127.79998779297</ele>
        <time>2015-06-13T11:03:38Z</time>
      </trkpt>
      <trkpt lat="49.40031" lon="1.48172">
        <ele>124.79998779297</ele>
        <time>2015-06-13T11:03:41Z</time>
      </trkpt>
      <trkpt lat="49.40024" lon="1.48109">
        <ele>123.79998779297</ele>
        <time>2015-06-13T11:03:45Z</time>
      </trkpt>
      <trkpt lat="49.40019" lon="1.48096">
        <ele>123.40002441406</ele>
        <time>2015-06-13T11:03:46Z</time>
      </trkpt>
      <trkpt lat="49.40014" lon="1.48082">
        <ele>122.79998779297</ele>
        <time>2015-06-13T11:03:47Z</time>
      </trkpt>
      <trkpt lat="49.40009" lon="1.48071">
        <ele>122.59997558594</ele>
        <time>2015-06-13T11:03:48Z</time>
      </trkpt>
      <trkpt lat="49.40001" lon="1.4806">
        <ele>122.59997558594</ele>
        <time>2015-06-13T11:03:49Z</time>
      </trkpt>
      <trkpt lat="49.39993" lon="1.4805">
        <ele>122.40002441406</ele>
        <time>2015-06-13T11:03:50Z</time>
      </trkpt>
      <trkpt lat="49.39986" lon="1.48041">
        <ele>122.20001220703</ele>
        <time>2015-06-13T11:03:51Z</time>
      </trkpt>
      <trkpt lat="49.39966" lon="1.47982">
        <ele>119.79998779297</ele>
        <time>2015-06-13T11:03:56Z</time>
      </trkpt>
      <trkpt lat="49.39965" lon="1.4797">
        <ele>119.20001220703</ele>
        <time>2015-06-13T11:03:57Z</time>
      </trkpt>
      <trkpt lat="49.39964" lon="1.47958">
        <ele>119.20001220703</ele>
        <time>2015-06-13T11:03:58Z</time>
      </trkpt>
      <trkpt lat="49.39965" lon="1.47947">
        <ele>119.20001220703</ele>
        <time>2015-06-13T11:03:59Z</time>
      </trkpt>
      <trkpt lat="49.39965" lon="1.47936">
        <ele>119</ele>
        <time>2015-06-13T11:04:00Z</time>
      </trkpt>
      <trkpt lat="49.39965" lon="1.47924">
        <ele>118.79998779297</ele>
        <time>2015-06-13T11:04:01Z</time>
      </trkpt>
      <trkpt lat="49.39967" lon="1.47912">
        <ele>118.79998779297</ele>
        <time>2015-06-13T11:04:02Z</time>
      </trkpt>
      <trkpt lat="49.39968" lon="1.47872">
        <ele>118.79998779297</ele>
        <time>2015-06-13T11:04:07Z</time>
      </trkpt>
      <trkpt lat="49.39967" lon="1.47866">
        <ele>118.59997558594</ele>
        <time>2015-06-13T11:04:08Z</time>
      </trkpt>
      <trkpt lat="49.39932" lon="1.47856">
        <ele>121.20001220703</ele>
        <time>2015-06-13T11:04:26Z</time>
      </trkpt>
      <trkpt lat="49.39901" lon="1.4788">
        <ele>124.20001220703</ele>
        <time>2015-06-13T11:04:41Z</time>
      </trkpt>
      <trkpt lat="49.399" lon="1.47889">
        <ele>124.59997558594</ele>
        <time>2015-06-13T11:04:44Z</time>
      </trkpt>
      <trkpt lat="49.399" lon="1.47891">
        <ele>124.79998779297</ele>
        <time>2015-06-13T11:04:45Z</time>
      </trkpt>
      <trkpt lat="49.39901" lon="1.47894">
        <ele>125.20001220703</ele>
        <time>2015-06-13T11:04:46Z</time>
      </trkpt>
      <trkpt lat="49.39905" lon="1.47905">
        <ele>125.59997558594</ele>
        <time>2015-06-13T11:04:50Z</time>
      </trkpt>
      <trkpt lat="49.39907" lon="1.47906">
        <ele>125.59997558594</ele>
        <time>2015-06-13T11:04:51Z</time>
      </trkpt>
      <trkpt lat="49.3991" lon="1.47907">
        <ele>125.59997558594</ele>
        <time>2015-06-13T11:04:52Z</time>
      </trkpt>
      <trkpt lat="49.39913" lon="1.47908">
        <ele>125.40002441406</ele>
        <time>2015-06-13T11:04:53Z</time>
      </trkpt>
      <trkpt lat="49.39916" lon="1.47908">
        <ele>125.20001220703</ele>
        <time>2015-06-13T11:04:54Z</time>
      </trkpt>
      <trkpt lat="49.39919" lon="1.47908">
        <ele>125</ele>
        <time>2015-06-13T11:04:55Z</time>
      </trkpt>
      <trkpt lat="49.39943" lon="1.47899">
        <ele>124</ele>
        <time>2015-06-13T11:05:05Z</time>
      </trkpt>
      <trkpt lat="49.39944" lon="1.479">
        <ele>124.59997558594</ele>
        <time>2015-06-13T11:05:24Z</time>
      </trkpt>
      <trkpt lat="49.39943" lon="1.479">
        <ele>124.59997558594</ele>
        <time>2015-06-13T11:05:30Z</time>
      </trkpt>
      <trkpt lat="49.39931" lon="1.47896">
        <ele>125.20001220703</ele>
        <time>2015-06-13T11:59:15Z</time>
      </trkpt>
      <trkpt lat="49.39928" lon="1.47895">
        <ele>125.20001220703</ele>
        <time>2015-06-13T11:59:17Z</time>
      </trkpt>
      <trkpt lat="49.39937" lon="1.47901">
        <ele>124.40002441406</ele>
        <time>2015-06-13T11:59:29Z</time>
      </trkpt>
      <trkpt lat="49.39936" lon="1.47902">
        <ele>124.20001220703</ele>
        <time>2015-06-13T11:59:36Z</time>
      </trkpt>
      <trkpt lat="49.39941" lon="1.47903">
        <ele>124</ele>
        <time>2015-06-13T11:59:47Z</time>
      </trkpt>
      <trkpt lat="49.39942" lon="1.47904">
        <ele>123.79998779297</ele>
        <time>2015-06-13T11:59:58Z</time>
      </trkpt>
      <trkpt lat="49.39942" lon="1.47898">
        <ele>124.59997558594</ele>
        <time>2015-06-13T12:01:24Z</time>
      </trkpt>
      <trkpt lat="49.39939" lon="1.479">
        <ele>124.59997558594</ele>
        <time>2015-06-13T12:02:03Z</time>
      </trkpt>
      <trkpt lat="49.39934" lon="1.47906">
        <ele>124.79998779297</ele>
        <time>2015-06-13T12:02:30Z</time>
      </trkpt>
      <trkpt lat="49.39931" lon="1.47905">
        <ele>124.79998779297</ele>
        <time>2015-06-13T12:02:31Z</time>
      </trkpt>
      <trkpt lat="49.3993" lon="1.47905">
        <ele>125</ele>
        <time>2015-06-13T12:02:32Z</time>
      </trkpt>
      <trkpt lat="49.3991" lon="1.47906">
        <ele>125.79998779297</ele>
        <time>2015-06-13T12:02:44Z</time>
      </trkpt>
      <trkpt lat="49.39909" lon="1.47905">
        <ele>125.79998779297</ele>
        <time>2015-06-13T12:02:45Z</time>
      </trkpt>
      <trkpt lat="49.39908" lon="1.47903">
        <ele>126</ele>
        <time>2015-06-13T12:02:46Z</time>
      </trkpt>
      <trkpt lat="49.39907" lon="1.479">
        <ele>126.20001220703</ele>
        <time>2015-06-13T12:02:47Z</time>
      </trkpt>
      <trkpt lat="49.39906" lon="1.47898">
        <ele>126.20001220703</ele>
        <time>2015-06-13T12:02:48Z</time>
      </trkpt>
      <trkpt lat="49.39905" lon="1.47895">
        <ele>126</ele>
        <time>2015-06-13T12:02:49Z</time>
      </trkpt>
      <trkpt lat="49.39903" lon="1.47892">
        <ele>125.79998779297</ele>
        <time>2015-06-13T12:02:50Z</time>
      </trkpt>
      <trkpt lat="49.39884" lon="1.47825">
        <ele>127</ele>
        <time>2015-06-13T12:03:09Z</time>
      </trkpt>
      <trkpt lat="49.3985" lon="1.4776">
        <ele>128</ele>
        <time>2015-06-13T12:03:28Z</time>
      </trkpt>
      <trkpt lat="49.39815" lon="1.47708">
        <ele>126.20001220703</ele>
        <time>2015-06-13T12:03:44Z</time>
      </trkpt>
      <trkpt lat="49.39797" lon="1.47638">
        <ele>125.40002441406</ele>
        <time>2015-06-13T12:03:59Z</time>
      </trkpt>
      <trkpt lat="49.39804" lon="1.47571">
        <ele>122.59997558594</ele>
        <time>2015-06-13T12:04:10Z</time>
      </trkpt>
      <trkpt lat="49.39803" lon="1.47567">
        <ele>122.59997558594</ele>
        <time>2015-06-13T12:04:11Z</time>
      </trkpt>
      <trkpt lat="49.398" lon="1.47565">
        <ele>122.79998779297</ele>
        <time>2015-06-13T12:04:12Z</time>
      </trkpt>
      <trkpt lat="49.39798" lon="1.47565">
        <ele>122.59997558594</ele>
        <time>2015-06-13T12:04:13Z</time>
      </trkpt>
      <trkpt lat="49.39794" lon="1.47565">
        <ele>122.59997558594</ele>
        <time>2015-06-13T12:04:14Z</time>
      </trkpt>
      <trkpt lat="49.39791" lon="1.47565">
        <ele>122.40002441406</ele>
        <time>2015-06-13T12:04:15Z</time>
      </trkpt>
      <trkpt lat="49.39788" lon="1.47563">
        <ele>122.20001220703</ele>
        <time>2015-06-13T12:04:16Z</time>
      </trkpt>
      <trkpt lat="49.39785" lon="1.47559">
        <ele>122</ele>
        <time>2015-06-13T12:04:17Z</time>
      </trkpt>
      <trkpt lat="49.39784" lon="1.47556">
        <ele>122</ele>
        <time>2015-06-13T12:04:18Z</time>
      </trkpt>
      <trkpt lat="49.39783" lon="1.47552">
        <ele>122</ele>
        <time>2015-06-13T12:04:19Z</time>
      </trkpt>
      <trkpt lat="49.39783" lon="1.47548">
        <ele>121.79998779297</ele>
        <time>2015-06-13T12:04:20Z</time>
      </trkpt>
      <trkpt lat="49.39783" lon="1.47543">
        <ele>121.59997558594</ele>
        <time>2015-06-13T12:04:21Z</time>
      </trkpt>
      <trkpt lat="49.39787" lon="1.47538">
        <ele>121.59997558594</ele>
        <time>2015-06-13T12:04:22Z</time>
      </trkpt>
      <trkpt lat="49.39791" lon="1.47533">
        <ele>121.40002441406</ele>
        <time>2015-06-13T12:04:23Z</time>
      </trkpt>
      <trkpt lat="49.39792" lon="1.47527">
        <ele>121.20001220703</ele>
        <time>2015-06-13T12:04:24Z</time>
      </trkpt>
      <trkpt lat="49.39798" lon="1.47519">
        <ele>121</ele>
        <time>2015-06-13T12:04:25Z</time>
      </trkpt>
      <trkpt lat="49.39801" lon="1.47511">
        <ele>121</ele>
        <time>2015-06-13T12:04:26Z</time>
      </trkpt>
      <trkpt lat="49.39802" lon="1.47503">
        <ele>120.79998779297</ele>
        <time>2015-06-13T12:04:27Z</time>
      </trkpt>
      <trkpt lat="49.39798" lon="1.47469">
        <ele>119.59997558594</ele>
        <time>2015-06-13T12:04:32Z</time>
      </trkpt>
      <trkpt lat="49.3979" lon="1.47429">
        <ele>118.59997558594</ele>
        <time>2015-06-13T12:04:38Z</time>
      </trkpt>
      <trkpt lat="49.3979" lon="1.47423">
        <ele>118.40002441406</ele>
        <time>2015-06-13T12:04:39Z</time>
      </trkpt>
      <trkpt lat="49.39792" lon="1.47417">
        <ele>118.40002441406</ele>
        <time>2015-06-13T12:04:40Z</time>
      </trkpt>
      <trkpt lat="49.39794" lon="1.47411">
        <ele>118</ele>
        <time>2015-06-13T12:04:41Z</time>
      </trkpt>
      <trkpt lat="49.39797" lon="1.47406">
        <ele>118</ele>
        <time>2015-06-13T12:04:42Z</time>
      </trkpt>
      <trkpt lat="49.398" lon="1.47402">
        <ele>117.79998779297</ele>
        <time>2015-06-13T12:04:43Z</time>
      </trkpt>
      <trkpt lat="49.39804" lon="1.47401">
        <ele>117.79998779297</ele>
        <time>2015-06-13T12:04:44Z</time>
      </trkpt>
      <trkpt lat="49.39807" lon="1.47399">
        <ele>117.79998779297</ele>
        <time>2015-06-13T12:04:45Z</time>
      </trkpt>
      <trkpt lat="49.3983" lon="1.47363">
        <ele>114.59997558594</ele>
        <time>2015-06-13T12:04:54Z</time>
      </trkpt>
      <trkpt lat="49.39836" lon="1.47361">
        <ele>114</ele>
        <time>2015-06-13T12:04:55Z</time>
      </trkpt>
      <trkpt lat="49.39841" lon="1.47359">
        <ele>113.59997558594</ele>
        <time>2015-06-13T12:04:56Z</time>
      </trkpt>
      <trkpt lat="49.39848" lon="1.47356">
        <ele>113.20001220703</ele>
        <time>2015-06-13T12:04:57Z</time>
      </trkpt>
      <trkpt lat="49.39854" lon="1.47354">
        <ele>112.79998779297</ele>
        <time>2015-06-13T12:04:58Z</time>
      </trkpt>
      <trkpt lat="49.39892" lon="1.4731">
        <ele>110.40002441406</ele>
        <time>2015-06-13T12:05:10Z</time>
      </trkpt>
      <trkpt lat="49.39898" lon="1.47259">
        <ele>110</ele>
        <time>2015-06-13T12:05:18Z</time>
      </trkpt>
      <trkpt lat="49.39898" lon="1.47253">
        <ele>110</ele>
        <time>2015-06-13T12:05:19Z</time>
      </trkpt>
      <trkpt lat="49.39899" lon="1.47246">
        <ele>109.79998779297</ele>
        <time>2015-06-13T12:05:20Z</time>
      </trkpt>
      <trkpt lat="49.39903" lon="1.47182">
        <ele>108.20001220703</ele>
        <time>2015-06-13T12:05:28Z</time>
      </trkpt>
      <trkpt lat="49.39901" lon="1.47163">
        <ele>107.59997558594</ele>
        <time>2015-06-13T12:05:30Z</time>
      </trkpt>
      <trkpt lat="49.39899" lon="1.47153">
        <ele>107.40002441406</ele>
        <time>2015-06-13T12:05:31Z</time>
      </trkpt>
      <trkpt lat="49.39891" lon="1.47124">
        <ele>106.40002441406</ele>
        <time>2015-06-13T12:05:34Z</time>
      </trkpt>
      <trkpt lat="49.39866" lon="1.47049">
        <ele>104.20001220703</ele>
        <time>2015-06-13T12:05:41Z</time>
      </trkpt>
      <trkpt lat="49.39848" lon="1.46994">
        <ele>101.79998779297</ele>
        <time>2015-06-13T12:05:46Z</time>
      </trkpt>
      <trkpt lat="49.39832" lon="1.46916">
        <ele>100.59997558594</ele>
        <time>2015-06-13T12:05:53Z</time>
      </trkpt>
      <trkpt lat="49.39821" lon="1.46835">
        <ele>100.79998779297</ele>
        <time>2015-06-13T12:06:01Z</time>
      </trkpt>
      <trkpt lat="49.39821" lon="1.46817">
        <ele>100</ele>
        <time>2015-06-13T12:06:03Z</time>
      </trkpt>
      <trkpt lat="49.39824" lon="1.46761">
        <ele>99.599975585938</ele>
        <time>2015-06-13T12:06:10Z</time>
      </trkpt>
      <trkpt lat="49.39824" lon="1.46753">
        <ele>99.599975585938</ele>
        <time>2015-06-13T12:06:11Z</time>
      </trkpt>
      <trkpt lat="49.39822" lon="1.46746">
        <ele>99.599975585938</ele>
        <time>2015-06-13T12:06:12Z</time>
      </trkpt>
      <trkpt lat="49.39823" lon="1.4674">
        <ele>99.599975585938</ele>
        <time>2015-06-13T12:06:13Z</time>
      </trkpt>
      <trkpt lat="49.39822" lon="1.46733">
        <ele>99.599975585938</ele>
        <time>2015-06-13T12:06:14Z</time>
      </trkpt>
      <trkpt lat="49.39821" lon="1.46727">
        <ele>100</ele>
        <time>2015-06-13T12:06:15Z</time>
      </trkpt>
      <trkpt lat="49.3983" lon="1.46684">
        <ele>99.200012207031</ele>
        <time>2015-06-13T12:06:23Z</time>
      </trkpt>
      <trkpt lat="49.3983" lon="1.46678">
        <ele>99.400024414062</ele>
        <time>2015-06-13T12:06:24Z</time>
      </trkpt>
      <trkpt lat="49.39831" lon="1.46671">
        <ele>99.599975585938</ele>
        <time>2015-06-13T12:06:25Z</time>
      </trkpt>
      <trkpt lat="49.39829" lon="1.46663">
        <ele>99.400024414062</ele>
        <time>2015-06-13T12:06:26Z</time>
      </trkpt>
      <trkpt lat="49.39827" lon="1.46656">
        <ele>99.400024414062</ele>
        <time>2015-06-13T12:06:27Z</time>
      </trkpt>
      <trkpt lat="49.39825" lon="1.46649">
        <ele>99.200012207031</ele>
        <time>2015-06-13T12:06:28Z</time>
      </trkpt>
      <trkpt lat="49.39822" lon="1.46641">
        <ele>99</ele>
        <time>2015-06-13T12:06:29Z</time>
      </trkpt>
      <trkpt lat="49.3982" lon="1.46634">
        <ele>98.799987792969</ele>
        <time>2015-06-13T12:06:30Z</time>
      </trkpt>
      <trkpt lat="49.39817" lon="1.46627">
        <ele>98.799987792969</ele>
        <time>2015-06-13T12:06:31Z</time>
      </trkpt>
      <trkpt lat="49.39811" lon="1.46613">
        <ele>98.799987792969</ele>
        <time>2015-06-13T12:06:33Z</time>
      </trkpt>
      <trkpt lat="49.3978" lon="1.46546">
        <ele>98.200012207031</ele>
        <time>2015-06-13T12:06:43Z</time>
      </trkpt>
      <trkpt lat="49.39752" lon="1.46479">
        <ele>97.799987792969</ele>
        <time>2015-06-13T12:06:54Z</time>
      </trkpt>
      <trkpt lat="49.39728" lon="1.4641">
        <ele>98.599975585938</ele>
        <time>2015-06-13T12:07:06Z</time>
      </trkpt>
      <trkpt lat="49.39721" lon="1.46399">
        <ele>98.599975585938</ele>
        <time>2015-06-13T12:07:08Z</time>
      </trkpt>
      <trkpt lat="49.39718" lon="1.46393">
        <ele>98.799987792969</ele>
        <time>2015-06-13T12:07:09Z</time>
      </trkpt>
      <trkpt lat="49.39684" lon="1.46343">
        <ele>100.40002441406</ele>
        <time>2015-06-13T12:07:22Z</time>
      </trkpt>
      <trkpt lat="49.39646" lon="1.463">
        <ele>101.40002441406</ele>
        <time>2015-06-13T12:07:36Z</time>
      </trkpt>
      <trkpt lat="49.39604" lon="1.46262">
        <ele>104</ele>
        <time>2015-06-13T12:07:51Z</time>
      </trkpt>
      <trkpt lat="49.39572" lon="1.46202">
        <ele>106</ele>
        <time>2015-06-13T12:08:06Z</time>
      </trkpt>
      <trkpt lat="49.39541" lon="1.46142">
        <ele>106</ele>
        <time>2015-06-13T12:08:20Z</time>
      </trkpt>
      <trkpt lat="49.39539" lon="1.46136">
        <ele>106.20001220703</ele>
        <time>2015-06-13T12:08:21Z</time>
      </trkpt>
      <trkpt lat="49.39537" lon="1.46131">
        <ele>106.20001220703</ele>
        <time>2015-06-13T12:08:22Z</time>
      </trkpt>
      <trkpt lat="49.39534" lon="1.46117">
        <ele>106.20001220703</ele>
        <time>2015-06-13T12:08:24Z</time>
      </trkpt>
      <trkpt lat="49.39525" lon="1.46038">
        <ele>105</ele>
        <time>2015-06-13T12:08:34Z</time>
      </trkpt>
      <trkpt lat="49.39519" lon="1.45962">
        <ele>102</ele>
        <time>2015-06-13T12:08:43Z</time>
      </trkpt>
      <trkpt lat="49.39507" lon="1.459">
        <ele>100.59997558594</ele>
        <time>2015-06-13T12:08:52Z</time>
      </trkpt>
      <trkpt lat="49.39492" lon="1.4582">
        <ele>101.59997558594</ele>
        <time>2015-06-13T12:09:05Z</time>
      </trkpt>
      <trkpt lat="49.39475" lon="1.45736">
        <ele>102.79998779297</ele>
        <time>2015-06-13T12:09:20Z</time>
      </trkpt>
      <trkpt lat="49.39475" lon="1.45728">
        <ele>102.79998779297</ele>
        <time>2015-06-13T12:09:21Z</time>
      </trkpt>
      <trkpt lat="49.39475" lon="1.45721">
        <ele>102.79998779297</ele>
        <time>2015-06-13T12:09:22Z</time>
      </trkpt>
      <trkpt lat="49.39474" lon="1.45642">
        <ele>102.59997558594</ele>
        <time>2015-06-13T12:09:35Z</time>
      </trkpt>
      <trkpt lat="49.39453" lon="1.45562">
        <ele>102.79998779297</ele>
        <time>2015-06-13T12:09:50Z</time>
      </trkpt>
      <trkpt lat="49.39435" lon="1.45477">
        <ele>102.79998779297</ele>
        <time>2015-06-13T12:10:04Z</time>
      </trkpt>
      <trkpt lat="49.39415" lon="1.45401">
        <ele>101.20001220703</ele>
        <time>2015-06-13T12:10:16Z</time>
      </trkpt>
      <trkpt lat="49.39394" lon="1.45316">
        <ele>101</ele>
        <time>2015-06-13T12:10:28Z</time>
      </trkpt>
      <trkpt lat="49.39362" lon="1.45237">
        <ele>101</ele>
        <time>2015-06-13T12:10:43Z</time>
      </trkpt>
      <trkpt lat="49.39322" lon="1.45169">
        <ele>102.20001220703</ele>
        <time>2015-06-13T12:10:59Z</time>
      </trkpt>
      <trkpt lat="49.39299" lon="1.45084">
        <ele>104.79998779297</ele>
        <time>2015-06-13T12:11:16Z</time>
      </trkpt>
      <trkpt lat="49.39263" lon="1.44996">
        <ele>105.40002441406</ele>
        <time>2015-06-13T12:11:32Z</time>
      </trkpt>
      <trkpt lat="49.39231" lon="1.44898">
        <ele>107.40002441406</ele>
        <time>2015-06-13T12:11:53Z</time>
      </trkpt>
      <trkpt lat="49.39223" lon="1.44855">
        <ele>110.40002441406</ele>
        <time>2015-06-13T12:12:04Z</time>
      </trkpt>
      <trkpt lat="49.39216" lon="1.44812">
        <ele>113.59997558594</ele>
        <time>2015-06-13T12:12:16Z</time>
      </trkpt>
      <trkpt lat="49.39205" lon="1.44776">
        <ele>116.79998779297</ele>
        <time>2015-06-13T12:12:30Z</time>
      </trkpt>
      <trkpt lat="49.392" lon="1.44756">
        <ele>119</ele>
        <time>2015-06-13T12:12:38Z</time>
      </trkpt>
      <trkpt lat="49.39192" lon="1.44717">
        <ele>122</ele>
        <time>2015-06-13T12:12:50Z</time>
      </trkpt>
      <trkpt lat="49.39191" lon="1.44693">
        <ele>125.20001220703</ele>
        <time>2015-06-13T12:13:01Z</time>
      </trkpt>
      <trkpt lat="49.39188" lon="1.44663">
        <ele>128.40002441406</ele>
        <time>2015-06-13T12:13:13Z</time>
      </trkpt>
      <trkpt lat="49.39179" lon="1.44633">
        <ele>131.59997558594</ele>
        <time>2015-06-13T12:13:29Z</time>
      </trkpt>
      <trkpt lat="49.39176" lon="1.44617">
        <ele>132.20001220703</ele>
        <time>2015-06-13T12:13:43Z</time>
      </trkpt>
      <trkpt lat="49.39175" lon="1.44609">
        <ele>132.59997558594</ele>
        <time>2015-06-13T12:13:56Z</time>
      </trkpt>
      <trkpt lat="49.39171" lon="1.44606">
        <ele>132.79998779297</ele>
        <time>2015-06-13T12:14:13Z</time>
      </trkpt>
      <trkpt lat="49.39166" lon="1.446">
        <ele>132.79998779297</ele>
        <time>2015-06-13T12:14:21Z</time>
      </trkpt>
      <trkpt lat="49.39162" lon="1.446">
        <ele>132.79998779297</ele>
        <time>2015-06-13T12:14:26Z</time>
      </trkpt>
      <trkpt lat="49.39162" lon="1.44602">
        <ele>133</ele>
        <time>2015-06-13T12:14:41Z</time>
      </trkpt>
      <trkpt lat="49.39165" lon="1.446">
        <ele>132.59997558594</ele>
        <time>2015-06-13T12:14:56Z</time>
      </trkpt>
      <trkpt lat="49.39167" lon="1.44601">
        <ele>132.59997558594</ele>
        <time>2015-06-13T12:15:11Z</time>
      </trkpt>
      <trkpt lat="49.3917" lon="1.44595">
        <ele>132.59997558594</ele>
        <time>2015-06-13T12:15:27Z</time>
      </trkpt>
      <trkpt lat="49.3917" lon="1.44594">
        <ele>132.40002441406</ele>
        <time>2015-06-13T12:15:28Z</time>
      </trkpt>
      <trkpt lat="49.39167" lon="1.44595">
        <ele>132.40002441406</ele>
        <time>2015-06-13T12:15:31Z</time>
      </trkpt>
      <trkpt lat="49.39168" lon="1.44596">
        <ele>132.20001220703</ele>
        <time>2015-06-13T12:15:55Z</time>
      </trkpt>
      <trkpt lat="49.39171" lon="1.44598">
        <ele>132.40002441406</ele>
        <time>2015-06-13T12:15:59Z</time>
      </trkpt>
      <trkpt lat="49.39176" lon="1.44606">
        <ele>132.20001220703</ele>
        <time>2015-06-13T12:16:24Z</time>
      </trkpt>
      <trkpt lat="49.39174" lon="1.44604">
        <ele>132.40002441406</ele>
        <time>2015-06-13T12:16:26Z</time>
      </trkpt>
      <trkpt lat="49.39173" lon="1.44604">
        <ele>132.40002441406</ele>
        <time>2015-06-13T12:16:27Z</time>
      </trkpt>
      <trkpt lat="49.39168" lon="1.44608">
        <ele>132.20001220703</ele>
        <time>2015-06-13T12:16:44Z</time>
      </trkpt>
      <trkpt lat="49.39168" lon="1.44615">
        <ele>132.20001220703</ele>
        <time>2015-06-13T12:16:51Z</time>
      </trkpt>
      <trkpt lat="49.39167" lon="1.44605">
        <ele>132.20001220703</ele>
        <time>2015-06-13T12:17:12Z</time>
      </trkpt>
      <trkpt lat="49.39167" lon="1.44605">
        <ele>132.20001220703</ele>
        <time>2015-06-13T12:17:15Z</time>
      </trkpt>
      <trkpt lat="49.39168" lon="1.44603">
        <ele>132.40002441406</ele>
        <time>2015-06-13T12:17:19Z</time>
      </trkpt>
      <trkpt lat="49.39169" lon="1.44606">
        <ele>132.20001220703</ele>
        <time>2015-06-13T12:17:38Z</time>
      </trkpt>
      <trkpt lat="49.39168" lon="1.44606">
        <ele>132.20001220703</ele>
        <time>2015-06-13T12:17:39Z</time>
      </trkpt>
      <trkpt lat="49.39167" lon="1.44607">
        <ele>132.20001220703</ele>
        <time>2015-06-13T12:17:41Z</time>
      </trkpt>
      <trkpt lat="49.39166" lon="1.44608">
        <ele>132.20001220703</ele>
        <time>2015-06-13T12:17:42Z</time>
      </trkpt>
      <trkpt lat="49.39162" lon="1.44607">
        <ele>132</ele>
        <time>2015-06-13T12:18:29Z</time>
      </trkpt>
      <trkpt lat="49.39163" lon="1.44608">
        <ele>132</ele>
        <time>2015-06-13T12:18:37Z</time>
      </trkpt>
      <trkpt lat="49.39164" lon="1.4461">
        <ele>132</ele>
        <time>2015-06-13T12:18:44Z</time>
      </trkpt>
      <trkpt lat="49.39163" lon="1.44611">
        <ele>132</ele>
        <time>2015-06-13T12:18:45Z</time>
      </trkpt>
      <trkpt lat="49.39163" lon="1.44613">
        <ele>132</ele>
        <time>2015-06-13T12:18:47Z</time>
      </trkpt>
      <trkpt lat="49.39159" lon="1.44612">
        <ele>132.59997558594</ele>
        <time>2015-06-13T12:19:07Z</time>
      </trkpt>
      <trkpt lat="49.39157" lon="1.4461">
        <ele>132.40002441406</ele>
        <time>2015-06-13T12:19:11Z</time>
      </trkpt>
      <trkpt lat="49.39156" lon="1.44612">
        <ele>132.79998779297</ele>
        <time>2015-06-13T12:19:28Z</time>
      </trkpt>
      <trkpt lat="49.39163" lon="1.44615">
        <ele>132.79998779297</ele>
        <time>2015-06-13T12:19:35Z</time>
      </trkpt>
      <trkpt lat="49.39163" lon="1.44617">
        <ele>132.79998779297</ele>
        <time>2015-06-13T12:19:36Z</time>
      </trkpt>
      <trkpt lat="49.39163" lon="1.44618">
        <ele>132.79998779297</ele>
        <time>2015-06-13T12:19:39Z</time>
      </trkpt>
      <trkpt lat="49.39164" lon="1.44613">
        <ele>132.79998779297</ele>
        <time>2015-06-13T12:19:42Z</time>
      </trkpt>
      <trkpt lat="49.39166" lon="1.44608">
        <ele>133</ele>
        <time>2015-06-13T12:19:55Z</time>
      </trkpt>
      <trkpt lat="49.39162" lon="1.4461">
        <ele>133</ele>
        <time>2015-06-13T12:20:17Z</time>
      </trkpt>
      <trkpt lat="49.39156" lon="1.44606">
        <ele>132.79998779297</ele>
        <time>2015-06-13T12:20:28Z</time>
      </trkpt>
      <trkpt lat="49.39157" lon="1.44602">
        <ele>132.79998779297</ele>
        <time>2015-06-13T12:20:36Z</time>
      </trkpt>
      <trkpt lat="49.39155" lon="1.44603">
        <ele>132.79998779297</ele>
        <time>2015-06-13T12:20:37Z</time>
      </trkpt>
      <trkpt lat="49.39153" lon="1.44603">
        <ele>132.79998779297</ele>
        <time>2015-06-13T12:20:43Z</time>
      </trkpt>
      <trkpt lat="49.39152" lon="1.44604">
        <ele>132.79998779297</ele>
        <time>2015-06-13T12:20:49Z</time>
      </trkpt>
      <trkpt lat="49.39161" lon="1.4461">
        <ele>132.40002441406</ele>
        <time>2015-06-13T12:21:09Z</time>
      </trkpt>
      <trkpt lat="49.39161" lon="1.44612">
        <ele>132.20001220703</ele>
        <time>2015-06-13T12:21:23Z</time>
      </trkpt>
      <trkpt lat="49.39163" lon="1.44608">
        <ele>132.59997558594</ele>
        <time>2015-06-13T12:21:33Z</time>
      </trkpt>
      <trkpt lat="49.39164" lon="1.44607">
        <ele>132.79998779297</ele>
        <time>2015-06-13T12:21:37Z</time>
      </trkpt>
      <trkpt lat="49.39164" lon="1.44601">
        <ele>132.59997558594</ele>
        <time>2015-06-13T12:21:49Z</time>
      </trkpt>
      <trkpt lat="49.39162" lon="1.44601">
        <ele>132.59997558594</ele>
        <time>2015-06-13T12:21:51Z</time>
      </trkpt>
      <trkpt lat="49.39155" lon="1.44604">
        <ele>133</ele>
        <time>2015-06-13T12:21:54Z</time>
      </trkpt>
      <trkpt lat="49.39155" lon="1.44604">
        <ele>132.79998779297</ele>
        <time>2015-06-13T12:21:57Z</time>
      </trkpt>
      <trkpt lat="49.39154" lon="1.44607">
        <ele>132.79998779297</ele>
        <time>2015-06-13T12:22:02Z</time>
      </trkpt>
      <trkpt lat="49.39157" lon="1.44612">
        <ele>132.79998779297</ele>
        <time>2015-06-13T12:22:10Z</time>
      </trkpt>
      <trkpt lat="49.39161" lon="1.44617">
        <ele>133.20001220703</ele>
        <time>2015-06-13T12:23:22Z</time>
      </trkpt>
      <trkpt lat="49.39163" lon="1.44613">
        <ele>133</ele>
        <time>2015-06-13T12:23:42Z</time>
      </trkpt>
      <trkpt lat="49.39163" lon="1.44615">
        <ele>132.79998779297</ele>
        <time>2015-06-13T12:23:58Z</time>
      </trkpt>
      <trkpt lat="49.39164" lon="1.44611">
        <ele>133</ele>
        <time>2015-06-13T12:24:06Z</time>
      </trkpt>
      <trkpt lat="49.39164" lon="1.44605">
        <ele>132.59997558594</ele>
        <time>2015-06-13T12:24:31Z</time>
      </trkpt>
      <trkpt lat="49.39163" lon="1.44604">
        <ele>132.59997558594</ele>
        <time>2015-06-13T12:24:33Z</time>
      </trkpt>
      <trkpt lat="49.39155" lon="1.44608">
        <ele>132.79998779297</ele>
        <time>2015-06-13T12:24:53Z</time>
      </trkpt>
      <trkpt lat="49.39151" lon="1.44607">
        <ele>132.59997558594</ele>
        <time>2015-06-13T12:25:03Z</time>
      </trkpt>
      <trkpt lat="49.39151" lon="1.44608">
        <ele>132.40002441406</ele>
        <time>2015-06-13T12:25:11Z</time>
      </trkpt>
      <trkpt lat="49.39154" lon="1.4461">
        <ele>132.59997558594</ele>
        <time>2015-06-13T12:25:15Z</time>
      </trkpt>
      <trkpt lat="49.39158" lon="1.44616">
        <ele>132.59997558594</ele>
        <time>2015-06-13T12:25:39Z</time>
      </trkpt>
      <trkpt lat="49.39157" lon="1.44614">
        <ele>131.79998779297</ele>
        <time>2015-06-13T12:25:46Z</time>
      </trkpt>
      <trkpt lat="49.39156" lon="1.44612">
        <ele>132.40002441406</ele>
        <time>2015-06-13T12:25:54Z</time>
      </trkpt>
      <trkpt lat="49.39154" lon="1.4461">
        <ele>132.40002441406</ele>
        <time>2015-06-13T12:25:57Z</time>
      </trkpt>
      <trkpt lat="49.39154" lon="1.44613">
        <ele>132.59997558594</ele>
        <time>2015-06-13T12:26:05Z</time>
      </trkpt>
      <trkpt lat="49.39154" lon="1.44615">
        <ele>132.59997558594</ele>
        <time>2015-06-13T12:26:06Z</time>
      </trkpt>
      <trkpt lat="49.39155" lon="1.44618">
        <ele>132.59997558594</ele>
        <time>2015-06-13T12:26:08Z</time>
      </trkpt>
      <trkpt lat="49.39153" lon="1.44625">
        <ele>132.59997558594</ele>
        <time>2015-06-13T12:26:11Z</time>
      </trkpt>
      <trkpt lat="49.39151" lon="1.44625">
        <ele>132.40002441406</ele>
        <time>2015-06-13T12:26:16Z</time>
      </trkpt>
      <trkpt lat="49.39152" lon="1.4462">
        <ele>132.59997558594</ele>
        <time>2015-06-13T12:26:21Z</time>
      </trkpt>
      <trkpt lat="49.39153" lon="1.4462">
        <ele>132.40002441406</ele>
        <time>2015-06-13T12:26:25Z</time>
      </trkpt>
      <trkpt lat="49.39157" lon="1.4462">
        <ele>132.40002441406</ele>
        <time>2015-06-13T12:26:31Z</time>
      </trkpt>
      <trkpt lat="49.39158" lon="1.44618">
        <ele>132.59997558594</ele>
        <time>2015-06-13T12:26:36Z</time>
      </trkpt>
      <trkpt lat="49.39162" lon="1.44613">
        <ele>132.40002441406</ele>
        <time>2015-06-13T12:26:53Z</time>
      </trkpt>
      <trkpt lat="49.39163" lon="1.44609">
        <ele>132.40002441406</ele>
        <time>2015-06-13T12:27:11Z</time>
      </trkpt>
      <trkpt lat="49.39165" lon="1.4461">
        <ele>132.40002441406</ele>
        <time>2015-06-13T12:27:19Z</time>
      </trkpt>
      <trkpt lat="49.39165" lon="1.4461">
        <ele>132.40002441406</ele>
        <time>2015-06-13T12:27:20Z</time>
      </trkpt>
      <trkpt lat="49.39161" lon="1.44608">
        <ele>132.20001220703</ele>
        <time>2015-06-13T12:27:30Z</time>
      </trkpt>
      <trkpt lat="49.39161" lon="1.44607">
        <ele>132.20001220703</ele>
        <time>2015-06-13T12:27:34Z</time>
      </trkpt>
      <trkpt lat="49.39159" lon="1.44606">
        <ele>132.20001220703</ele>
        <time>2015-06-13T12:27:37Z</time>
      </trkpt>
      <trkpt lat="49.39159" lon="1.44606">
        <ele>132.40002441406</ele>
        <time>2015-06-13T12:27:38Z</time>
      </trkpt>
      <trkpt lat="49.39156" lon="1.44612">
        <ele>132.20001220703</ele>
        <time>2015-06-13T12:27:45Z</time>
      </trkpt>
      <trkpt lat="49.39156" lon="1.44614">
        <ele>132.20001220703</ele>
        <time>2015-06-13T12:27:46Z</time>
      </trkpt>
      <trkpt lat="49.39162" lon="1.44616">
        <ele>132.40002441406</ele>
        <time>2015-06-13T12:28:12Z</time>
      </trkpt>
      <trkpt lat="49.39161" lon="1.44618">
        <ele>132.20001220703</ele>
        <time>2015-06-13T12:28:15Z</time>
      </trkpt>
      <trkpt lat="49.39157" lon="1.4462">
        <ele>132.20001220703</ele>
        <time>2015-06-13T12:28:49Z</time>
      </trkpt>
      <trkpt lat="49.39158" lon="1.44618">
        <ele>132.20001220703</ele>
        <time>2015-06-13T12:28:52Z</time>
      </trkpt>
      <trkpt lat="49.39155" lon="1.44616">
        <ele>132.20001220703</ele>
        <time>2015-06-13T12:28:59Z</time>
      </trkpt>
      <trkpt lat="49.39157" lon="1.44616">
        <ele>132.40002441406</ele>
        <time>2015-06-13T12:29:04Z</time>
      </trkpt>
      <trkpt lat="49.3916" lon="1.44614">
        <ele>132.20001220703</ele>
        <time>2015-06-13T12:29:10Z</time>
      </trkpt>
      <trkpt lat="49.39156" lon="1.44613">
        <ele>132.59997558594</ele>
        <time>2015-06-13T12:29:22Z</time>
      </trkpt>
      <trkpt lat="49.39154" lon="1.4461">
        <ele>132.79998779297</ele>
        <time>2015-06-13T12:30:13Z</time>
      </trkpt>
      <trkpt lat="49.39157" lon="1.44607">
        <ele>133.20001220703</ele>
        <time>2015-06-13T12:30:37Z</time>
      </trkpt>
      <trkpt lat="49.39159" lon="1.44614">
        <ele>132.59997558594</ele>
        <time>2015-06-13T12:30:58Z</time>
      </trkpt>
      <trkpt lat="49.39159" lon="1.44618">
        <ele>132.20001220703</ele>
        <time>2015-06-13T12:31:02Z</time>
      </trkpt>
      <trkpt lat="49.39169" lon="1.44649">
        <ele>129.20001220703</ele>
        <time>2015-06-13T12:31:23Z</time>
      </trkpt>
      <trkpt lat="49.3917" lon="1.44658">
        <ele>128.20001220703</ele>
        <time>2015-06-13T12:31:28Z</time>
      </trkpt>
      <trkpt lat="49.3917" lon="1.4466">
        <ele>128.20001220703</ele>
        <time>2015-06-13T12:31:29Z</time>
      </trkpt>
      <trkpt lat="49.3917" lon="1.44661">
        <ele>128</ele>
        <time>2015-06-13T12:31:30Z</time>
      </trkpt>
      <trkpt lat="49.3917" lon="1.44662">
        <ele>128</ele>
        <time>2015-06-13T12:31:31Z</time>
      </trkpt>
      <trkpt lat="49.39174" lon="1.44689">
        <ele>124.79998779297</ele>
        <time>2015-06-13T12:31:50Z</time>
      </trkpt>
      <trkpt lat="49.3918" lon="1.44714">
        <ele>122</ele>
        <time>2015-06-13T12:32:07Z</time>
      </trkpt>
      <trkpt lat="49.3918" lon="1.44715">
        <ele>121.79998779297</ele>
        <time>2015-06-13T12:32:08Z</time>
      </trkpt>
      <trkpt lat="49.39182" lon="1.44719">
        <ele>121.59997558594</ele>
        <time>2015-06-13T12:32:11Z</time>
      </trkpt>
      <trkpt lat="49.39191" lon="1.44752">
        <ele>118.40002441406</ele>
        <time>2015-06-13T12:32:32Z</time>
      </trkpt>
      <trkpt lat="49.39202" lon="1.44791">
        <ele>115.40002441406</ele>
        <time>2015-06-13T12:32:52Z</time>
      </trkpt>
      <trkpt lat="49.3921" lon="1.44806">
        <ele>114.20001220703</ele>
        <time>2015-06-13T12:33:11Z</time>
      </trkpt>
      <trkpt lat="49.39211" lon="1.44807">
        <ele>114</ele>
        <time>2015-06-13T12:33:12Z</time>
      </trkpt>
      <trkpt lat="49.39224" lon="1.44846">
        <ele>110.79998779297</ele>
        <time>2015-06-13T12:33:34Z</time>
      </trkpt>
      <trkpt lat="49.39225" lon="1.4487">
        <ele>108.79998779297</ele>
        <time>2015-06-13T12:33:48Z</time>
      </trkpt>
      <trkpt lat="49.39226" lon="1.44872">
        <ele>108.59997558594</ele>
        <time>2015-06-13T12:33:49Z</time>
      </trkpt>
      <trkpt lat="49.39226" lon="1.44874">
        <ele>108.40002441406</ele>
        <time>2015-06-13T12:33:50Z</time>
      </trkpt>
      <trkpt lat="49.39226" lon="1.44875">
        <ele>108.20001220703</ele>
        <time>2015-06-13T12:33:51Z</time>
      </trkpt>
      <trkpt lat="49.39226" lon="1.44878">
        <ele>108.20001220703</ele>
        <time>2015-06-13T12:33:52Z</time>
      </trkpt>
      <trkpt lat="49.39226" lon="1.4488">
        <ele>108</ele>
        <time>2015-06-13T12:33:53Z</time>
      </trkpt>
      <trkpt lat="49.39226" lon="1.44882">
        <ele>108</ele>
        <time>2015-06-13T12:33:54Z</time>
      </trkpt>
      <trkpt lat="49.39229" lon="1.44911">
        <ele>106.40002441406</ele>
        <time>2015-06-13T12:34:12Z</time>
      </trkpt>
      <trkpt lat="49.39229" lon="1.44913">
        <ele>106.20001220703</ele>
        <time>2015-06-13T12:34:13Z</time>
      </trkpt>
      <trkpt lat="49.39228" lon="1.44921">
        <ele>106.20001220703</ele>
        <time>2015-06-13T12:34:18Z</time>
      </trkpt>
      <trkpt lat="49.39235" lon="1.44946">
        <ele>106.59997558594</ele>
        <time>2015-06-13T12:34:34Z</time>
      </trkpt>
      <trkpt lat="49.39244" lon="1.44981">
        <ele>106.40002441406</ele>
        <time>2015-06-13T12:34:55Z</time>
      </trkpt>
      <trkpt lat="49.39263" lon="1.45027">
        <ele>105.40002441406</ele>
        <time>2015-06-13T12:35:23Z</time>
      </trkpt>
      <trkpt lat="49.39264" lon="1.45029">
        <ele>105.40002441406</ele>
        <time>2015-06-13T12:35:24Z</time>
      </trkpt>
      <trkpt lat="49.39264" lon="1.4503">
        <ele>105.40002441406</ele>
        <time>2015-06-13T12:35:25Z</time>
      </trkpt>
      <trkpt lat="49.39265" lon="1.45032">
        <ele>105.40002441406</ele>
        <time>2015-06-13T12:35:26Z</time>
      </trkpt>
      <trkpt lat="49.39266" lon="1.45034">
        <ele>105.40002441406</ele>
        <time>2015-06-13T12:35:27Z</time>
      </trkpt>
      <trkpt lat="49.39284" lon="1.45075">
        <ele>105</ele>
        <time>2015-06-13T12:35:54Z</time>
      </trkpt>
      <trkpt lat="49.39284" lon="1.45077">
        <ele>104.79998779297</ele>
        <time>2015-06-13T12:35:56Z</time>
      </trkpt>
      <trkpt lat="49.39283" lon="1.45081">
        <ele>104.79998779297</ele>
        <time>2015-06-13T12:36:21Z</time>
      </trkpt>
      <trkpt lat="49.39288" lon="1.45087">
        <ele>104.79998779297</ele>
        <time>2015-06-13T12:36:34Z</time>
      </trkpt>
      <trkpt lat="49.39289" lon="1.45089">
        <ele>104.79998779297</ele>
        <time>2015-06-13T12:36:35Z</time>
      </trkpt>
      <trkpt lat="49.39289" lon="1.45091">
        <ele>104.59997558594</ele>
        <time>2015-06-13T12:36:36Z</time>
      </trkpt>
      <trkpt lat="49.39289" lon="1.45093">
        <ele>104.59997558594</ele>
        <time>2015-06-13T12:36:37Z</time>
      </trkpt>
      <trkpt lat="49.3929" lon="1.45095">
        <ele>104.59997558594</ele>
        <time>2015-06-13T12:36:38Z</time>
      </trkpt>
      <trkpt lat="49.3929" lon="1.45097">
        <ele>104.40002441406</ele>
        <time>2015-06-13T12:36:39Z</time>
      </trkpt>
      <trkpt lat="49.39291" lon="1.45099">
        <ele>104.40002441406</ele>
        <time>2015-06-13T12:36:40Z</time>
      </trkpt>
      <trkpt lat="49.39291" lon="1.45101">
        <ele>104.20001220703</ele>
        <time>2015-06-13T12:36:41Z</time>
      </trkpt>
      <trkpt lat="49.39299" lon="1.45114">
        <ele>104</ele>
        <time>2015-06-13T12:36:51Z</time>
      </trkpt>
      <trkpt lat="49.393" lon="1.45116">
        <ele>104</ele>
        <time>2015-06-13T12:36:52Z</time>
      </trkpt>
      <trkpt lat="49.39303" lon="1.45132">
        <ele>103.20001220703</ele>
        <time>2015-06-13T12:37:01Z</time>
      </trkpt>
      <trkpt lat="49.39305" lon="1.45133">
        <ele>103.20001220703</ele>
        <time>2015-06-13T12:37:02Z</time>
      </trkpt>
      <trkpt lat="49.39305" lon="1.45134">
        <ele>103.20001220703</ele>
        <time>2015-06-13T12:37:03Z</time>
      </trkpt>
      <trkpt lat="49.3931" lon="1.45146">
        <ele>103.40002441406</ele>
        <time>2015-06-13T12:37:11Z</time>
      </trkpt>
    </trkseg>
  </trk>
</gpx>